<?xml version="1.0" encoding="UTF-8"?>
<gpx creator="Montana 710" version="1.1" schemaLocation="http://www.topografix.com/GPX/1/1 http://www.topografix.com/GPX/1/1/gpx.xsd http://www.garmin.com/xmlschemas/GpxExtensions/v3 http://www.garmin.com/xmlschemas/GpxExtensionsv3.xsd http://www.garmin.com/xmlschemas/TrackPointExtension/v1 http://www.garmin.com/xmlschemas/TrackPointExtensionv1.xsd http://www.garmin.com/xmlschemas/PowerExtension/v1 http://www.garmin.com/xmlschemas/PowerExtensionv1.xsd http://www.topografix.com/GPX/gpx_style/0/2 http://www.topografix.com/GPX/gpx_style/0/2/gpx_style.xsd" xmlns="http://www.topografix.com/GPX/1/1" xmlns:xsi="http://www.w3.org/2001/XMLSchema-instance" xsi:schemaLocation="http://www.topografix.com/GPX/1/1 http://www.topografix.com/GPX/1/1/gpx.xsd http://www.garmin.com/xmlschemas/GpxExtensions/v3 http://www.garmin.com/xmlschemas/GpxExtensionsv3.xsd http://www.garmin.com/xmlschemas/TrackPointExtension/v1 http://www.garmin.com/xmlschemas/TrackPointExtensionv1.xsd http://www.garmin.com/xmlschemas/PowerExtension/v1 http://www.garmin.com/xmlschemas/PowerExtensionv1.xsd http://www.topografix.com/GPX/gpx_style/0/2 http://www.topografix.com/GPX/gpx_style/0/2/gpx_style.xsd" xmlns:gpxtpx="http://www.garmin.com/xmlschemas/TrackPointExtension/v1" xmlns:gpxx="http://www.garmin.com/xmlschemas/GpxExtensions/v3" xmlns:gpxpx="http://www.garmin.com/xmlschemas/PowerExtension/v1" xmlns:gpx_style="http://www.topografix.com/GPX/gpx_style/0/2">
  <metadata>
    <name>Škola u Ljevištima-Gojkova sika-izvor Morače-Vragodo-Šuplja greda-Rupočajska glava-Šljeme-Bljušturni do-Ljevište-škola u Ljevištima (kružna staza)</name>
    <author>
      <name>gpx.studio</name>
      <link href="https://gpx.studio"/>
    </author>
    <link href="http://www.garmin.com">
      <text>Garmin International</text>
    </link>
    <time>2026-07-29T04:59:47.000Z</time>
  </metadata>
  <trk>
    <name>Škola u Ljevištima-Gojkova sika-izvor Morače-Vragodo-Šuplja greda-Rupočajska glava-Šljeme-Bljušturni do-Ljevište-škola u Ljevištima (kružna staza)</name>
    <trkseg>
      <trkpt lat="42.8683826979" lon="19.2764570843">
        <ele>927.39</ele>
        <time>2026-07-29T06:32:38.000Z</time>
      </trkpt>
      <trkpt lat="42.8683833685" lon="19.2764397338">
        <ele>927.37</ele>
        <time>2026-07-29T06:32:39.000Z</time>
      </trkpt>
      <trkpt lat="42.868253449" lon="19.2760368995">
        <ele>926.6</ele>
        <time>2026-07-29T06:32:55.000Z</time>
      </trkpt>
      <trkpt lat="42.8680451587" lon="19.2755752243">
        <ele>923.61</ele>
        <time>2026-07-29T06:33:11.000Z</time>
      </trkpt>
      <trkpt lat="42.8679597471" lon="19.2754179798">
        <ele>922.12</ele>
        <time>2026-07-29T06:33:23.000Z</time>
      </trkpt>
      <trkpt lat="42.8679545503" lon="19.2754097655">
        <ele>922.36</ele>
        <time>2026-07-29T06:33:30.000Z</time>
      </trkpt>
      <trkpt lat="42.8679472581" lon="19.2753915768">
        <ele>922.39</ele>
        <time>2026-07-29T06:33:31.000Z</time>
      </trkpt>
      <trkpt lat="42.8679257166" lon="19.2753515951">
        <ele>922.41</ele>
        <time>2026-07-29T06:33:33.000Z</time>
      </trkpt>
      <trkpt lat="42.8678278159" lon="19.2752129585">
        <ele>923.92</ele>
        <time>2026-07-29T06:33:45.000Z</time>
      </trkpt>
      <trkpt lat="42.8678190988" lon="19.2752058338">
        <ele>925.36</ele>
        <time>2026-07-29T06:33:57.000Z</time>
      </trkpt>
      <trkpt lat="42.8677750938" lon="19.2751738988">
        <ele>925.54</ele>
        <time>2026-07-29T06:34:00.000Z</time>
      </trkpt>
      <trkpt lat="42.8677619342" lon="19.2751621641">
        <ele>925.59</ele>
        <time>2026-07-29T06:34:01.000Z</time>
      </trkpt>
      <trkpt lat="42.8677508701" lon="19.2751496751">
        <ele>925.64</ele>
        <time>2026-07-29T06:34:02.000Z</time>
      </trkpt>
      <trkpt lat="42.8677095473" lon="19.2750589829">
        <ele>926.32</ele>
        <time>2026-07-29T06:34:18.000Z</time>
      </trkpt>
      <trkpt lat="42.8677091282" lon="19.2750640959">
        <ele>926.41</ele>
        <time>2026-07-29T06:34:45.000Z</time>
      </trkpt>
      <trkpt lat="42.8676621895" lon="19.2750298977">
        <ele>925.76</ele>
        <time>2026-07-29T06:35:33.000Z</time>
      </trkpt>
      <trkpt lat="42.867607791" lon="19.2750013992">
        <ele>925.77</ele>
        <time>2026-07-29T06:35:35.000Z</time>
      </trkpt>
      <trkpt lat="42.8675791249" lon="19.2749840487">
        <ele>925.77</ele>
        <time>2026-07-29T06:35:36.000Z</time>
      </trkpt>
      <trkpt lat="42.8675519675" lon="19.2749623396">
        <ele>925.77</ele>
        <time>2026-07-29T06:35:37.000Z</time>
      </trkpt>
      <trkpt lat="42.8675288334" lon="19.2749402113">
        <ele>925.75</ele>
        <time>2026-07-29T06:35:38.000Z</time>
      </trkpt>
      <trkpt lat="42.8675045259" lon="19.2749141436">
        <ele>925.7</ele>
        <time>2026-07-29T06:35:39.000Z</time>
      </trkpt>
      <trkpt lat="42.86707839" lon="19.2743875086">
        <ele>925.27</ele>
        <time>2026-07-29T06:35:54.000Z</time>
      </trkpt>
      <trkpt lat="42.8669778071" lon="19.2741603591">
        <ele>925.2</ele>
        <time>2026-07-29T06:35:59.000Z</time>
      </trkpt>
      <trkpt lat="42.8669507336" lon="19.2741124146">
        <ele>925.19</ele>
        <time>2026-07-29T06:36:00.000Z</time>
      </trkpt>
      <trkpt lat="42.8669230733" lon="19.2740710918">
        <ele>925.2</ele>
        <time>2026-07-29T06:36:01.000Z</time>
      </trkpt>
      <trkpt lat="42.8668918088" lon="19.2740324512">
        <ele>925.27</ele>
        <time>2026-07-29T06:36:02.000Z</time>
      </trkpt>
      <trkpt lat="42.8668592032" lon="19.2739966605">
        <ele>925.39</ele>
        <time>2026-07-29T06:36:03.000Z</time>
      </trkpt>
      <trkpt lat="42.8665471449" lon="19.2736840155">
        <ele>926.16</ele>
        <time>2026-07-29T06:36:15.000Z</time>
      </trkpt>
      <trkpt lat="42.8662169818" lon="19.2732372601">
        <ele>927.57</ele>
        <time>2026-07-29T06:36:28.000Z</time>
      </trkpt>
      <trkpt lat="42.8659766726" lon="19.2725941166">
        <ele>930.4</ele>
        <time>2026-07-29T06:36:42.000Z</time>
      </trkpt>
      <trkpt lat="42.8659544606" lon="19.2724206112">
        <ele>931.09</ele>
        <time>2026-07-29T06:36:46.000Z</time>
      </trkpt>
      <trkpt lat="42.865952868" lon="19.2723579146">
        <ele>931.28</ele>
        <time>2026-07-29T06:36:47.000Z</time>
      </trkpt>
      <trkpt lat="42.8659449052" lon="19.2716662399">
        <ele>934.39</ele>
        <time>2026-07-29T06:36:58.000Z</time>
      </trkpt>
      <trkpt lat="42.8658930212" lon="19.271316044">
        <ele>937.47</ele>
        <time>2026-07-29T06:37:05.000Z</time>
      </trkpt>
      <trkpt lat="42.8657259699" lon="19.2708920874">
        <ele>940.48</ele>
        <time>2026-07-29T06:37:17.000Z</time>
      </trkpt>
      <trkpt lat="42.8653416596" lon="19.2705765087">
        <ele>943.6</ele>
        <time>2026-07-29T06:37:30.000Z</time>
      </trkpt>
      <trkpt lat="42.8652395681" lon="19.2705035862">
        <ele>944.39</ele>
        <time>2026-07-29T06:37:33.000Z</time>
      </trkpt>
      <trkpt lat="42.865201598" lon="19.2704899237">
        <ele>944.66</ele>
        <time>2026-07-29T06:37:34.000Z</time>
      </trkpt>
      <trkpt lat="42.8651659749" lon="19.2704770993">
        <ele>944.91</ele>
        <time>2026-07-29T06:37:35.000Z</time>
      </trkpt>
      <trkpt lat="42.8651351295" lon="19.2704567313">
        <ele>945.14</ele>
        <time>2026-07-29T06:37:36.000Z</time>
      </trkpt>
      <trkpt lat="42.8651093971" lon="19.2704309989">
        <ele>945.34</ele>
        <time>2026-07-29T06:37:37.000Z</time>
      </trkpt>
      <trkpt lat="42.8650847543" lon="19.2704030033">
        <ele>945.51</ele>
        <time>2026-07-29T06:37:38.000Z</time>
      </trkpt>
      <trkpt lat="42.8649042919" lon="19.2699183617">
        <ele>947.57</ele>
        <time>2026-07-29T06:37:49.000Z</time>
      </trkpt>
      <trkpt lat="42.8648975026" lon="19.2698088102">
        <ele>948.07</ele>
        <time>2026-07-29T06:37:51.000Z</time>
      </trkpt>
      <trkpt lat="42.8648884501" lon="19.269759357">
        <ele>948.3</ele>
        <time>2026-07-29T06:37:52.000Z</time>
      </trkpt>
      <trkpt lat="42.8648719378" lon="19.2697066348">
        <ele>948.62</ele>
        <time>2026-07-29T06:37:53.000Z</time>
      </trkpt>
      <trkpt lat="42.8648508992" lon="19.2696533259">
        <ele>948.99</ele>
        <time>2026-07-29T06:37:54.000Z</time>
      </trkpt>
      <trkpt lat="42.8648285195" lon="19.2696003523">
        <ele>949.38</ele>
        <time>2026-07-29T06:37:55.000Z</time>
      </trkpt>
      <trkpt lat="42.8647099994" lon="19.2691790778">
        <ele>952.78</ele>
        <time>2026-07-29T06:38:04.000Z</time>
      </trkpt>
      <trkpt lat="42.8646383341" lon="19.2688489985">
        <ele>956.04</ele>
        <time>2026-07-29T06:38:11.000Z</time>
      </trkpt>
      <trkpt lat="42.8646014538" lon="19.268523613">
        <ele>959.19</ele>
        <time>2026-07-29T06:38:17.000Z</time>
      </trkpt>
      <trkpt lat="42.8645228315" lon="19.2682226188">
        <ele>962.5</ele>
        <time>2026-07-29T06:38:23.000Z</time>
      </trkpt>
      <trkpt lat="42.8644745518" lon="19.2679913621">
        <ele>965.92</ele>
        <time>2026-07-29T06:38:29.000Z</time>
      </trkpt>
      <trkpt lat="42.8644870408" lon="19.2677201238">
        <ele>969.47</ele>
        <time>2026-07-29T06:38:35.000Z</time>
      </trkpt>
      <trkpt lat="42.8643852007" lon="19.2674813233">
        <ele>972.6</ele>
        <time>2026-07-29T06:38:41.000Z</time>
      </trkpt>
      <trkpt lat="42.864353098" lon="19.2674352229">
        <ele>972.92</ele>
        <time>2026-07-29T06:38:42.000Z</time>
      </trkpt>
      <trkpt lat="42.8643167205" lon="19.2673900444">
        <ele>973.16</ele>
        <time>2026-07-29T06:38:43.000Z</time>
      </trkpt>
      <trkpt lat="42.8642769065" lon="19.26734671">
        <ele>973.3</ele>
        <time>2026-07-29T06:38:44.000Z</time>
      </trkpt>
      <trkpt lat="42.864231728" lon="19.2673044652">
        <ele>973.37</ele>
        <time>2026-07-29T06:38:45.000Z</time>
      </trkpt>
      <trkpt lat="42.8641872201" lon="19.2672660761">
        <ele>973.41</ele>
        <time>2026-07-29T06:38:46.000Z</time>
      </trkpt>
      <trkpt lat="42.8641475737" lon="19.2672243342">
        <ele>973.43</ele>
        <time>2026-07-29T06:38:47.000Z</time>
      </trkpt>
      <trkpt lat="42.8638746589" lon="19.2666714638">
        <ele>972.31</ele>
        <time>2026-07-29T06:38:59.000Z</time>
      </trkpt>
      <trkpt lat="42.863835264" lon="19.2663529515">
        <ele>971.66</ele>
        <time>2026-07-29T06:39:04.000Z</time>
      </trkpt>
      <trkpt lat="42.8637767583" lon="19.2661247123">
        <ele>971.12</ele>
        <time>2026-07-29T06:39:08.000Z</time>
      </trkpt>
      <trkpt lat="42.8637692984" lon="19.2660614289">
        <ele>971</ele>
        <time>2026-07-29T06:39:09.000Z</time>
      </trkpt>
      <trkpt lat="42.8637397103" lon="19.2658691481">
        <ele>970.53</ele>
        <time>2026-07-29T06:39:12.000Z</time>
      </trkpt>
      <trkpt lat="42.8637194261" lon="19.2658120673">
        <ele>970.4</ele>
        <time>2026-07-29T06:39:13.000Z</time>
      </trkpt>
      <trkpt lat="42.8637075238" lon="19.2657539807">
        <ele>970.3</ele>
        <time>2026-07-29T06:39:14.000Z</time>
      </trkpt>
      <trkpt lat="42.8636848088" lon="19.2656357121">
        <ele>970.15</ele>
        <time>2026-07-29T06:39:16.000Z</time>
      </trkpt>
      <trkpt lat="42.8636572324" lon="19.2655184492">
        <ele>970.01</ele>
        <time>2026-07-29T06:39:18.000Z</time>
      </trkpt>
      <trkpt lat="42.8636377025" lon="19.265462542">
        <ele>969.91</ele>
        <time>2026-07-29T06:39:19.000Z</time>
      </trkpt>
      <trkpt lat="42.8636145685" lon="19.2654069699">
        <ele>969.77</ele>
        <time>2026-07-29T06:39:20.000Z</time>
      </trkpt>
      <trkpt lat="42.8634073678" lon="19.2650124338">
        <ele>968.36</ele>
        <time>2026-07-29T06:39:27.000Z</time>
      </trkpt>
      <trkpt lat="42.8633828089" lon="19.2649551015">
        <ele>967.91</ele>
        <time>2026-07-29T06:39:28.000Z</time>
      </trkpt>
      <trkpt lat="42.8632387239" lon="19.2645594757">
        <ele>964.94</ele>
        <time>2026-07-29T06:39:36.000Z</time>
      </trkpt>
      <trkpt lat="42.8632298391" lon="19.2645008024">
        <ele>964.37</ele>
        <time>2026-07-29T06:39:37.000Z</time>
      </trkpt>
      <trkpt lat="42.8631820623" lon="19.2642428912">
        <ele>961.35</ele>
        <time>2026-07-29T06:39:42.000Z</time>
      </trkpt>
      <trkpt lat="42.8631808888" lon="19.2641913425">
        <ele>958</ele>
        <time>2026-07-29T06:39:48.000Z</time>
      </trkpt>
      <trkpt lat="42.863175692" lon="19.2641839664">
        <ele>955.16</ele>
        <time>2026-07-29T06:40:39.000Z</time>
      </trkpt>
      <trkpt lat="42.863165969" lon="19.2641720641">
        <ele>955.16</ele>
        <time>2026-07-29T06:40:40.000Z</time>
      </trkpt>
      <trkpt lat="42.8631445952" lon="19.2641463317">
        <ele>955.16</ele>
        <time>2026-07-29T06:40:42.000Z</time>
      </trkpt>
      <trkpt lat="42.8631393984" lon="19.2641323339">
        <ele>955.94</ele>
        <time>2026-07-29T06:41:00.000Z</time>
      </trkpt>
      <trkpt lat="42.8631372191" lon="19.2641293164">
        <ele>956.39</ele>
        <time>2026-07-29T06:41:31.000Z</time>
      </trkpt>
      <trkpt lat="42.863134034" lon="19.2641103733">
        <ele>956.61</ele>
        <time>2026-07-29T06:42:02.000Z</time>
      </trkpt>
      <trkpt lat="42.8631237242" lon="19.2640870716">
        <ele>956.55</ele>
        <time>2026-07-29T06:42:03.000Z</time>
      </trkpt>
      <trkpt lat="42.862752825" lon="19.2633973248">
        <ele>958.77</ele>
        <time>2026-07-29T06:42:23.000Z</time>
      </trkpt>
      <trkpt lat="42.8626130149" lon="19.2627073266">
        <ele>961.45</ele>
        <time>2026-07-29T06:42:40.000Z</time>
      </trkpt>
      <trkpt lat="42.8625602927" lon="19.2622692045">
        <ele>963.71</ele>
        <time>2026-07-29T06:42:53.000Z</time>
      </trkpt>
      <trkpt lat="42.8623451293" lon="19.2619985528">
        <ele>964.14</ele>
        <time>2026-07-29T06:43:08.000Z</time>
      </trkpt>
      <trkpt lat="42.8620945942" lon="19.2618249636">
        <ele>965.36</ele>
        <time>2026-07-29T06:43:22.000Z</time>
      </trkpt>
      <trkpt lat="42.862014547" lon="19.2617521249">
        <ele>967.94</ele>
        <time>2026-07-29T06:43:35.000Z</time>
      </trkpt>
      <trkpt lat="42.8620605636" lon="19.2614513822">
        <ele>972.32</ele>
        <time>2026-07-29T06:43:36.000Z</time>
      </trkpt>
      <trkpt lat="42.8620457277" lon="19.261420453">
        <ele>973.28</ele>
        <time>2026-07-29T06:44:03.000Z</time>
      </trkpt>
      <trkpt lat="42.862013625" lon="19.2613416631">
        <ele>973.16</ele>
        <time>2026-07-29T06:44:10.000Z</time>
      </trkpt>
      <trkpt lat="42.8619907424" lon="19.2612117436">
        <ele>972.79</ele>
        <time>2026-07-29T06:44:26.000Z</time>
      </trkpt>
      <trkpt lat="42.8619453125" lon="19.2610560078">
        <ele>973.84</ele>
        <time>2026-07-29T06:44:41.000Z</time>
      </trkpt>
      <trkpt lat="42.8619725537" lon="19.2608802393">
        <ele>974.78</ele>
        <time>2026-07-29T06:44:57.000Z</time>
      </trkpt>
      <trkpt lat="42.8619427979" lon="19.2607472185">
        <ele>976.02</ele>
        <time>2026-07-29T06:45:53.000Z</time>
      </trkpt>
      <trkpt lat="42.8618954401" lon="19.260710841">
        <ele>974.97</ele>
        <time>2026-07-29T06:46:12.000Z</time>
      </trkpt>
      <trkpt lat="42.8618313186" lon="19.2606517486">
        <ele>974.55</ele>
        <time>2026-07-29T06:46:27.000Z</time>
      </trkpt>
      <trkpt lat="42.8618184105" lon="19.2605660856">
        <ele>976.37</ele>
        <time>2026-07-29T06:46:48.000Z</time>
      </trkpt>
      <trkpt lat="42.8617941029" lon="19.2604149599">
        <ele>976.94</ele>
        <time>2026-07-29T06:47:02.000Z</time>
      </trkpt>
      <trkpt lat="42.8617418837" lon="19.2602499202">
        <ele>978.41</ele>
        <time>2026-07-29T06:47:19.000Z</time>
      </trkpt>
      <trkpt lat="42.8617096134" lon="19.2600926757">
        <ele>979.14</ele>
        <time>2026-07-29T06:47:34.000Z</time>
      </trkpt>
      <trkpt lat="42.8616811149" lon="19.2598718125">
        <ele>979.77</ele>
        <time>2026-07-29T06:47:54.000Z</time>
      </trkpt>
      <trkpt lat="42.8616059292" lon="19.2597361095">
        <ele>981.15</ele>
        <time>2026-07-29T06:48:12.000Z</time>
      </trkpt>
      <trkpt lat="42.8615231998" lon="19.2595802061">
        <ele>982.96</ele>
        <time>2026-07-29T06:48:31.000Z</time>
      </trkpt>
      <trkpt lat="42.8614729922" lon="19.2594114784">
        <ele>984.49</ele>
        <time>2026-07-29T06:48:48.000Z</time>
      </trkpt>
      <trkpt lat="42.8614164982" lon="19.2592478637">
        <ele>986.86</ele>
        <time>2026-07-29T06:49:06.000Z</time>
      </trkpt>
      <trkpt lat="42.8613704816" lon="19.2590998393">
        <ele>989.88</ele>
        <time>2026-07-29T06:49:24.000Z</time>
      </trkpt>
      <trkpt lat="42.8613361996" lon="19.2589580175">
        <ele>992.11</ele>
        <time>2026-07-29T06:49:41.000Z</time>
      </trkpt>
      <trkpt lat="42.8613215312" lon="19.258811418">
        <ele>994.62</ele>
        <time>2026-07-29T06:49:59.000Z</time>
      </trkpt>
      <trkpt lat="42.8612740897" lon="19.258630788">
        <ele>996.61</ele>
        <time>2026-07-29T06:50:19.000Z</time>
      </trkpt>
      <trkpt lat="42.8612408973" lon="19.2584996112">
        <ele>999.17</ele>
        <time>2026-07-29T06:50:35.000Z</time>
      </trkpt>
      <trkpt lat="42.8612307552" lon="19.2583691049">
        <ele>1001.05</ele>
        <time>2026-07-29T06:50:51.000Z</time>
      </trkpt>
      <trkpt lat="42.8612649534" lon="19.2582173087">
        <ele>1003.5</ele>
        <time>2026-07-29T06:51:09.000Z</time>
      </trkpt>
      <trkpt lat="42.8613050189" lon="19.2581116129">
        <ele>1005.55</ele>
        <time>2026-07-29T06:51:23.000Z</time>
      </trkpt>
      <trkpt lat="42.8613382112" lon="19.2580065876">
        <ele>1008.18</ele>
        <time>2026-07-29T06:51:41.000Z</time>
      </trkpt>
      <trkpt lat="42.8613868263" lon="19.2579018138">
        <ele>1010.01</ele>
        <time>2026-07-29T06:52:01.000Z</time>
      </trkpt>
      <trkpt lat="42.8614797816" lon="19.257798465">
        <ele>1011.69</ele>
        <time>2026-07-29T06:52:21.000Z</time>
      </trkpt>
      <trkpt lat="42.8615667857" lon="19.257671563">
        <ele>1013.3</ele>
        <time>2026-07-29T06:52:39.000Z</time>
      </trkpt>
      <trkpt lat="42.8615662828" lon="19.2575241253">
        <ele>1014.98</ele>
        <time>2026-07-29T06:52:55.000Z</time>
      </trkpt>
      <trkpt lat="42.8615485132" lon="19.2573720776">
        <ele>1017.15</ele>
        <time>2026-07-29T06:53:12.000Z</time>
      </trkpt>
      <trkpt lat="42.8615773469" lon="19.2572380509">
        <ele>1019.92</ele>
        <time>2026-07-29T06:53:31.000Z</time>
      </trkpt>
      <trkpt lat="42.8615954518" lon="19.2571415752">
        <ele>1021.77</ele>
        <time>2026-07-29T06:53:46.000Z</time>
      </trkpt>
      <trkpt lat="42.8616211843" lon="19.2569715064">
        <ele>1024.55</ele>
        <time>2026-07-29T06:54:07.000Z</time>
      </trkpt>
      <trkpt lat="42.8616169095" lon="19.2568233144">
        <ele>1027.14</ele>
        <time>2026-07-29T06:54:28.000Z</time>
      </trkpt>
      <trkpt lat="42.8615866508" lon="19.2567487992">
        <ele>1029.7</ele>
        <time>2026-07-29T06:54:52.000Z</time>
      </trkpt>
      <trkpt lat="42.8616090305" lon="19.2567204684">
        <ele>1030.61</ele>
        <time>2026-07-29T06:55:16.000Z</time>
      </trkpt>
      <trkpt lat="42.8616108745" lon="19.2567187082">
        <ele>1030.91</ele>
        <time>2026-07-29T06:55:45.000Z</time>
      </trkpt>
      <trkpt lat="42.8616055101" lon="19.2567200493">
        <ele>1030.75</ele>
        <time>2026-07-29T06:56:09.000Z</time>
      </trkpt>
      <trkpt lat="42.861505514" lon="19.2566451989">
        <ele>1031.28</ele>
        <time>2026-07-29T06:56:37.000Z</time>
      </trkpt>
      <trkpt lat="42.8614815418" lon="19.2566160299">
        <ele>1032.1</ele>
        <time>2026-07-29T06:56:42.000Z</time>
      </trkpt>
      <trkpt lat="42.861408703" lon="19.2564111762">
        <ele>1034.33</ele>
        <time>2026-07-29T06:57:15.000Z</time>
      </trkpt>
      <trkpt lat="42.8614330944" lon="19.2563694343">
        <ele>1034.95</ele>
        <time>2026-07-29T06:57:22.000Z</time>
      </trkpt>
      <trkpt lat="42.8615474235" lon="19.2562390119">
        <ele>1037.95</ele>
        <time>2026-07-29T06:57:45.000Z</time>
      </trkpt>
      <trkpt lat="42.8615628462" lon="19.2561553605">
        <ele>1039.25</ele>
        <time>2026-07-29T07:01:54.000Z</time>
      </trkpt>
      <trkpt lat="42.8616338409" lon="19.2560325656">
        <ele>1041.65</ele>
        <time>2026-07-29T07:02:15.000Z</time>
      </trkpt>
      <trkpt lat="42.8616688773" lon="19.255977245">
        <ele>1044.71</ele>
        <time>2026-07-29T07:02:33.000Z</time>
      </trkpt>
      <trkpt lat="42.8617232759" lon="19.2559158057">
        <ele>1046.88</ele>
        <time>2026-07-29T07:02:55.000Z</time>
      </trkpt>
      <trkpt lat="42.861751942" lon="19.2557757441">
        <ele>1048.59</ele>
        <time>2026-07-29T07:03:19.000Z</time>
      </trkpt>
      <trkpt lat="42.8618012276" lon="19.255627552">
        <ele>1049.54</ele>
        <time>2026-07-29T07:03:39.000Z</time>
      </trkpt>
      <trkpt lat="42.8618067596" lon="19.255477516">
        <ele>1051.09</ele>
        <time>2026-07-29T07:03:56.000Z</time>
      </trkpt>
      <trkpt lat="42.8618038259" lon="19.2553641926">
        <ele>1052.74</ele>
        <time>2026-07-29T07:04:10.000Z</time>
      </trkpt>
      <trkpt lat="42.8617832065" lon="19.2553689703">
        <ele>1054.92</ele>
        <time>2026-07-29T07:04:32.000Z</time>
      </trkpt>
      <trkpt lat="42.8617924266" lon="19.255376514">
        <ele>1077.86</ele>
        <time>2026-07-29T07:17:26.000Z</time>
      </trkpt>
      <trkpt lat="42.8618313186" lon="19.2554534599">
        <ele>1077.3</ele>
        <time>2026-07-29T07:17:52.000Z</time>
      </trkpt>
      <trkpt lat="42.861832995" lon="19.2554778513">
        <ele>1076.4</ele>
        <time>2026-07-29T07:18:14.000Z</time>
      </trkpt>
      <trkpt lat="42.861805167" lon="19.2556428909">
        <ele>1073.84</ele>
        <time>2026-07-29T07:18:41.000Z</time>
      </trkpt>
      <trkpt lat="42.8617312387" lon="19.2557971179">
        <ele>1072.17</ele>
        <time>2026-07-29T07:19:02.000Z</time>
      </trkpt>
      <trkpt lat="42.8616845515" lon="19.2558390275">
        <ele>1071.86</ele>
        <time>2026-07-29T07:19:08.000Z</time>
      </trkpt>
      <trkpt lat="42.8616637643" lon="19.2559862975">
        <ele>1071.6</ele>
        <time>2026-07-29T07:19:28.000Z</time>
      </trkpt>
      <trkpt lat="42.8616479225" lon="19.2560779117">
        <ele>1070.4</ele>
        <time>2026-07-29T07:19:46.000Z</time>
      </trkpt>
      <trkpt lat="42.8616420552" lon="19.2561382614">
        <ele>1069.26</ele>
        <time>2026-07-29T07:20:08.000Z</time>
      </trkpt>
      <trkpt lat="42.8616122156" lon="19.2561545223">
        <ele>1067.85</ele>
        <time>2026-07-29T07:20:28.000Z</time>
      </trkpt>
      <trkpt lat="42.8615632653" lon="19.2562627327">
        <ele>1064.94</ele>
        <time>2026-07-29T07:20:52.000Z</time>
      </trkpt>
      <trkpt lat="42.8615393769" lon="19.2562549375">
        <ele>1061.46</ele>
        <time>2026-07-29T07:25:10.000Z</time>
      </trkpt>
      <trkpt lat="42.8614844754" lon="19.2563519161">
        <ele>1060.69</ele>
        <time>2026-07-29T07:25:30.000Z</time>
      </trkpt>
      <trkpt lat="42.8614157438" lon="19.2564947437">
        <ele>1058.04</ele>
        <time>2026-07-29T07:25:48.000Z</time>
      </trkpt>
      <trkpt lat="42.8614881635" lon="19.2565657385">
        <ele>1056.1</ele>
        <time>2026-07-29T07:26:04.000Z</time>
      </trkpt>
      <trkpt lat="42.8615664504" lon="19.2566323746">
        <ele>1053.41</ele>
        <time>2026-07-29T07:26:23.000Z</time>
      </trkpt>
      <trkpt lat="42.8615299053" lon="19.2567300238">
        <ele>1052.8</ele>
        <time>2026-07-29T07:26:40.000Z</time>
      </trkpt>
      <trkpt lat="42.8615523688" lon="19.2568152677">
        <ele>1052.01</ele>
        <time>2026-07-29T07:26:55.000Z</time>
      </trkpt>
      <trkpt lat="42.8615514468" lon="19.2569081392">
        <ele>1050.36</ele>
        <time>2026-07-29T07:27:11.000Z</time>
      </trkpt>
      <trkpt lat="42.8615335934" lon="19.2570828181">
        <ele>1048.76</ele>
        <time>2026-07-29T07:27:31.000Z</time>
      </trkpt>
      <trkpt lat="42.8615103755" lon="19.2571951356">
        <ele>1046.39</ele>
        <time>2026-07-29T07:27:48.000Z</time>
      </trkpt>
      <trkpt lat="42.8614924382" lon="19.2572917789">
        <ele>1043.79</ele>
        <time>2026-07-29T07:28:12.000Z</time>
      </trkpt>
      <trkpt lat="42.8614924382" lon="19.2574079521">
        <ele>1041.38</ele>
        <time>2026-07-29T07:28:35.000Z</time>
      </trkpt>
      <trkpt lat="42.8615001496" lon="19.2574740015">
        <ele>1040.72</ele>
        <time>2026-07-29T07:29:02.000Z</time>
      </trkpt>
      <trkpt lat="42.8615178354" lon="19.2575891688">
        <ele>1038.96</ele>
        <time>2026-07-29T07:29:17.000Z</time>
      </trkpt>
      <trkpt lat="42.8614945337" lon="19.2577122152">
        <ele>1037.45</ele>
        <time>2026-07-29T07:29:38.000Z</time>
      </trkpt>
      <trkpt lat="42.8614464216" lon="19.2577926815">
        <ele>1035.72</ele>
        <time>2026-07-29T07:29:54.000Z</time>
      </trkpt>
      <trkpt lat="42.861430496" lon="19.2578226887">
        <ele>1034.37</ele>
        <time>2026-07-29T07:30:14.000Z</time>
      </trkpt>
      <trkpt lat="42.8613598365" lon="19.2578805238">
        <ele>1034.29</ele>
        <time>2026-07-29T07:30:39.000Z</time>
      </trkpt>
      <trkpt lat="42.8612718266" lon="19.2580572143">
        <ele>1032.91</ele>
        <time>2026-07-29T07:30:56.000Z</time>
      </trkpt>
      <trkpt lat="42.8611973953" lon="19.2582525965">
        <ele>1029.94</ele>
        <time>2026-07-29T07:31:13.000Z</time>
      </trkpt>
      <trkpt lat="42.8611807991" lon="19.2583472282">
        <ele>1026.97</ele>
        <time>2026-07-29T07:31:29.000Z</time>
      </trkpt>
      <trkpt lat="42.8611749317" lon="19.2584722862">
        <ele>1025.11</ele>
        <time>2026-07-29T07:31:45.000Z</time>
      </trkpt>
      <trkpt lat="42.8611988202" lon="19.2584877927">
        <ele>1023.31</ele>
        <time>2026-07-29T07:32:01.000Z</time>
      </trkpt>
      <trkpt lat="42.8612160031" lon="19.2585949134">
        <ele>1022.73</ele>
        <time>2026-07-29T07:32:18.000Z</time>
      </trkpt>
      <trkpt lat="42.8612248041" lon="19.2586245015">
        <ele>1022.53</ele>
        <time>2026-07-29T07:32:21.000Z</time>
      </trkpt>
      <trkpt lat="42.8612305038" lon="19.2586508207">
        <ele>1022.2</ele>
        <time>2026-07-29T07:32:24.000Z</time>
      </trkpt>
      <trkpt lat="42.8612445015" lon="19.258670602">
        <ele>1021.76</ele>
        <time>2026-07-29T07:32:27.000Z</time>
      </trkpt>
      <trkpt lat="42.8612616006" lon="19.2587254196">
        <ele>1021.24</ele>
        <time>2026-07-29T07:32:31.000Z</time>
      </trkpt>
      <trkpt lat="42.8612697311" lon="19.2587933969">
        <ele>1020.41</ele>
        <time>2026-07-29T07:32:36.000Z</time>
      </trkpt>
      <trkpt lat="42.861315161" lon="19.2588429339">
        <ele>1019.4</ele>
        <time>2026-07-29T07:32:42.000Z</time>
      </trkpt>
      <trkpt lat="42.8613051865" lon="19.2589776311">
        <ele>1017.41</ele>
        <time>2026-07-29T07:32:57.000Z</time>
      </trkpt>
      <trkpt lat="42.8613346908" lon="19.2591313552">
        <ele>1014.34</ele>
        <time>2026-07-29T07:33:13.000Z</time>
      </trkpt>
      <trkpt lat="42.86136562" lon="19.2592474446">
        <ele>1011.34</ele>
        <time>2026-07-29T07:33:29.000Z</time>
      </trkpt>
      <trkpt lat="42.8613847308" lon="19.259267645">
        <ele>1010.16</ele>
        <time>2026-07-29T07:33:53.000Z</time>
      </trkpt>
      <trkpt lat="42.8614097927" lon="19.2593276594">
        <ele>1009.16</ele>
        <time>2026-07-29T07:34:10.000Z</time>
      </trkpt>
      <trkpt lat="42.8614486009" lon="19.2595100496">
        <ele>1007.26</ele>
        <time>2026-07-29T07:34:26.000Z</time>
      </trkpt>
      <trkpt lat="42.8615204338" lon="19.259667797">
        <ele>1005.44</ele>
        <time>2026-07-29T07:34:40.000Z</time>
      </trkpt>
      <trkpt lat="42.861655131" lon="19.2598818708">
        <ele>1003.28</ele>
        <time>2026-07-29T07:34:56.000Z</time>
      </trkpt>
      <trkpt lat="42.8616794385" lon="19.2600886524">
        <ele>1001.21</ele>
        <time>2026-07-29T07:35:13.000Z</time>
      </trkpt>
      <trkpt lat="42.8617349267" lon="19.2602964398">
        <ele>1000.61</ele>
        <time>2026-07-29T07:35:29.000Z</time>
      </trkpt>
      <trkpt lat="42.8617715556" lon="19.2604144569">
        <ele>1000.03</ele>
        <time>2026-07-29T07:35:49.000Z</time>
      </trkpt>
      <trkpt lat="42.8617963661" lon="19.2605605535">
        <ele>999.05</ele>
        <time>2026-07-29T07:36:05.000Z</time>
      </trkpt>
      <trkpt lat="42.8618446458" lon="19.2606979329">
        <ele>997.49</ele>
        <time>2026-07-29T07:36:21.000Z</time>
      </trkpt>
      <trkpt lat="42.8619208373" lon="19.2607514095">
        <ele>996.65</ele>
        <time>2026-07-29T07:36:35.000Z</time>
      </trkpt>
      <trkpt lat="42.861945061" lon="19.2608390003">
        <ele>996.92</ele>
        <time>2026-07-29T07:36:54.000Z</time>
      </trkpt>
      <trkpt lat="42.8619560413" lon="19.2608557642">
        <ele>996.72</ele>
        <time>2026-07-29T07:37:12.000Z</time>
      </trkpt>
      <trkpt lat="42.861951096" lon="19.2609704286">
        <ele>996.47</ele>
        <time>2026-07-29T07:37:28.000Z</time>
      </trkpt>
      <trkpt lat="42.8619657643" lon="19.2610415071">
        <ele>996.25</ele>
        <time>2026-07-29T07:37:34.000Z</time>
      </trkpt>
      <trkpt lat="42.8619813547" lon="19.2611839995">
        <ele>995.55</ele>
        <time>2026-07-29T07:37:46.000Z</time>
      </trkpt>
      <trkpt lat="42.8619914968" lon="19.2611959856">
        <ele>995.34</ele>
        <time>2026-07-29T07:37:48.000Z</time>
      </trkpt>
      <trkpt lat="42.8620148823" lon="19.261216186">
        <ele>995.18</ele>
        <time>2026-07-29T07:37:50.000Z</time>
      </trkpt>
      <trkpt lat="42.862039106" lon="19.2613161821">
        <ele>994.59</ele>
        <time>2026-07-29T07:38:01.000Z</time>
      </trkpt>
      <trkpt lat="42.8620918281" lon="19.2614470236">
        <ele>994.44</ele>
        <time>2026-07-29T07:38:17.000Z</time>
      </trkpt>
      <trkpt lat="42.8621125314" lon="19.2615690641">
        <ele>993.48</ele>
        <time>2026-07-29T07:38:42.000Z</time>
      </trkpt>
      <trkpt lat="42.8620417882" lon="19.261685824">
        <ele>992.39</ele>
        <time>2026-07-29T07:39:01.000Z</time>
      </trkpt>
      <trkpt lat="42.8620392736" lon="19.2616852373">
        <ele>992.44</ele>
        <time>2026-07-29T07:39:28.000Z</time>
      </trkpt>
      <trkpt lat="42.8620349988" lon="19.2616875842">
        <ele>992.51</ele>
        <time>2026-07-29T07:39:48.000Z</time>
      </trkpt>
      <trkpt lat="42.8620347474" lon="19.261683058">
        <ele>992.19</ele>
        <time>2026-07-29T07:40:07.000Z</time>
      </trkpt>
      <trkpt lat="42.8620355856" lon="19.261711305">
        <ele>987.62</ele>
        <time>2026-07-29T07:40:08.000Z</time>
      </trkpt>
      <trkpt lat="42.8620368429" lon="19.2617123108">
        <ele>986.64</ele>
        <time>2026-07-29T07:40:33.000Z</time>
      </trkpt>
      <trkpt lat="42.8620300535" lon="19.2617136519">
        <ele>986.95</ele>
        <time>2026-07-29T07:40:58.000Z</time>
      </trkpt>
      <trkpt lat="42.8620374296" lon="19.2616947927">
        <ele>987</ele>
        <time>2026-07-29T07:41:27.000Z</time>
      </trkpt>
      <trkpt lat="42.8620034829" lon="19.2616527993">
        <ele>987.24</ele>
        <time>2026-07-29T07:41:45.000Z</time>
      </trkpt>
      <trkpt lat="42.8619643394" lon="19.2616560683">
        <ele>988.47</ele>
        <time>2026-07-29T07:42:06.000Z</time>
      </trkpt>
      <trkpt lat="42.8618454002" lon="19.2615333572">
        <ele>989.86</ele>
        <time>2026-07-29T07:42:26.000Z</time>
      </trkpt>
      <trkpt lat="42.8617416322" lon="19.2614115681">
        <ele>992.04</ele>
        <time>2026-07-29T07:42:49.000Z</time>
      </trkpt>
      <trkpt lat="42.8616677038" lon="19.2612654716">
        <ele>995.14</ele>
        <time>2026-07-29T07:43:10.000Z</time>
      </trkpt>
      <trkpt lat="42.8615599126" lon="19.2611129209">
        <ele>998.02</ele>
        <time>2026-07-29T07:43:35.000Z</time>
      </trkpt>
      <trkpt lat="42.8614708968" lon="19.2609865218">
        <ele>1000.17</ele>
        <time>2026-07-29T07:43:59.000Z</time>
      </trkpt>
      <trkpt lat="42.8613771033" lon="19.2607965879">
        <ele>1001.92</ele>
        <time>2026-07-29T07:44:27.000Z</time>
      </trkpt>
      <trkpt lat="42.8613315895" lon="19.2606794927">
        <ele>1002.29</ele>
        <time>2026-07-29T07:44:46.000Z</time>
      </trkpt>
      <trkpt lat="42.8612631094" lon="19.2605621461">
        <ele>1004.28</ele>
        <time>2026-07-29T07:45:10.000Z</time>
      </trkpt>
      <trkpt lat="42.8612048551" lon="19.2604539357">
        <ele>1005.83</ele>
        <time>2026-07-29T07:45:30.000Z</time>
      </trkpt>
      <trkpt lat="42.8611855768" lon="19.2604502477">
        <ele>1006.07</ele>
        <time>2026-07-29T07:45:54.000Z</time>
      </trkpt>
      <trkpt lat="42.8611543123" lon="19.2604434583">
        <ele>1007.55</ele>
        <time>2026-07-29T07:46:19.000Z</time>
      </trkpt>
      <trkpt lat="42.8611532226" lon="19.2604543548">
        <ele>1007.94</ele>
        <time>2026-07-29T07:46:44.000Z</time>
      </trkpt>
      <trkpt lat="42.8611298371" lon="19.2604639102">
        <ele>1008.09</ele>
        <time>2026-07-29T07:47:04.000Z</time>
      </trkpt>
      <trkpt lat="42.8611194436" lon="19.260459803">
        <ele>1008.31</ele>
        <time>2026-07-29T07:47:21.000Z</time>
      </trkpt>
      <trkpt lat="42.8611122351" lon="19.2604483198">
        <ele>1008.22</ele>
        <time>2026-07-29T07:47:40.000Z</time>
      </trkpt>
      <trkpt lat="42.8611056134" lon="19.2604457214">
        <ele>1008.81</ele>
        <time>2026-07-29T07:48:02.000Z</time>
      </trkpt>
      <trkpt lat="42.8610588424" lon="19.2604638264">
        <ele>1010.21</ele>
        <time>2026-07-29T07:48:21.000Z</time>
      </trkpt>
      <trkpt lat="42.8609394003" lon="19.2604225036">
        <ele>1013.21</ele>
        <time>2026-07-29T07:48:43.000Z</time>
      </trkpt>
      <trkpt lat="42.8608056251" lon="19.2603900656">
        <ele>1016.25</ele>
        <time>2026-07-29T07:49:07.000Z</time>
      </trkpt>
      <trkpt lat="42.8606296051" lon="19.2603091802">
        <ele>1019.18</ele>
        <time>2026-07-29T07:49:37.000Z</time>
      </trkpt>
      <trkpt lat="42.8604653198" lon="19.2602035683">
        <ele>1020.99</ele>
        <time>2026-07-29T07:50:03.000Z</time>
      </trkpt>
      <trkpt lat="42.8604190517" lon="19.2600930948">
        <ele>1021.38</ele>
        <time>2026-07-29T07:50:25.000Z</time>
      </trkpt>
      <trkpt lat="42.8604216501" lon="19.2599832918">
        <ele>1022.36</ele>
        <time>2026-07-29T07:50:50.000Z</time>
      </trkpt>
      <trkpt lat="42.8604571056" lon="19.2598130554">
        <ele>1023.25</ele>
        <time>2026-07-29T07:51:18.000Z</time>
      </trkpt>
      <trkpt lat="42.860439755" lon="19.2597143166">
        <ele>1023.98</ele>
        <time>2026-07-29T07:51:39.000Z</time>
      </trkpt>
      <trkpt lat="42.8603169601" lon="19.2596388794">
        <ele>1024.48</ele>
        <time>2026-07-29T07:52:07.000Z</time>
      </trkpt>
      <trkpt lat="42.8602292854" lon="19.2595368717">
        <ele>1025.06</ele>
        <time>2026-07-29T07:52:24.000Z</time>
      </trkpt>
      <trkpt lat="42.8601551894" lon="19.2595127318">
        <ele>1025.8</ele>
        <time>2026-07-29T07:52:48.000Z</time>
      </trkpt>
      <trkpt lat="42.8601124417" lon="19.2594938725">
        <ele>1027.37</ele>
        <time>2026-07-29T07:53:13.000Z</time>
      </trkpt>
      <trkpt lat="42.8600859549" lon="19.2594466824">
        <ele>1028.39</ele>
        <time>2026-07-29T07:53:34.000Z</time>
      </trkpt>
      <trkpt lat="42.86005117" lon="19.2594384681">
        <ele>1029.2</ele>
        <time>2026-07-29T07:53:53.000Z</time>
      </trkpt>
      <trkpt lat="42.8600347415" lon="19.2594135739">
        <ele>1029.26</ele>
        <time>2026-07-29T07:54:13.000Z</time>
      </trkpt>
      <trkpt lat="42.860040525" lon="19.2593825608">
        <ele>1029.8</ele>
        <time>2026-07-29T07:54:30.000Z</time>
      </trkpt>
      <trkpt lat="42.8600498289" lon="19.2593353707">
        <ele>1030.04</ele>
        <time>2026-07-29T07:54:49.000Z</time>
      </trkpt>
      <trkpt lat="42.8600789141" lon="19.2593344487">
        <ele>1031.33</ele>
        <time>2026-07-29T07:55:21.000Z</time>
      </trkpt>
      <trkpt lat="42.8601073287" lon="19.2592609394">
        <ele>1033.88</ele>
        <time>2026-07-29T07:55:50.000Z</time>
      </trkpt>
      <trkpt lat="42.8601372521" lon="19.2591671459">
        <ele>1036.56</ele>
        <time>2026-07-29T07:56:14.000Z</time>
      </trkpt>
      <trkpt lat="42.86016047" lon="19.259087937">
        <ele>1037.36</ele>
        <time>2026-07-29T07:56:38.000Z</time>
      </trkpt>
      <trkpt lat="42.8601074964" lon="19.2588426825">
        <ele>1039.67</ele>
        <time>2026-07-29T07:57:05.000Z</time>
      </trkpt>
      <trkpt lat="42.8600911517" lon="19.2586559337">
        <ele>1042.67</ele>
        <time>2026-07-29T07:57:26.000Z</time>
      </trkpt>
      <trkpt lat="42.8601297922" lon="19.2585334741">
        <ele>1045.2</ele>
        <time>2026-07-29T07:57:50.000Z</time>
      </trkpt>
      <trkpt lat="42.8601094242" lon="19.2585206497">
        <ele>1048.24</ele>
        <time>2026-07-29T07:58:08.000Z</time>
      </trkpt>
      <trkpt lat="42.8600726277" lon="19.2584779859">
        <ele>1051.43</ele>
        <time>2026-07-29T07:58:22.000Z</time>
      </trkpt>
      <trkpt lat="42.8600611445" lon="19.258357957">
        <ele>1054.47</ele>
        <time>2026-07-29T07:58:39.000Z</time>
      </trkpt>
      <trkpt lat="42.8600631561" lon="19.2582712043">
        <ele>1057.65</ele>
        <time>2026-07-29T07:58:56.000Z</time>
      </trkpt>
      <trkpt lat="42.8600556124" lon="19.2581696156">
        <ele>1060.81</ele>
        <time>2026-07-29T07:59:16.000Z</time>
      </trkpt>
      <trkpt lat="42.8600790817" lon="19.2580070067">
        <ele>1063.82</ele>
        <time>2026-07-29T07:59:35.000Z</time>
      </trkpt>
      <trkpt lat="42.8600807581" lon="19.2578826193">
        <ele>1066.83</ele>
        <time>2026-07-29T07:59:55.000Z</time>
      </trkpt>
      <trkpt lat="42.8601070773" lon="19.2576771788">
        <ele>1069.14</ele>
        <time>2026-07-29T08:00:24.000Z</time>
      </trkpt>
      <trkpt lat="42.8601398505" lon="19.2575521208">
        <ele>1071.18</ele>
        <time>2026-07-29T08:00:45.000Z</time>
      </trkpt>
      <trkpt lat="42.8602066543" lon="19.257338047">
        <ele>1072.45</ele>
        <time>2026-07-29T08:01:10.000Z</time>
      </trkpt>
      <trkpt lat="42.8602791578" lon="19.2570945527">
        <ele>1073</ele>
        <time>2026-07-29T08:01:38.000Z</time>
      </trkpt>
      <trkpt lat="42.8602884617" lon="19.2568607815">
        <ele>1074.01</ele>
        <time>2026-07-29T08:02:04.000Z</time>
      </trkpt>
      <trkpt lat="42.8602640703" lon="19.2566200532">
        <ele>1071.01</ele>
        <time>2026-07-29T08:02:33.000Z</time>
      </trkpt>
      <trkpt lat="42.8602771461" lon="19.2565271817">
        <ele>1067.97</ele>
        <time>2026-07-29T08:02:50.000Z</time>
      </trkpt>
      <trkpt lat="42.8603032138" lon="19.2564038839">
        <ele>1065.87</ele>
        <time>2026-07-29T08:03:10.000Z</time>
      </trkpt>
      <trkpt lat="42.8603414353" lon="19.2563185561">
        <ele>1066.27</ele>
        <time>2026-07-29T08:03:34.000Z</time>
      </trkpt>
      <trkpt lat="42.8603289463" lon="19.2563386727">
        <ele>1065.74</ele>
        <time>2026-07-29T08:04:01.000Z</time>
      </trkpt>
      <trkpt lat="42.8603449557" lon="19.2563416902">
        <ele>1064.53</ele>
        <time>2026-07-29T08:04:22.000Z</time>
      </trkpt>
      <trkpt lat="42.8603515774" lon="19.2563382536">
        <ele>1064.09</ele>
        <time>2026-07-29T08:04:43.000Z</time>
      </trkpt>
      <trkpt lat="42.8604471311" lon="19.2562458012">
        <ele>1066.31</ele>
        <time>2026-07-29T08:05:08.000Z</time>
      </trkpt>
      <trkpt lat="42.8605664894" lon="19.2562777363">
        <ele>1069.11</ele>
        <time>2026-07-29T08:05:31.000Z</time>
      </trkpt>
      <trkpt lat="42.86064771" lon="19.2562267743">
        <ele>1072.15</ele>
        <time>2026-07-29T08:05:52.000Z</time>
      </trkpt>
      <trkpt lat="42.8606675752" lon="19.2561613116">
        <ele>1075.21</ele>
        <time>2026-07-29T08:06:17.000Z</time>
      </trkpt>
      <trkpt lat="42.860701941" lon="19.2561099306">
        <ele>1078.25</ele>
        <time>2026-07-29T08:06:40.000Z</time>
      </trkpt>
      <trkpt lat="42.860708395" lon="19.25603793">
        <ele>1080.62</ele>
        <time>2026-07-29T08:07:03.000Z</time>
      </trkpt>
      <trkpt lat="42.8607239854" lon="19.2559764907">
        <ele>1082.85</ele>
        <time>2026-07-29T08:07:22.000Z</time>
      </trkpt>
      <trkpt lat="42.8607187048" lon="19.2559983674">
        <ele>1085.24</ele>
        <time>2026-07-29T08:07:46.000Z</time>
      </trkpt>
      <trkpt lat="42.8607299365" lon="19.2558902409">
        <ele>1088.11</ele>
        <time>2026-07-29T08:08:07.000Z</time>
      </trkpt>
      <trkpt lat="42.8607765399" lon="19.2557403725">
        <ele>1091.14</ele>
        <time>2026-07-29T08:08:27.000Z</time>
      </trkpt>
      <trkpt lat="42.8608302679" lon="19.2555218562">
        <ele>1094.04</ele>
        <time>2026-07-29T08:08:53.000Z</time>
      </trkpt>
      <trkpt lat="42.8608301841" lon="19.2553921044">
        <ele>1097.14</ele>
        <time>2026-07-29T08:09:11.000Z</time>
      </trkpt>
      <trkpt lat="42.8608817328" lon="19.2552351952">
        <ele>1100.2</ele>
        <time>2026-07-29T08:09:30.000Z</time>
      </trkpt>
      <trkpt lat="42.8608124144" lon="19.2550844885">
        <ele>1103.42</ele>
        <time>2026-07-29T08:09:55.000Z</time>
      </trkpt>
      <trkpt lat="42.8607810661" lon="19.2550199479">
        <ele>1104.18</ele>
        <time>2026-07-29T08:10:01.000Z</time>
      </trkpt>
      <trkpt lat="42.8607032821" lon="19.2549977358">
        <ele>1106.31</ele>
        <time>2026-07-29T08:10:15.000Z</time>
      </trkpt>
      <trkpt lat="42.8606234863" lon="19.2549574189">
        <ele>1109.32</ele>
        <time>2026-07-29T08:10:31.000Z</time>
      </trkpt>
      <trkpt lat="42.860508319" lon="19.2549608555">
        <ele>1112.45</ele>
        <time>2026-07-29T08:10:48.000Z</time>
      </trkpt>
      <trkpt lat="42.8603932355" lon="19.2549472768">
        <ele>1115.51</ele>
        <time>2026-07-29T08:11:11.000Z</time>
      </trkpt>
      <trkpt lat="42.8603103384" lon="19.2549197841">
        <ele>1118.73</ele>
        <time>2026-07-29T08:11:37.000Z</time>
      </trkpt>
      <trkpt lat="42.8601789102" lon="19.2548240628">
        <ele>1121.1</ele>
        <time>2026-07-29T08:12:00.000Z</time>
      </trkpt>
      <trkpt lat="42.8600962646" lon="19.2547969893">
        <ele>1124.12</ele>
        <time>2026-07-29T08:12:18.000Z</time>
      </trkpt>
      <trkpt lat="42.859993251" lon="19.2547835782">
        <ele>1127.24</ele>
        <time>2026-07-29T08:12:37.000Z</time>
      </trkpt>
      <trkpt lat="42.8598815203" lon="19.2547534034">
        <ele>1130.29</ele>
        <time>2026-07-29T08:12:59.000Z</time>
      </trkpt>
      <trkpt lat="42.8597247787" lon="19.254731359">
        <ele>1133.16</ele>
        <time>2026-07-29T08:13:30.000Z</time>
      </trkpt>
      <trkpt lat="42.8595515247" lon="19.2547221389">
        <ele>1136.17</ele>
        <time>2026-07-29T08:13:53.000Z</time>
      </trkpt>
      <trkpt lat="42.859407356" lon="19.2546288483">
        <ele>1141.32</ele>
        <time>2026-07-29T08:21:34.000Z</time>
      </trkpt>
      <trkpt lat="42.8593826294" lon="19.2546200473">
        <ele>1141.8</ele>
        <time>2026-07-29T08:21:41.000Z</time>
      </trkpt>
      <trkpt lat="42.8593413066" lon="19.2545431014">
        <ele>1144.22</ele>
        <time>2026-07-29T08:21:57.000Z</time>
      </trkpt>
      <trkpt lat="42.8592898417" lon="19.2544794828">
        <ele>1146.98</ele>
        <time>2026-07-29T08:22:24.000Z</time>
      </trkpt>
      <trkpt lat="42.8592749219" lon="19.2544555105">
        <ele>1149.5</ele>
        <time>2026-07-29T08:22:38.000Z</time>
      </trkpt>
      <trkpt lat="42.8591992334" lon="19.2544281855">
        <ele>1152.25</ele>
        <time>2026-07-29T08:23:00.000Z</time>
      </trkpt>
      <trkpt lat="42.8591721598" lon="19.254346462">
        <ele>1153.71</ele>
        <time>2026-07-29T08:23:20.000Z</time>
      </trkpt>
      <trkpt lat="42.8591703158" lon="19.2543286923">
        <ele>1154.71</ele>
        <time>2026-07-29T08:23:38.000Z</time>
      </trkpt>
      <trkpt lat="42.8591084573" lon="19.2542519979">
        <ele>1157.89</ele>
        <time>2026-07-29T08:24:05.000Z</time>
      </trkpt>
      <trkpt lat="42.8590763547" lon="19.2542079091">
        <ele>1158.87</ele>
        <time>2026-07-29T08:24:16.000Z</time>
      </trkpt>
      <trkpt lat="42.8589926194" lon="19.254086623">
        <ele>1161.95</ele>
        <time>2026-07-29T08:24:43.000Z</time>
      </trkpt>
      <trkpt lat="42.8589832317" lon="19.2540111858">
        <ele>1163.28</ele>
        <time>2026-07-29T08:25:03.000Z</time>
      </trkpt>
      <trkpt lat="42.8589325212" lon="19.2538862955">
        <ele>1166.22</ele>
        <time>2026-07-29T08:25:32.000Z</time>
      </trkpt>
      <trkpt lat="42.8589238878" lon="19.253747575">
        <ele>1169.21</ele>
        <time>2026-07-29T08:25:57.000Z</time>
      </trkpt>
      <trkpt lat="42.8587129992" lon="19.2532765958">
        <ele>1192.54</ele>
        <time>2026-07-29T08:29:12.000Z</time>
      </trkpt>
      <trkpt lat="42.8587094788" lon="19.2532186769">
        <ele>1195.74</ele>
        <time>2026-07-29T08:29:33.000Z</time>
      </trkpt>
      <trkpt lat="42.8587100655" lon="19.2532098759">
        <ele>1196.12</ele>
        <time>2026-07-29T08:29:43.000Z</time>
      </trkpt>
      <trkpt lat="42.8586142603" lon="19.2530155834">
        <ele>1202.36</ele>
        <time>2026-07-29T08:31:15.000Z</time>
      </trkpt>
      <trkpt lat="42.8585895337" lon="19.2530109733">
        <ele>1208.17</ele>
        <time>2026-07-29T08:32:27.000Z</time>
      </trkpt>
      <trkpt lat="42.8585812356" lon="19.2529587541">
        <ele>1210.45</ele>
        <time>2026-07-29T08:32:53.000Z</time>
      </trkpt>
      <trkpt lat="42.8584733605" lon="19.2529269028">
        <ele>1213.58</ele>
        <time>2026-07-29T08:33:16.000Z</time>
      </trkpt>
      <trkpt lat="42.8584271763" lon="19.2528665531">
        <ele>1215.61</ele>
        <time>2026-07-29T08:33:32.000Z</time>
      </trkpt>
      <trkpt lat="42.8584130947" lon="19.2527899425">
        <ele>1223.84</ele>
        <time>2026-07-29T08:34:41.000Z</time>
      </trkpt>
      <trkpt lat="42.8583593667" lon="19.2527157627">
        <ele>1225.64</ele>
        <time>2026-07-29T08:34:52.000Z</time>
      </trkpt>
      <trkpt lat="42.858352745" lon="19.2526934668">
        <ele>1226</ele>
        <time>2026-07-29T08:34:56.000Z</time>
      </trkpt>
      <trkpt lat="42.8583548404" lon="19.2525282595">
        <ele>1229.24</ele>
        <time>2026-07-29T08:35:17.000Z</time>
      </trkpt>
      <trkpt lat="42.8582118452" lon="19.2522069812">
        <ele>1248.3</ele>
        <time>2026-07-29T08:44:02.000Z</time>
      </trkpt>
      <trkpt lat="42.8580757231" lon="19.2520576995">
        <ele>1251.03</ele>
        <time>2026-07-29T08:44:31.000Z</time>
      </trkpt>
      <trkpt lat="42.8579830192" lon="19.2519415263">
        <ele>1253.32</ele>
        <time>2026-07-29T08:45:00.000Z</time>
      </trkpt>
      <trkpt lat="42.8578872979" lon="19.2518729623">
        <ele>1256.14</ele>
        <time>2026-07-29T08:45:26.000Z</time>
      </trkpt>
      <trkpt lat="42.8577868827" lon="19.251761483">
        <ele>1259.42</ele>
        <time>2026-07-29T08:45:54.000Z</time>
      </trkpt>
      <trkpt lat="42.8577878047" lon="19.251752682">
        <ele>1259.57</ele>
        <time>2026-07-29T08:45:55.000Z</time>
      </trkpt>
      <trkpt lat="42.8577785008" lon="19.2516518477">
        <ele>1262.06</ele>
        <time>2026-07-29T08:46:24.000Z</time>
      </trkpt>
      <trkpt lat="42.8577454761" lon="19.2516091838">
        <ele>1263.63</ele>
        <time>2026-07-29T08:46:48.000Z</time>
      </trkpt>
      <trkpt lat="42.8576966934" lon="19.2515484989">
        <ele>1265.53</ele>
        <time>2026-07-29T08:47:14.000Z</time>
      </trkpt>
      <trkpt lat="42.8576841205" lon="19.2515343335">
        <ele>1265.61</ele>
        <time>2026-07-29T08:47:42.000Z</time>
      </trkpt>
      <trkpt lat="42.8576765768" lon="19.2514975369">
        <ele>1266.8</ele>
        <time>2026-07-29T08:48:04.000Z</time>
      </trkpt>
      <trkpt lat="42.8573695477" lon="19.2503057141">
        <ele>1319.74</ele>
        <time>2026-07-29T08:58:46.000Z</time>
      </trkpt>
      <trkpt lat="42.8573697153" lon="19.2503044568">
        <ele>1320.32</ele>
        <time>2026-07-29T08:58:50.000Z</time>
      </trkpt>
      <trkpt lat="42.8572869021" lon="19.2502221465">
        <ele>1323.54</ele>
        <time>2026-07-29T08:59:17.000Z</time>
      </trkpt>
      <trkpt lat="42.8572889976" lon="19.2502173688">
        <ele>1323.7</ele>
        <time>2026-07-29T08:59:18.000Z</time>
      </trkpt>
      <trkpt lat="42.8568944614" lon="19.2489273939">
        <ele>1382.1</ele>
        <time>2026-07-29T09:06:35.000Z</time>
      </trkpt>
      <trkpt lat="42.8568820562" lon="19.2489274777">
        <ele>1383.11</ele>
        <time>2026-07-29T09:06:40.000Z</time>
      </trkpt>
      <trkpt lat="42.856883062" lon="19.2488723248">
        <ele>1386.27</ele>
        <time>2026-07-29T09:07:00.000Z</time>
      </trkpt>
      <trkpt lat="42.856854815" lon="19.2488286551">
        <ele>1389.28</ele>
        <time>2026-07-29T09:07:19.000Z</time>
      </trkpt>
      <trkpt lat="42.8568539768" lon="19.2486118991">
        <ele>1392.33</ele>
        <time>2026-07-29T09:07:43.000Z</time>
      </trkpt>
      <trkpt lat="42.856788598" lon="19.2481648922">
        <ele>1407.21</ele>
        <time>2026-07-29T09:09:28.000Z</time>
      </trkpt>
      <trkpt lat="42.8562333807" lon="19.2461236473">
        <ele>1439.46</ele>
        <time>2026-07-29T09:15:02.000Z</time>
      </trkpt>
      <trkpt lat="42.8562081512" lon="19.2461306881">
        <ele>1440.49</ele>
        <time>2026-07-29T09:15:12.000Z</time>
      </trkpt>
      <trkpt lat="42.8561825864" lon="19.24595844">
        <ele>1440.16</ele>
        <time>2026-07-29T09:15:37.000Z</time>
      </trkpt>
      <trkpt lat="42.8560475539" lon="19.245837573">
        <ele>1440.44</ele>
        <time>2026-07-29T09:16:02.000Z</time>
      </trkpt>
      <trkpt lat="42.85600028" lon="19.245690722">
        <ele>1440.36</ele>
        <time>2026-07-29T09:16:26.000Z</time>
      </trkpt>
      <trkpt lat="42.8560063988" lon="19.2456602119">
        <ele>1441.14</ele>
        <time>2026-07-29T09:16:46.000Z</time>
      </trkpt>
      <trkpt lat="42.8559772298" lon="19.245535573">
        <ele>1443.99</ele>
        <time>2026-07-29T09:17:10.000Z</time>
      </trkpt>
      <trkpt lat="42.8559721168" lon="19.2453802563">
        <ele>1445.48</ele>
        <time>2026-07-29T09:17:33.000Z</time>
      </trkpt>
      <trkpt lat="42.855938673" lon="19.2453139555">
        <ele>1445.62</ele>
        <time>2026-07-29T09:17:55.000Z</time>
      </trkpt>
      <trkpt lat="42.8557839431" lon="19.2452419549">
        <ele>1444.26</ele>
        <time>2026-07-29T09:18:21.000Z</time>
      </trkpt>
      <trkpt lat="42.8556489106" lon="19.2452719621">
        <ele>1445.43</ele>
        <time>2026-07-29T09:18:43.000Z</time>
      </trkpt>
      <trkpt lat="42.8555740602" lon="19.245200213">
        <ele>1445.2</ele>
        <time>2026-07-29T09:19:07.000Z</time>
      </trkpt>
      <trkpt lat="42.8555329889" lon="19.2451153882">
        <ele>1445.46</ele>
        <time>2026-07-29T09:19:30.000Z</time>
      </trkpt>
      <trkpt lat="42.8554952703" lon="19.2450767476">
        <ele>1445.47</ele>
        <time>2026-07-29T09:19:41.000Z</time>
      </trkpt>
      <trkpt lat="42.8553931788" lon="19.2449611612">
        <ele>1445.35</ele>
        <time>2026-07-29T09:20:10.000Z</time>
      </trkpt>
      <trkpt lat="42.8552783467" lon="19.2448172439">
        <ele>1444.82</ele>
        <time>2026-07-29T09:20:40.000Z</time>
      </trkpt>
      <trkpt lat="42.8552421369" lon="19.2446169164">
        <ele>1445.47</ele>
        <time>2026-07-29T09:21:10.000Z</time>
      </trkpt>
      <trkpt lat="42.8552153148" lon="19.2444784474">
        <ele>1445.1</ele>
        <time>2026-07-29T09:21:36.000Z</time>
      </trkpt>
      <trkpt lat="42.8551216051" lon="19.2444244679">
        <ele>1444.26</ele>
        <time>2026-07-29T09:21:58.000Z</time>
      </trkpt>
      <trkpt lat="42.8549868241" lon="19.2442878429">
        <ele>1444.45</ele>
        <time>2026-07-29T09:22:27.000Z</time>
      </trkpt>
      <trkpt lat="42.8549851477" lon="19.2442808859">
        <ele>1444.5</ele>
        <time>2026-07-29T09:22:28.000Z</time>
      </trkpt>
      <trkpt lat="42.8549321741" lon="19.2441536486">
        <ele>1446.56</ele>
        <time>2026-07-29T09:22:55.000Z</time>
      </trkpt>
      <trkpt lat="42.8547838982" lon="19.2438068893">
        <ele>1447.02</ele>
        <time>2026-07-29T09:35:06.000Z</time>
      </trkpt>
      <trkpt lat="42.854731176" lon="19.2436877824">
        <ele>1446.37</ele>
        <time>2026-07-29T09:35:17.000Z</time>
      </trkpt>
      <trkpt lat="42.8547015879" lon="19.2435535043">
        <ele>1445.91</ele>
        <time>2026-07-29T09:35:30.000Z</time>
      </trkpt>
      <trkpt lat="42.8547059465" lon="19.2435417697">
        <ele>1445.85</ele>
        <time>2026-07-29T09:35:31.000Z</time>
      </trkpt>
      <trkpt lat="42.8546859138" lon="19.2433736287">
        <ele>1445.98</ele>
        <time>2026-07-29T09:35:46.000Z</time>
      </trkpt>
      <trkpt lat="42.8546843212" lon="19.2433632351">
        <ele>1446.02</ele>
        <time>2026-07-29T09:35:47.000Z</time>
      </trkpt>
      <trkpt lat="42.8546792082" lon="19.2432840262">
        <ele>1446.61</ele>
        <time>2026-07-29T09:36:00.000Z</time>
      </trkpt>
      <trkpt lat="42.8546593431" lon="19.2431932501">
        <ele>1445.87</ele>
        <time>2026-07-29T09:36:13.000Z</time>
      </trkpt>
      <trkpt lat="42.8546184395" lon="19.2431805097">
        <ele>1444.46</ele>
        <time>2026-07-29T09:36:25.000Z</time>
      </trkpt>
      <trkpt lat="42.854555659" lon="19.2431686912">
        <ele>1443.73</ele>
        <time>2026-07-29T09:36:38.000Z</time>
      </trkpt>
      <trkpt lat="42.8544863407" lon="19.2431341577">
        <ele>1443.58</ele>
        <time>2026-07-29T09:36:53.000Z</time>
      </trkpt>
      <trkpt lat="42.8544031922" lon="19.2430531047">
        <ele>1443.86</ele>
        <time>2026-07-29T09:37:08.000Z</time>
      </trkpt>
      <trkpt lat="42.8544046171" lon="19.2430544458">
        <ele>1444.06</ele>
        <time>2026-07-29T09:37:10.000Z</time>
      </trkpt>
      <trkpt lat="42.8543969058" lon="19.2430044897">
        <ele>1444.56</ele>
        <time>2026-07-29T09:37:21.000Z</time>
      </trkpt>
      <trkpt lat="42.8543533199" lon="19.2429355066">
        <ele>1444.48</ele>
        <time>2026-07-29T09:37:33.000Z</time>
      </trkpt>
      <trkpt lat="42.8542926349" lon="19.2428684514">
        <ele>1445.14</ele>
        <time>2026-07-29T09:37:47.000Z</time>
      </trkpt>
      <trkpt lat="42.8542555869" lon="19.2428217642">
        <ele>1444.67</ele>
        <time>2026-07-29T09:37:55.000Z</time>
      </trkpt>
      <trkpt lat="42.8541643079" lon="19.2428416293">
        <ele>1444.5</ele>
        <time>2026-07-29T09:38:09.000Z</time>
      </trkpt>
      <trkpt lat="42.8541467059" lon="19.2428471614">
        <ele>1444.73</ele>
        <time>2026-07-29T09:38:15.000Z</time>
      </trkpt>
      <trkpt lat="42.8540725261" lon="19.2428571358">
        <ele>1445.39</ele>
        <time>2026-07-29T09:38:30.000Z</time>
      </trkpt>
      <trkpt lat="42.8540176246" lon="19.2427470814">
        <ele>1445.86</ele>
        <time>2026-07-29T09:38:43.000Z</time>
      </trkpt>
      <trkpt lat="42.85398921" lon="19.2426809482">
        <ele>1446.31</ele>
        <time>2026-07-29T09:38:56.000Z</time>
      </trkpt>
      <trkpt lat="42.8539343923" lon="19.2425853945">
        <ele>1446.35</ele>
        <time>2026-07-29T09:39:09.000Z</time>
      </trkpt>
      <trkpt lat="42.8539544251" lon="19.2425154056">
        <ele>1446.42</ele>
        <time>2026-07-29T09:39:23.000Z</time>
      </trkpt>
      <trkpt lat="42.8539418522" lon="19.2424403038">
        <ele>1446.36</ele>
        <time>2026-07-29T09:39:35.000Z</time>
      </trkpt>
      <trkpt lat="42.8539024573" lon="19.2423721589">
        <ele>1446.35</ele>
        <time>2026-07-29T09:39:47.000Z</time>
      </trkpt>
      <trkpt lat="42.8538950812" lon="19.2423648667">
        <ele>1446.37</ele>
        <time>2026-07-29T09:39:48.000Z</time>
      </trkpt>
      <trkpt lat="42.8538973443" lon="19.2422661278">
        <ele>1447.27</ele>
        <time>2026-07-29T09:40:05.000Z</time>
      </trkpt>
      <trkpt lat="42.8538996074" lon="19.2421669699">
        <ele>1448.27</ele>
        <time>2026-07-29T09:40:17.000Z</time>
      </trkpt>
      <trkpt lat="42.8539172933" lon="19.2421134934">
        <ele>1449.81</ele>
        <time>2026-07-29T09:40:39.000Z</time>
      </trkpt>
      <trkpt lat="42.853897512" lon="19.2420284171">
        <ele>1451.39</ele>
        <time>2026-07-29T09:40:53.000Z</time>
      </trkpt>
      <trkpt lat="42.8539026249" lon="19.2419755273">
        <ele>1452.34</ele>
        <time>2026-07-29T09:41:05.000Z</time>
      </trkpt>
      <trkpt lat="42.8538930696" lon="19.2418939713">
        <ele>1454.88</ele>
        <time>2026-07-29T09:41:21.000Z</time>
      </trkpt>
      <trkpt lat="42.8538707737" lon="19.2417985853">
        <ele>1457.53</ele>
        <time>2026-07-29T09:41:36.000Z</time>
      </trkpt>
      <trkpt lat="42.8538696002" lon="19.2416172009">
        <ele>1466.3</ele>
        <time>2026-07-29T09:42:40.000Z</time>
      </trkpt>
      <trkpt lat="42.8538117651" lon="19.2415522411">
        <ele>1468.06</ele>
        <time>2026-07-29T09:42:49.000Z</time>
      </trkpt>
      <trkpt lat="42.8537411056" lon="19.2414721102">
        <ele>1470.47</ele>
        <time>2026-07-29T09:43:01.000Z</time>
      </trkpt>
      <trkpt lat="42.8536634054" lon="19.2413544282">
        <ele>1473.6</ele>
        <time>2026-07-29T09:43:18.000Z</time>
      </trkpt>
      <trkpt lat="42.8536188137" lon="19.2412471399">
        <ele>1476.59</ele>
        <time>2026-07-29T09:43:35.000Z</time>
      </trkpt>
      <trkpt lat="42.8535803407" lon="19.2411247641">
        <ele>1479.72</ele>
        <time>2026-07-29T09:43:49.000Z</time>
      </trkpt>
      <trkpt lat="42.8535198234" lon="19.2410273664">
        <ele>1482.69</ele>
        <time>2026-07-29T09:44:05.000Z</time>
      </trkpt>
      <trkpt lat="42.853480177" lon="19.2409950122">
        <ele>1483.72</ele>
        <time>2026-07-29T09:44:11.000Z</time>
      </trkpt>
      <trkpt lat="42.8534354176" lon="19.2409167252">
        <ele>1485.19</ele>
        <time>2026-07-29T09:44:26.000Z</time>
      </trkpt>
      <trkpt lat="42.8534154687" lon="19.2408893164">
        <ele>1486.33</ele>
        <time>2026-07-29T09:44:40.000Z</time>
      </trkpt>
      <trkpt lat="42.8533687815" lon="19.2408676911">
        <ele>1487.9</ele>
        <time>2026-07-29T09:44:54.000Z</time>
      </trkpt>
      <trkpt lat="42.8533277102" lon="19.2408443894">
        <ele>1489.4</ele>
        <time>2026-07-29T09:45:05.000Z</time>
      </trkpt>
      <trkpt lat="42.8533488326" lon="19.2407870572">
        <ele>1491.18</ele>
        <time>2026-07-29T09:45:19.000Z</time>
      </trkpt>
      <trkpt lat="42.8532895725" lon="19.2407398671">
        <ele>1493.95</ele>
        <time>2026-07-29T09:45:35.000Z</time>
      </trkpt>
      <trkpt lat="42.8533441387" lon="19.2406482529">
        <ele>1495.74</ele>
        <time>2026-07-29T09:45:51.000Z</time>
      </trkpt>
      <trkpt lat="42.8533642553" lon="19.2406218499">
        <ele>1496.94</ele>
        <time>2026-07-29T09:46:04.000Z</time>
      </trkpt>
      <trkpt lat="42.8533182386" lon="19.2405642662">
        <ele>1499.28</ele>
        <time>2026-07-29T09:46:21.000Z</time>
      </trkpt>
      <trkpt lat="42.8532627504" lon="19.2405473348">
        <ele>1501.53</ele>
        <time>2026-07-29T09:46:35.000Z</time>
      </trkpt>
      <trkpt lat="42.8532843757" lon="19.2404774297">
        <ele>1503.09</ele>
        <time>2026-07-29T09:46:48.000Z</time>
      </trkpt>
      <trkpt lat="42.853314383" lon="19.2404141463">
        <ele>1504.7</ele>
        <time>2026-07-29T09:47:02.000Z</time>
      </trkpt>
      <trkpt lat="42.8532932606" lon="19.2403848097">
        <ele>1506.15</ele>
        <time>2026-07-29T09:47:15.000Z</time>
      </trkpt>
      <trkpt lat="42.8532418795" lon="19.240354551">
        <ele>1508.12</ele>
        <time>2026-07-29T09:47:28.000Z</time>
      </trkpt>
      <trkpt lat="42.8531819489" lon="19.2403136473">
        <ele>1510.28</ele>
        <time>2026-07-29T09:47:42.000Z</time>
      </trkpt>
      <trkpt lat="42.853135094" lon="19.2402721569">
        <ele>1512.79</ele>
        <time>2026-07-29T09:47:59.000Z</time>
      </trkpt>
      <trkpt lat="42.8531663585" lon="19.2401874159">
        <ele>1515.42</ele>
        <time>2026-07-29T09:48:13.000Z</time>
      </trkpt>
      <trkpt lat="42.8531705495" lon="19.2400973104">
        <ele>1517.69</ele>
        <time>2026-07-29T09:48:28.000Z</time>
      </trkpt>
      <trkpt lat="42.8531782608" lon="19.2400439177">
        <ele>1519.67</ele>
        <time>2026-07-29T09:48:42.000Z</time>
      </trkpt>
      <trkpt lat="42.8531504329" lon="19.2400204483">
        <ele>1521.24</ele>
        <time>2026-07-29T09:48:54.000Z</time>
      </trkpt>
      <trkpt lat="42.8531112056" lon="19.2399631161">
        <ele>1522.87</ele>
        <time>2026-07-29T09:49:06.000Z</time>
      </trkpt>
      <trkpt lat="42.853136519" lon="19.2398970667">
        <ele>1525.62</ele>
        <time>2026-07-29T09:49:21.000Z</time>
      </trkpt>
      <trkpt lat="42.853089245" lon="19.2398119904">
        <ele>1528.47</ele>
        <time>2026-07-29T09:49:37.000Z</time>
      </trkpt>
      <trkpt lat="42.8531141393" lon="19.2397030257">
        <ele>1531.52</ele>
        <time>2026-07-29T09:49:54.000Z</time>
      </trkpt>
      <trkpt lat="42.8530676197" lon="19.2395959049">
        <ele>1533.52</ele>
        <time>2026-07-29T09:50:09.000Z</time>
      </trkpt>
      <trkpt lat="42.8530539572" lon="19.2395304423">
        <ele>1534.29</ele>
        <time>2026-07-29T09:50:22.000Z</time>
      </trkpt>
      <trkpt lat="42.8530056775" lon="19.2395040393">
        <ele>1536.8</ele>
        <time>2026-07-29T09:50:36.000Z</time>
      </trkpt>
      <trkpt lat="42.8529716469" lon="19.2393981759">
        <ele>1538.64</ele>
        <time>2026-07-29T09:50:52.000Z</time>
      </trkpt>
      <trkpt lat="42.8529669531" lon="19.2393440288">
        <ele>1540.58</ele>
        <time>2026-07-29T09:51:07.000Z</time>
      </trkpt>
      <trkpt lat="42.8529039212" lon="19.2392503191">
        <ele>1543.03</ele>
        <time>2026-07-29T09:51:23.000Z</time>
      </trkpt>
      <trkpt lat="42.8528874088" lon="19.2391478922">
        <ele>1545.1</ele>
        <time>2026-07-29T09:51:36.000Z</time>
      </trkpt>
      <trkpt lat="42.8528360277" lon="19.2390499916">
        <ele>1546.05</ele>
        <time>2026-07-29T09:51:50.000Z</time>
      </trkpt>
      <trkpt lat="42.8528336808" lon="19.2389947549">
        <ele>1547.93</ele>
        <time>2026-07-29T09:52:06.000Z</time>
      </trkpt>
      <trkpt lat="42.8528277297" lon="19.2389089242">
        <ele>1549.78</ele>
        <time>2026-07-29T09:52:19.000Z</time>
      </trkpt>
      <trkpt lat="42.8527953755" lon="19.2388230935">
        <ele>1552.61</ele>
        <time>2026-07-29T09:52:33.000Z</time>
      </trkpt>
      <trkpt lat="42.8527633566" lon="19.2387397774">
        <ele>1554.78</ele>
        <time>2026-07-29T09:52:46.000Z</time>
      </trkpt>
      <trkpt lat="42.8525257297" lon="19.2385109514">
        <ele>1558.68</ele>
        <time>2026-07-29T09:54:35.000Z</time>
      </trkpt>
      <trkpt lat="42.8525095526" lon="19.2384864762">
        <ele>1558.68</ele>
        <time>2026-07-29T09:54:47.000Z</time>
      </trkpt>
      <trkpt lat="42.8524847422" lon="19.2384403758">
        <ele>1559.41</ele>
        <time>2026-07-29T09:54:59.000Z</time>
      </trkpt>
      <trkpt lat="42.8524738457" lon="19.2383736558">
        <ele>1559.88</ele>
        <time>2026-07-29T09:55:10.000Z</time>
      </trkpt>
      <trkpt lat="42.8524500411" lon="19.2382655293">
        <ele>1560.46</ele>
        <time>2026-07-29T09:55:22.000Z</time>
      </trkpt>
      <trkpt lat="42.8524251468" lon="19.2381700594">
        <ele>1560.75</ele>
        <time>2026-07-29T09:55:35.000Z</time>
      </trkpt>
      <trkpt lat="42.852212" lon="19.237811">
        <ele>1577.081</ele>
        <time>2026-07-29T09:56:35.725Z</time>
      </trkpt>
      <trkpt lat="42.852152" lon="19.237706">
        <ele>1576.062</ele>
        <time>2026-07-29T09:56:55.725Z</time>
      </trkpt>
      <trkpt lat="42.852066" lon="19.237664">
        <ele>1576.019</ele>
        <time>2026-07-29T09:57:17.725Z</time>
      </trkpt>
      <trkpt lat="42.851974" lon="19.237664">
        <ele>1576.028</ele>
        <time>2026-07-29T09:57:28.725Z</time>
      </trkpt>
      <trkpt lat="42.851877" lon="19.237652">
        <ele>1577.026</ele>
        <time>2026-07-29T09:57:41.725Z</time>
      </trkpt>
      <trkpt lat="42.851789" lon="19.237618">
        <ele>1577.056</ele>
        <time>2026-07-29T09:57:54.725Z</time>
      </trkpt>
      <trkpt lat="42.851699" lon="19.237588">
        <ele>1577.049</ele>
        <time>2026-07-29T09:58:17.725Z</time>
      </trkpt>
      <trkpt lat="42.85162" lon="19.237656">
        <ele>1577.002</ele>
        <time>2026-07-29T09:58:27.725Z</time>
      </trkpt>
      <trkpt lat="42.851547" lon="19.237581">
        <ele>1577.922</ele>
        <time>2026-07-29T09:58:39.725Z</time>
      </trkpt>
      <trkpt lat="42.851458" lon="19.237532">
        <ele>1576.008</ele>
        <time>2026-07-29T09:58:53.725Z</time>
      </trkpt>
      <trkpt lat="42.851382" lon="19.237603">
        <ele>1577.098</ele>
        <time>2026-07-29T09:59:07.725Z</time>
      </trkpt>
      <trkpt lat="42.851328" lon="19.237714">
        <ele>1578.913</ele>
        <time>2026-07-29T09:59:21.725Z</time>
      </trkpt>
      <trkpt lat="42.851238" lon="19.237768">
        <ele>1578.062</ele>
        <time>2026-07-29T09:59:34.725Z</time>
      </trkpt>
      <trkpt lat="42.85117" lon="19.23785">
        <ele>1577.093</ele>
        <time>2026-07-29T10:00:32.725Z</time>
      </trkpt>
      <trkpt lat="42.851078" lon="19.23779">
        <ele>1575.07</ele>
        <time>2026-07-29T10:01:07.725Z</time>
      </trkpt>
      <trkpt lat="42.850938" lon="19.237621">
        <ele>1567.056</ele>
        <time>2026-07-29T10:01:41.526Z</time>
      </trkpt>
      <trkpt lat="42.850883" lon="19.237518">
        <ele>1567.059</ele>
        <time>2026-07-29T10:01:52.526Z</time>
      </trkpt>
      <trkpt lat="42.850843" lon="19.237407">
        <ele>1573.014</ele>
        <time>2026-07-29T10:02:11.526Z</time>
      </trkpt>
      <trkpt lat="42.850799" lon="19.237297">
        <ele>1576.008</ele>
        <time>2026-07-29T10:02:25.526Z</time>
      </trkpt>
      <trkpt lat="42.850803" lon="19.237172">
        <ele>1577.089</ele>
        <time>2026-07-29T10:02:42.526Z</time>
      </trkpt>
      <trkpt lat="42.850813" lon="19.237049">
        <ele>1579.024</ele>
        <time>2026-07-29T10:02:57.526Z</time>
      </trkpt>
      <trkpt lat="42.850809" lon="19.236926">
        <ele>1581.023</ele>
        <time>2026-07-29T10:03:15.526Z</time>
      </trkpt>
      <trkpt lat="42.850777" lon="19.236809">
        <ele>1582.074</ele>
        <time>2026-07-29T10:03:28.526Z</time>
      </trkpt>
      <trkpt lat="42.850847" lon="19.236724">
        <ele>1585.031</ele>
        <time>2026-07-29T10:04:05.526Z</time>
      </trkpt>
      <trkpt lat="42.850953" lon="19.236696">
        <ele>1587.06</ele>
        <time>2026-07-29T10:04:50.526Z</time>
      </trkpt>
      <trkpt lat="42.850972" lon="19.236575">
        <ele>1586.038</ele>
        <time>2026-07-29T10:05:18.526Z</time>
      </trkpt>
      <trkpt lat="42.85104" lon="19.23649">
        <ele>1587.088</ele>
        <time>2026-07-29T10:05:34.526Z</time>
      </trkpt>
      <trkpt lat="42.851073" lon="19.236371">
        <ele>1590.731</ele>
        <time>2026-07-29T10:05:59.526Z</time>
      </trkpt>
      <trkpt lat="42.851153" lon="19.236295">
        <ele>1593.061</ele>
        <time>2026-07-29T10:06:16.526Z</time>
      </trkpt>
      <trkpt lat="42.851178" lon="19.236161">
        <ele>1593.007</ele>
        <time>2026-07-29T10:06:37.526Z</time>
      </trkpt>
      <trkpt lat="42.851203" lon="19.23604">
        <ele>1591.008</ele>
        <time>2026-07-29T10:06:54.526Z</time>
      </trkpt>
      <trkpt lat="42.851275" lon="19.23596">
        <ele>1591.017</ele>
        <time>2026-07-29T10:07:04.526Z</time>
      </trkpt>
      <trkpt lat="42.85136" lon="19.23602">
        <ele>1592.832</ele>
        <time>2026-07-29T10:07:15.526Z</time>
      </trkpt>
      <trkpt lat="42.85145" lon="19.23597">
        <ele>1593.071</ele>
        <time>2026-07-29T10:07:24.526Z</time>
      </trkpt>
      <trkpt lat="42.851542" lon="19.235912">
        <ele>1593.062</ele>
        <time>2026-07-29T10:07:56.526Z</time>
      </trkpt>
      <trkpt lat="42.85163" lon="19.235886">
        <ele>1592.099</ele>
        <time>2026-07-29T10:08:14.526Z</time>
      </trkpt>
      <trkpt lat="42.851622" lon="19.23576">
        <ele>1589.098</ele>
        <time>2026-07-29T10:08:32.526Z</time>
      </trkpt>
      <trkpt lat="42.851608" lon="19.235636">
        <ele>1591.066</ele>
        <time>2026-07-29T10:08:57.526Z</time>
      </trkpt>
      <trkpt lat="42.85159" lon="19.235514">
        <ele>1592.896</ele>
        <time>2026-07-29T10:09:13.526Z</time>
      </trkpt>
      <trkpt lat="42.851594" lon="19.235391">
        <ele>1596.098</ele>
        <time>2026-07-29T10:09:44.526Z</time>
      </trkpt>
      <trkpt lat="42.851547" lon="19.235284">
        <ele>1598.015</ele>
        <time>2026-07-29T10:10:23.526Z</time>
      </trkpt>
      <trkpt lat="42.851527" lon="19.235147">
        <ele>1600.026</ele>
        <time>2026-07-29T10:10:32.526Z</time>
      </trkpt>
      <trkpt lat="42.851533" lon="19.235016">
        <ele>1603.008</ele>
        <time>2026-07-29T10:10:46.526Z</time>
      </trkpt>
      <trkpt lat="42.8515" lon="19.234898">
        <ele>1604.053</ele>
        <time>2026-07-29T10:11:00.526Z</time>
      </trkpt>
      <trkpt lat="42.851544" lon="19.234788">
        <ele>1607.058</ele>
        <time>2026-07-29T10:11:19.526Z</time>
      </trkpt>
      <trkpt lat="42.851561" lon="19.234643">
        <ele>1609.077</ele>
        <time>2026-07-29T10:11:36.526Z</time>
      </trkpt>
      <trkpt lat="42.85153" lon="19.234492">
        <ele>1613.028</ele>
        <time>2026-07-29T10:11:57.526Z</time>
      </trkpt>
      <trkpt lat="42.851548" lon="19.234366">
        <ele>1616.095</ele>
        <time>2026-07-29T10:12:21.526Z</time>
      </trkpt>
      <trkpt lat="42.851609" lon="19.234272">
        <ele>1618.084</ele>
        <time>2026-07-29T10:12:33.526Z</time>
      </trkpt>
      <trkpt lat="42.851529" lon="19.234154">
        <ele>1619.062</ele>
        <time>2026-07-29T10:12:47.526Z</time>
      </trkpt>
      <trkpt lat="42.85155" lon="19.234021">
        <ele>1623.092</ele>
        <time>2026-07-29T10:13:23.526Z</time>
      </trkpt>
      <trkpt lat="42.851559" lon="19.233886">
        <ele>1626.049</ele>
        <time>2026-07-29T10:13:43.526Z</time>
      </trkpt>
      <trkpt lat="42.851514" lon="19.233764">
        <ele>1628.002</ele>
        <time>2026-07-29T10:13:51.526Z</time>
      </trkpt>
      <trkpt lat="42.851557" lon="19.233653">
        <ele>1630.022</ele>
        <time>2026-07-29T10:14:22.526Z</time>
      </trkpt>
      <trkpt lat="42.851647" lon="19.233615">
        <ele>1633.008</ele>
        <time>2026-07-29T10:14:39.526Z</time>
      </trkpt>
      <trkpt lat="42.85174" lon="19.233589">
        <ele>1636.048</ele>
        <time>2026-07-29T10:15:02.526Z</time>
      </trkpt>
      <trkpt lat="42.851688" lon="19.233476">
        <ele>1636.043</ele>
        <time>2026-07-29T10:15:08.526Z</time>
      </trkpt>
      <trkpt lat="42.851768" lon="19.233412">
        <ele>1638.042</ele>
        <time>2026-07-29T10:15:22.526Z</time>
      </trkpt>
      <trkpt lat="42.851824" lon="19.233263">
        <ele>1642.013</ele>
        <time>2026-07-29T10:15:55.526Z</time>
      </trkpt>
      <trkpt lat="42.851906" lon="19.233341">
        <ele>1643.06</ele>
        <time>2026-07-29T10:16:02.526Z</time>
      </trkpt>
      <trkpt lat="42.851991" lon="19.233283">
        <ele>1644.039</ele>
        <time>2026-07-29T10:16:17.526Z</time>
      </trkpt>
      <trkpt lat="42.852057" lon="19.233246">
        <ele>1645.037</ele>
        <time>2026-07-29T10:17:02.526Z</time>
      </trkpt>
      <trkpt lat="42.852104" lon="19.233133">
        <ele>1645.714</ele>
        <time>2026-07-29T10:17:17.526Z</time>
      </trkpt>
      <trkpt lat="42.852191" lon="19.233186">
        <ele>1648.054</ele>
        <time>2026-07-29T10:17:30.526Z</time>
      </trkpt>
      <trkpt lat="42.852251" lon="19.233091">
        <ele>1651.009</ele>
        <time>2026-07-29T10:17:44.526Z</time>
      </trkpt>
      <trkpt lat="42.85231" lon="19.23319">
        <ele>1652.008</ele>
        <time>2026-07-29T10:17:58.526Z</time>
      </trkpt>
      <trkpt lat="42.852312" lon="19.233193">
        <ele>1656.06</ele>
        <time>2026-07-29T10:18:57.526Z</time>
      </trkpt>
      <trkpt lat="42.852399" lon="19.233159">
        <ele>1655.069</ele>
        <time>2026-07-29T10:19:27.526Z</time>
      </trkpt>
      <trkpt lat="42.852448" lon="19.233236">
        <ele>1660.014</ele>
        <time>2026-07-29T10:20:13.526Z</time>
      </trkpt>
      <trkpt lat="42.852558" lon="19.233243">
        <ele>1665.054</ele>
        <time>2026-07-29T10:20:51.526Z</time>
      </trkpt>
      <trkpt lat="42.85258" lon="19.23337">
        <ele>1668.045</ele>
        <time>2026-07-29T10:21:20.526Z</time>
      </trkpt>
      <trkpt lat="42.852669" lon="19.233308">
        <ele>1671.047</ele>
        <time>2026-07-29T10:21:40.526Z</time>
      </trkpt>
      <trkpt lat="42.852726" lon="19.233144">
        <ele>1674.011</ele>
        <time>2026-07-29T10:22:08.526Z</time>
      </trkpt>
      <trkpt lat="42.852783" lon="19.233278">
        <ele>1674.808</ele>
        <time>2026-07-29T10:22:13.526Z</time>
      </trkpt>
      <trkpt lat="42.852876" lon="19.23331">
        <ele>1675.018</ele>
        <time>2026-07-29T10:22:27.526Z</time>
      </trkpt>
      <trkpt lat="42.852918" lon="19.2332">
        <ele>1679.083</ele>
        <time>2026-07-29T10:22:51.526Z</time>
      </trkpt>
      <trkpt lat="42.853009" lon="19.233166">
        <ele>1679.062</ele>
        <time>2026-07-29T10:22:59.526Z</time>
      </trkpt>
      <trkpt lat="42.852953" lon="19.233038">
        <ele>1681.753</ele>
        <time>2026-07-29T10:23:11.526Z</time>
      </trkpt>
      <trkpt lat="42.85305" lon="19.233053">
        <ele>1682.09</ele>
        <time>2026-07-29T10:23:26.526Z</time>
      </trkpt>
      <trkpt lat="42.85305" lon="19.232903">
        <ele>1685.099</ele>
        <time>2026-07-29T10:23:40.526Z</time>
      </trkpt>
      <trkpt lat="42.853142" lon="19.232849">
        <ele>1686.027</ele>
        <time>2026-07-29T10:23:55.526Z</time>
      </trkpt>
      <trkpt lat="42.853179" lon="19.232724">
        <ele>1689.087</ele>
        <time>2026-07-29T10:24:07.526Z</time>
      </trkpt>
      <trkpt lat="42.85326" lon="19.232808">
        <ele>1688.042</ele>
        <time>2026-07-29T10:24:16.526Z</time>
      </trkpt>
      <trkpt lat="42.85333" lon="19.232724">
        <ele>1690.022</ele>
        <time>2026-07-29T10:24:27.526Z</time>
      </trkpt>
      <trkpt lat="42.853423" lon="19.232672">
        <ele>1691.014</ele>
        <time>2026-07-29T10:24:39.526Z</time>
      </trkpt>
      <trkpt lat="42.853429" lon="19.23254">
        <ele>1692.008</ele>
        <time>2026-07-29T10:24:58.526Z</time>
      </trkpt>
      <trkpt lat="42.853526" lon="19.23254">
        <ele>1694.078</ele>
        <time>2026-07-29T10:25:08.526Z</time>
      </trkpt>
      <trkpt lat="42.853665" lon="19.232724">
        <ele>1705.039</ele>
        <time>2026-07-29T10:26:35.526Z</time>
      </trkpt>
      <trkpt lat="42.853719" lon="19.232625">
        <ele>1706.097</ele>
        <time>2026-07-29T10:26:47.526Z</time>
      </trkpt>
      <trkpt lat="42.853736" lon="19.232749">
        <ele>1709.037</ele>
        <time>2026-07-29T10:27:20.526Z</time>
      </trkpt>
      <trkpt lat="42.853773" lon="19.232634">
        <ele>1711.082</ele>
        <time>2026-07-29T10:27:29.526Z</time>
      </trkpt>
      <trkpt lat="42.853849" lon="19.232562">
        <ele>1711.043</ele>
        <time>2026-07-29T10:27:44.526Z</time>
      </trkpt>
      <trkpt lat="42.853884" lon="19.23258">
        <ele>1714.008</ele>
        <time>2026-07-29T10:29:26.526Z</time>
      </trkpt>
      <trkpt lat="42.853879" lon="19.232406">
        <ele>1715.022</ele>
        <time>2026-07-29T10:29:39.526Z</time>
      </trkpt>
      <trkpt lat="42.853963" lon="19.232331">
        <ele>1718.077</ele>
        <time>2026-07-29T10:29:54.526Z</time>
      </trkpt>
      <trkpt lat="42.854058" lon="19.232255">
        <ele>1719.086</ele>
        <time>2026-07-29T10:30:07.526Z</time>
      </trkpt>
      <trkpt lat="42.854091" lon="19.232113">
        <ele>1721.087</ele>
        <time>2026-07-29T10:30:13.526Z</time>
      </trkpt>
      <trkpt lat="42.854178" lon="19.23206">
        <ele>1727.084</ele>
        <time>2026-07-29T10:30:51.526Z</time>
      </trkpt>
      <trkpt lat="42.854153" lon="19.231929">
        <ele>1729.073</ele>
        <time>2026-07-29T10:31:15.526Z</time>
      </trkpt>
      <trkpt lat="42.854114" lon="19.231816">
        <ele>1733.021</ele>
        <time>2026-07-29T10:31:46.526Z</time>
      </trkpt>
      <trkpt lat="42.854099" lon="19.231678">
        <ele>1735.011</ele>
        <time>2026-07-29T10:31:58.526Z</time>
      </trkpt>
      <trkpt lat="42.854111" lon="19.231534">
        <ele>1738.053</ele>
        <time>2026-07-29T10:32:16.526Z</time>
      </trkpt>
      <trkpt lat="42.854187" lon="19.231495">
        <ele>1746.083</ele>
        <time>2026-07-29T10:33:50.526Z</time>
      </trkpt>
      <trkpt lat="42.85415" lon="19.231342">
        <ele>1748.084</ele>
        <time>2026-07-29T10:34:03.526Z</time>
      </trkpt>
      <trkpt lat="42.854164" lon="19.23126">
        <ele>1750.09</ele>
        <time>2026-07-29T10:34:37.526Z</time>
      </trkpt>
      <trkpt lat="42.854198" lon="19.231145">
        <ele>1751.028</ele>
        <time>2026-07-29T10:34:48.526Z</time>
      </trkpt>
      <trkpt lat="42.854176" lon="19.231018">
        <ele>1754.038</ele>
        <time>2026-07-29T10:35:04.526Z</time>
      </trkpt>
      <trkpt lat="42.854105" lon="19.230938">
        <ele>1760.021</ele>
        <time>2026-07-29T10:36:32.526Z</time>
      </trkpt>
      <trkpt lat="42.854007" lon="19.230915">
        <ele>1761.041</ele>
        <time>2026-07-29T10:36:49.526Z</time>
      </trkpt>
      <trkpt lat="42.853947" lon="19.230809">
        <ele>1763.005</ele>
        <time>2026-07-29T10:37:03.526Z</time>
      </trkpt>
      <trkpt lat="42.853868" lon="19.230751">
        <ele>1765.008</ele>
        <time>2026-07-29T10:37:21.526Z</time>
      </trkpt>
      <trkpt lat="42.853816" lon="19.230643">
        <ele>1770.076</ele>
        <time>2026-07-29T10:37:42.526Z</time>
      </trkpt>
      <trkpt lat="42.85387" lon="19.230543">
        <ele>1773.031</ele>
        <time>2026-07-29T10:38:09.526Z</time>
      </trkpt>
      <trkpt lat="42.853962" lon="19.23055">
        <ele>1776.05</ele>
        <time>2026-07-29T10:38:34.526Z</time>
      </trkpt>
      <trkpt lat="42.853985" lon="19.230426">
        <ele>1779.091</ele>
        <time>2026-07-29T10:38:55.526Z</time>
      </trkpt>
      <trkpt lat="42.854021" lon="19.230439">
        <ele>1782.045</ele>
        <time>2026-07-29T10:41:21.526Z</time>
      </trkpt>
      <trkpt lat="42.854076" lon="19.230331">
        <ele>1784.027</ele>
        <time>2026-07-29T10:41:35.526Z</time>
      </trkpt>
      <trkpt lat="42.854157" lon="19.230188">
        <ele>1786.068</ele>
        <time>2026-07-29T10:41:54.526Z</time>
      </trkpt>
      <trkpt lat="42.854235" lon="19.230099">
        <ele>1789.014</ele>
        <time>2026-07-29T10:42:19.526Z</time>
      </trkpt>
      <trkpt lat="42.854328" lon="19.230069">
        <ele>1793.008</ele>
        <time>2026-07-29T10:42:42.526Z</time>
      </trkpt>
      <trkpt lat="42.854414" lon="19.230028">
        <ele>1796.056</ele>
        <time>2026-07-29T10:43:08.526Z</time>
      </trkpt>
      <trkpt lat="42.854496" lon="19.230088">
        <ele>1799.071</ele>
        <time>2026-07-29T10:43:30.526Z</time>
      </trkpt>
      <trkpt lat="42.854632" lon="19.230257">
        <ele>1803.077</ele>
        <time>2026-07-29T10:46:33.526Z</time>
      </trkpt>
      <trkpt lat="42.854678" lon="19.230374">
        <ele>1806.045</ele>
        <time>2026-07-29T10:46:49.526Z</time>
      </trkpt>
      <trkpt lat="42.8547" lon="19.230496">
        <ele>1810.055</ele>
        <time>2026-07-29T10:47:16.526Z</time>
      </trkpt>
      <trkpt lat="42.85476" lon="19.230495">
        <ele>1816.013</ele>
        <time>2026-07-29T10:48:20.526Z</time>
      </trkpt>
      <trkpt lat="42.854854" lon="19.230358">
        <ele>1821.008</ele>
        <time>2026-07-29T10:48:57.526Z</time>
      </trkpt>
      <trkpt lat="42.854844" lon="19.230223">
        <ele>1823.041</ele>
        <time>2026-07-29T10:49:10.526Z</time>
      </trkpt>
      <trkpt lat="42.854924" lon="19.230152">
        <ele>1825.016</ele>
        <time>2026-07-29T10:49:30.526Z</time>
      </trkpt>
      <trkpt lat="42.854972" lon="19.230263">
        <ele>1828.035</ele>
        <time>2026-07-29T10:50:50.526Z</time>
      </trkpt>
      <trkpt lat="42.855062" lon="19.230297">
        <ele>1831.066</ele>
        <time>2026-07-29T10:51:30.526Z</time>
      </trkpt>
      <trkpt lat="42.855151" lon="19.230328">
        <ele>1832.053</ele>
        <time>2026-07-29T10:51:48.526Z</time>
      </trkpt>
      <trkpt lat="42.855237" lon="19.230363">
        <ele>1834.022</ele>
        <time>2026-07-29T10:51:58.526Z</time>
      </trkpt>
      <trkpt lat="42.855334" lon="19.230341">
        <ele>1835.08</ele>
        <time>2026-07-29T10:52:33.526Z</time>
      </trkpt>
      <trkpt lat="42.855381" lon="19.230225">
        <ele>1838.06</ele>
        <time>2026-07-29T10:53:10.526Z</time>
      </trkpt>
      <trkpt lat="42.855461" lon="19.230305">
        <ele>1840.066</ele>
        <time>2026-07-29T10:53:19.526Z</time>
      </trkpt>
      <trkpt lat="42.855547" lon="19.230263">
        <ele>1843.029</ele>
        <time>2026-07-29T10:53:36.526Z</time>
      </trkpt>
      <trkpt lat="42.855639" lon="19.230282">
        <ele>1845.021</ele>
        <time>2026-07-29T10:53:51.526Z</time>
      </trkpt>
      <trkpt lat="42.855731" lon="19.230255">
        <ele>1849.008</ele>
        <time>2026-07-29T10:54:24.526Z</time>
      </trkpt>
      <trkpt lat="42.855818" lon="19.230195">
        <ele>1850.01</ele>
        <time>2026-07-29T10:54:37.526Z</time>
      </trkpt>
      <trkpt lat="42.855913" lon="19.230197">
        <ele>1853.035</ele>
        <time>2026-07-29T10:54:52.526Z</time>
      </trkpt>
      <trkpt lat="42.856006" lon="19.230201">
        <ele>1857.064</ele>
        <time>2026-07-29T10:55:22.526Z</time>
      </trkpt>
      <trkpt lat="42.856071" lon="19.230116">
        <ele>1860.035</ele>
        <time>2026-07-29T10:55:56.526Z</time>
      </trkpt>
      <trkpt lat="42.856152" lon="19.230176">
        <ele>1863.012</ele>
        <time>2026-07-29T10:57:02.526Z</time>
      </trkpt>
      <trkpt lat="42.856148" lon="19.230301">
        <ele>1867.091</ele>
        <time>2026-07-29T10:57:33.526Z</time>
      </trkpt>
      <trkpt lat="42.856229" lon="19.230243">
        <ele>1872.089</ele>
        <time>2026-07-29T10:58:03.526Z</time>
      </trkpt>
      <trkpt lat="42.856291" lon="19.230335">
        <ele>1874.029</ele>
        <time>2026-07-29T10:58:27.526Z</time>
      </trkpt>
      <trkpt lat="42.85631" lon="19.230458">
        <ele>1877.035</ele>
        <time>2026-07-29T10:58:55.526Z</time>
      </trkpt>
      <trkpt lat="42.856229" lon="19.230512">
        <ele>1880.086</ele>
        <time>2026-07-29T10:59:24.526Z</time>
      </trkpt>
      <trkpt lat="42.856167" lon="19.230606">
        <ele>1884.014</ele>
        <time>2026-07-29T11:02:34.526Z</time>
      </trkpt>
      <trkpt lat="42.856134" lon="19.230728">
        <ele>1885.008</ele>
        <time>2026-07-29T11:02:47.526Z</time>
      </trkpt>
      <trkpt lat="42.856038" lon="19.230757">
        <ele>1886.067</ele>
        <time>2026-07-29T11:03:00.526Z</time>
      </trkpt>
      <trkpt lat="42.85605" lon="19.230851">
        <ele>1893.011</ele>
        <time>2026-07-29T11:03:41.526Z</time>
      </trkpt>
      <trkpt lat="42.856096" lon="19.230968">
        <ele>1899.032</ele>
        <time>2026-07-29T11:04:29.526Z</time>
      </trkpt>
      <trkpt lat="42.856115" lon="19.231089">
        <ele>1906.049</ele>
        <time>2026-07-29T11:05:07.526Z</time>
      </trkpt>
      <trkpt lat="42.856129" lon="19.231214">
        <ele>1910.898</ele>
        <time>2026-07-29T11:05:32.526Z</time>
      </trkpt>
      <trkpt lat="42.856209" lon="19.231274">
        <ele>1913.096</ele>
        <time>2026-07-29T11:10:24.526Z</time>
      </trkpt>
      <trkpt lat="42.856298" lon="19.231232">
        <ele>1916.056</ele>
        <time>2026-07-29T11:10:56.526Z</time>
      </trkpt>
      <trkpt lat="42.856347" lon="19.23134">
        <ele>1920.076</ele>
        <time>2026-07-29T11:11:08.526Z</time>
      </trkpt>
      <trkpt lat="42.856407" lon="19.231445">
        <ele>1920.09</ele>
        <time>2026-07-29T11:11:20.526Z</time>
      </trkpt>
      <trkpt lat="42.856502" lon="19.231473">
        <ele>1922.019</ele>
        <time>2026-07-29T11:11:33.526Z</time>
      </trkpt>
      <trkpt lat="42.856597" lon="19.231484">
        <ele>1925.008</ele>
        <time>2026-07-29T11:11:44.526Z</time>
      </trkpt>
      <trkpt lat="42.856638" lon="19.231593">
        <ele>1926.011</ele>
        <time>2026-07-29T11:11:53.526Z</time>
      </trkpt>
      <trkpt lat="42.856651" lon="19.231715">
        <ele>1926.046</ele>
        <time>2026-07-29T11:12:03.526Z</time>
      </trkpt>
      <trkpt lat="42.856647" lon="19.231852">
        <ele>1929.035</ele>
        <time>2026-07-29T11:12:17.526Z</time>
      </trkpt>
      <trkpt lat="42.856617" lon="19.231976">
        <ele>1929.086</ele>
        <time>2026-07-29T11:12:24.526Z</time>
      </trkpt>
      <trkpt lat="42.856604" lon="19.232106">
        <ele>1930.053</ele>
        <time>2026-07-29T11:12:32.526Z</time>
      </trkpt>
      <trkpt lat="42.85661" lon="19.232231">
        <ele>1931.092</ele>
        <time>2026-07-29T11:12:41.526Z</time>
      </trkpt>
      <trkpt lat="42.856604" lon="19.232357">
        <ele>1933.02</ele>
        <time>2026-07-29T11:12:49.526Z</time>
      </trkpt>
      <trkpt lat="42.85658" lon="19.232478">
        <ele>1934.02</ele>
        <time>2026-07-29T11:13:00.526Z</time>
      </trkpt>
      <trkpt lat="42.856674" lon="19.23244">
        <ele>1935.791</ele>
        <time>2026-07-29T11:13:11.526Z</time>
      </trkpt>
      <trkpt lat="42.856732" lon="19.232337">
        <ele>1937.081</ele>
        <time>2026-07-29T11:13:20.526Z</time>
      </trkpt>
      <trkpt lat="42.856792" lon="19.232227">
        <ele>1937.919</ele>
        <time>2026-07-29T11:13:33.526Z</time>
      </trkpt>
      <trkpt lat="42.856853" lon="19.232128">
        <ele>1939.008</ele>
        <time>2026-07-29T11:13:44.526Z</time>
      </trkpt>
      <trkpt lat="42.856916" lon="19.232033">
        <ele>1940.013</ele>
        <time>2026-07-29T11:13:54.526Z</time>
      </trkpt>
      <trkpt lat="42.857" lon="19.231974">
        <ele>1944.098</ele>
        <time>2026-07-29T11:14:38.526Z</time>
      </trkpt>
      <trkpt lat="42.857086" lon="19.232015">
        <ele>1946.017</ele>
        <time>2026-07-29T11:15:01.526Z</time>
      </trkpt>
      <trkpt lat="42.857163" lon="19.232089">
        <ele>1951.098</ele>
        <time>2026-07-29T11:16:05.526Z</time>
      </trkpt>
      <trkpt lat="42.857144" lon="19.23221">
        <ele>1953.045</ele>
        <time>2026-07-29T11:16:19.526Z</time>
      </trkpt>
      <trkpt lat="42.857206" lon="19.2323">
        <ele>1959.044</ele>
        <time>2026-07-29T11:16:47.526Z</time>
      </trkpt>
      <trkpt lat="42.857254" lon="19.232407">
        <ele>1965.072</ele>
        <time>2026-07-29T11:17:31.526Z</time>
      </trkpt>
      <trkpt lat="42.857209" lon="19.232513">
        <ele>1967.082</ele>
        <time>2026-07-29T11:18:31.526Z</time>
      </trkpt>
      <trkpt lat="42.857299" lon="19.232463">
        <ele>1971.076</ele>
        <time>2026-07-29T11:18:48.526Z</time>
      </trkpt>
      <trkpt lat="42.857364" lon="19.232372">
        <ele>1974.09</ele>
        <time>2026-07-29T11:19:18.526Z</time>
      </trkpt>
      <trkpt lat="42.857446" lon="19.232324">
        <ele>1982.019</ele>
        <time>2026-07-29T11:23:55.526Z</time>
      </trkpt>
      <trkpt lat="42.857527" lon="19.232257">
        <ele>1985.008</ele>
        <time>2026-07-29T11:24:10.526Z</time>
      </trkpt>
      <trkpt lat="42.85762" lon="19.232234">
        <ele>1986.031</ele>
        <time>2026-07-29T11:24:22.526Z</time>
      </trkpt>
      <trkpt lat="42.857708" lon="19.232197">
        <ele>1988.016</ele>
        <time>2026-07-29T11:24:38.526Z</time>
      </trkpt>
      <trkpt lat="42.857784" lon="19.232283">
        <ele>1992.035</ele>
        <time>2026-07-29T11:24:50.526Z</time>
      </trkpt>
      <trkpt lat="42.857874" lon="19.232304">
        <ele>1994.046</ele>
        <time>2026-07-29T11:25:02.526Z</time>
      </trkpt>
      <trkpt lat="42.857944" lon="19.23222">
        <ele>1999.083</ele>
        <time>2026-07-29T11:25:29.526Z</time>
      </trkpt>
      <trkpt lat="42.858011" lon="19.232124">
        <ele>1998.072</ele>
        <time>2026-07-29T11:25:43.526Z</time>
      </trkpt>
      <trkpt lat="42.858101" lon="19.232108">
        <ele>1999.09</ele>
        <time>2026-07-29T11:25:58.526Z</time>
      </trkpt>
      <trkpt lat="42.858201" lon="19.23212">
        <ele>1999.09</ele>
        <time>2026-07-29T11:26:10.526Z</time>
      </trkpt>
      <trkpt lat="42.858291" lon="19.232128">
        <ele>1999.011</ele>
        <time>2026-07-29T11:26:20.526Z</time>
      </trkpt>
      <trkpt lat="42.858378" lon="19.232055">
        <ele>1997.821</ele>
        <time>2026-07-29T11:26:29.526Z</time>
      </trkpt>
      <trkpt lat="42.858485" lon="19.232018">
        <ele>1997.003</ele>
        <time>2026-07-29T11:26:37.526Z</time>
      </trkpt>
      <trkpt lat="42.858566" lon="19.231956">
        <ele>1998.008</ele>
        <time>2026-07-29T11:26:44.526Z</time>
      </trkpt>
      <trkpt lat="42.858643" lon="19.231892">
        <ele>2000.015</ele>
        <time>2026-07-29T11:26:53.526Z</time>
      </trkpt>
      <trkpt lat="42.858732" lon="19.231831">
        <ele>2001.08</ele>
        <time>2026-07-29T11:27:13.526Z</time>
      </trkpt>
      <trkpt lat="42.858814" lon="19.231758">
        <ele>2003.059</ele>
        <time>2026-07-29T11:27:23.526Z</time>
      </trkpt>
      <trkpt lat="42.858882" lon="19.231661">
        <ele>2004.05</ele>
        <time>2026-07-29T11:27:33.526Z</time>
      </trkpt>
      <trkpt lat="42.858952" lon="19.231581">
        <ele>2006.047</ele>
        <time>2026-07-29T11:27:41.526Z</time>
      </trkpt>
      <trkpt lat="42.859136" lon="19.231596">
        <ele>2009.012</ele>
        <time>2026-07-29T11:29:40.526Z</time>
      </trkpt>
      <trkpt lat="42.859206" lon="19.231691">
        <ele>2011.032</ele>
        <time>2026-07-29T11:29:50.526Z</time>
      </trkpt>
      <trkpt lat="42.8593" lon="19.231721">
        <ele>2017.005</ele>
        <time>2026-07-29T11:30:08.526Z</time>
      </trkpt>
      <trkpt lat="42.859332" lon="19.231842">
        <ele>2020.008</ele>
        <time>2026-07-29T11:30:27.526Z</time>
      </trkpt>
      <trkpt lat="42.859278" lon="19.231954">
        <ele>2021.045</ele>
        <time>2026-07-29T11:30:52.526Z</time>
      </trkpt>
      <trkpt lat="42.859251" lon="19.232078">
        <ele>2023.09</ele>
        <time>2026-07-29T11:31:04.526Z</time>
      </trkpt>
      <trkpt lat="42.859166" lon="19.232146">
        <ele>2025.069</ele>
        <time>2026-07-29T11:31:32.526Z</time>
      </trkpt>
      <trkpt lat="42.859128" lon="19.232266">
        <ele>2023.09</ele>
        <time>2026-07-29T11:31:41.526Z</time>
      </trkpt>
      <trkpt lat="42.85909" lon="19.232378">
        <ele>2023.057</ele>
        <time>2026-07-29T11:31:47.526Z</time>
      </trkpt>
      <trkpt lat="42.859059" lon="19.232504">
        <ele>2021.066</ele>
        <time>2026-07-29T11:31:54.526Z</time>
      </trkpt>
      <trkpt lat="42.859064" lon="19.232639">
        <ele>2021.014</ele>
        <time>2026-07-29T11:32:01.526Z</time>
      </trkpt>
      <trkpt lat="42.85907" lon="19.232762">
        <ele>2022.034</ele>
        <time>2026-07-29T11:32:08.526Z</time>
      </trkpt>
      <trkpt lat="42.859045" lon="19.23288">
        <ele>2021.245</ele>
        <time>2026-07-29T11:32:14.526Z</time>
      </trkpt>
      <trkpt lat="42.858993" lon="19.232982">
        <ele>2022.047</ele>
        <time>2026-07-29T11:32:22.526Z</time>
      </trkpt>
      <trkpt lat="42.858925" lon="19.233063">
        <ele>2022.011</ele>
        <time>2026-07-29T11:32:27.526Z</time>
      </trkpt>
      <trkpt lat="42.858848" lon="19.23316">
        <ele>2021.008</ele>
        <time>2026-07-29T11:32:35.526Z</time>
      </trkpt>
      <trkpt lat="42.85877" lon="19.23324">
        <ele>2020.078</ele>
        <time>2026-07-29T11:32:45.526Z</time>
      </trkpt>
      <trkpt lat="42.858688" lon="19.233298">
        <ele>2021.033</ele>
        <time>2026-07-29T11:32:55.526Z</time>
      </trkpt>
      <trkpt lat="42.8586" lon="19.233354">
        <ele>2023.082</ele>
        <time>2026-07-29T11:33:03.526Z</time>
      </trkpt>
      <trkpt lat="42.85854" lon="19.233454">
        <ele>2024.073</ele>
        <time>2026-07-29T11:33:12.526Z</time>
      </trkpt>
      <trkpt lat="42.858469" lon="19.233534">
        <ele>2023.07</ele>
        <time>2026-07-29T11:33:25.526Z</time>
      </trkpt>
      <trkpt lat="42.858497" lon="19.233454">
        <ele>2021.031</ele>
        <time>2026-07-29T11:37:41.526Z</time>
      </trkpt>
      <trkpt lat="42.85854" lon="19.233332">
        <ele>2021.052</ele>
        <time>2026-07-29T11:37:49.526Z</time>
      </trkpt>
      <trkpt lat="42.858619" lon="19.233268">
        <ele>2019.049</ele>
        <time>2026-07-29T11:37:57.526Z</time>
      </trkpt>
      <trkpt lat="42.858709" lon="19.233225">
        <ele>2019.028</ele>
        <time>2026-07-29T11:38:04.526Z</time>
      </trkpt>
      <trkpt lat="42.858777" lon="19.233128">
        <ele>2019.046</ele>
        <time>2026-07-29T11:38:11.526Z</time>
      </trkpt>
      <trkpt lat="42.858824" lon="19.233012">
        <ele>2018.076</ele>
        <time>2026-07-29T11:38:18.526Z</time>
      </trkpt>
      <trkpt lat="42.858892" lon="19.232915">
        <ele>2018.066</ele>
        <time>2026-07-29T11:38:25.526Z</time>
      </trkpt>
      <trkpt lat="42.858937" lon="19.232792">
        <ele>2018.029</ele>
        <time>2026-07-29T11:38:35.526Z</time>
      </trkpt>
      <trkpt lat="42.858959" lon="19.232669">
        <ele>2018.021</ele>
        <time>2026-07-29T11:38:42.526Z</time>
      </trkpt>
      <trkpt lat="42.85898" lon="19.232535">
        <ele>2018.008</ele>
        <time>2026-07-29T11:38:49.526Z</time>
      </trkpt>
      <trkpt lat="42.859006" lon="19.232415">
        <ele>2019.09</ele>
        <time>2026-07-29T11:38:58.526Z</time>
      </trkpt>
      <trkpt lat="42.859037" lon="19.232296">
        <ele>2020.095</ele>
        <time>2026-07-29T11:39:06.526Z</time>
      </trkpt>
      <trkpt lat="42.859073" lon="19.232184">
        <ele>2020.044</ele>
        <time>2026-07-29T11:39:13.526Z</time>
      </trkpt>
      <trkpt lat="42.859126" lon="19.232074">
        <ele>2020.095</ele>
        <time>2026-07-29T11:39:20.526Z</time>
      </trkpt>
      <trkpt lat="42.859187" lon="19.231965">
        <ele>2022.042</ele>
        <time>2026-07-29T11:39:31.526Z</time>
      </trkpt>
      <trkpt lat="42.859256" lon="19.231867">
        <ele>2023.051</ele>
        <time>2026-07-29T11:39:40.526Z</time>
      </trkpt>
      <trkpt lat="42.859296" lon="19.231752">
        <ele>2020.069</ele>
        <time>2026-07-29T11:40:24.526Z</time>
      </trkpt>
      <trkpt lat="42.859264" lon="19.231629">
        <ele>2019.299</ele>
        <time>2026-07-29T11:40:32.526Z</time>
      </trkpt>
      <trkpt lat="42.85924" lon="19.231511">
        <ele>2016.013</ele>
        <time>2026-07-29T11:42:30.526Z</time>
      </trkpt>
      <trkpt lat="42.85915" lon="19.231471">
        <ele>2013.843</ele>
        <time>2026-07-29T11:42:42.526Z</time>
      </trkpt>
      <trkpt lat="42.858954" lon="19.231216">
        <ele>2007.055</ele>
        <time>2026-07-29T11:43:10.526Z</time>
      </trkpt>
      <trkpt lat="42.858916" lon="19.2311">
        <ele>2010.05</ele>
        <time>2026-07-29T11:43:23.526Z</time>
      </trkpt>
      <trkpt lat="42.858881" lon="19.230981">
        <ele>2014.079</ele>
        <time>2026-07-29T11:43:35.526Z</time>
      </trkpt>
      <trkpt lat="42.858886" lon="19.230858">
        <ele>2015.08</ele>
        <time>2026-07-29T11:43:44.526Z</time>
      </trkpt>
      <trkpt lat="42.85888" lon="19.230713">
        <ele>2015.057</ele>
        <time>2026-07-29T11:43:51.526Z</time>
      </trkpt>
      <trkpt lat="42.858919" lon="19.230594">
        <ele>2015.096</ele>
        <time>2026-07-29T11:43:59.526Z</time>
      </trkpt>
      <trkpt lat="42.858924" lon="19.230455">
        <ele>2016.144</ele>
        <time>2026-07-29T11:44:07.526Z</time>
      </trkpt>
      <trkpt lat="42.858995" lon="19.230369">
        <ele>2016.014</ele>
        <time>2026-07-29T11:44:16.526Z</time>
      </trkpt>
      <trkpt lat="42.859093" lon="19.230348">
        <ele>2018.092</ele>
        <time>2026-07-29T11:44:24.526Z</time>
      </trkpt>
      <trkpt lat="42.85918" lon="19.230289">
        <ele>2019.073</ele>
        <time>2026-07-29T11:44:32.526Z</time>
      </trkpt>
      <trkpt lat="42.859215" lon="19.23015">
        <ele>2014.92</ele>
        <time>2026-07-29T11:44:39.526Z</time>
      </trkpt>
      <trkpt lat="42.859211" lon="19.230022">
        <ele>2015.208</ele>
        <time>2026-07-29T11:44:46.526Z</time>
      </trkpt>
      <trkpt lat="42.859264" lon="19.229901">
        <ele>2014.063</ele>
        <time>2026-07-29T11:45:04.526Z</time>
      </trkpt>
      <trkpt lat="42.859331" lon="19.229805">
        <ele>2012.058</ele>
        <time>2026-07-29T11:45:13.526Z</time>
      </trkpt>
      <trkpt lat="42.859372" lon="19.229693">
        <ele>2014.097</ele>
        <time>2026-07-29T11:45:24.526Z</time>
      </trkpt>
      <trkpt lat="42.859326" lon="19.229577">
        <ele>2019.048</ele>
        <time>2026-07-29T11:45:35.526Z</time>
      </trkpt>
      <trkpt lat="42.859245" lon="19.229513">
        <ele>2015.035</ele>
        <time>2026-07-29T11:46:03.526Z</time>
      </trkpt>
      <trkpt lat="42.859172" lon="19.22943">
        <ele>2012.014</ele>
        <time>2026-07-29T11:46:21.526Z</time>
      </trkpt>
      <trkpt lat="42.859215" lon="19.229309">
        <ele>2011.092</ele>
        <time>2026-07-29T11:46:34.526Z</time>
      </trkpt>
      <trkpt lat="42.859255" lon="19.229195">
        <ele>2010.932</ele>
        <time>2026-07-29T11:46:44.526Z</time>
      </trkpt>
      <trkpt lat="42.859302" lon="19.229086">
        <ele>2008.984</ele>
        <time>2026-07-29T11:46:51.526Z</time>
      </trkpt>
      <trkpt lat="42.859309" lon="19.22896">
        <ele>2010.007</ele>
        <time>2026-07-29T11:47:01.526Z</time>
      </trkpt>
      <trkpt lat="42.859333" lon="19.228831">
        <ele>2007.917</ele>
        <time>2026-07-29T11:47:10.526Z</time>
      </trkpt>
      <trkpt lat="42.859373" lon="19.228715">
        <ele>2007.008</ele>
        <time>2026-07-29T11:47:21.526Z</time>
      </trkpt>
      <trkpt lat="42.859375" lon="19.228583">
        <ele>2004.942</ele>
        <time>2026-07-29T11:47:30.526Z</time>
      </trkpt>
      <trkpt lat="42.859433" lon="19.228489">
        <ele>2002.227</ele>
        <time>2026-07-29T11:47:42.526Z</time>
      </trkpt>
      <trkpt lat="42.859529" lon="19.228463">
        <ele>2000.056</ele>
        <time>2026-07-29T11:48:53.526Z</time>
      </trkpt>
      <trkpt lat="42.859579" lon="19.228354">
        <ele>1998.097</ele>
        <time>2026-07-29T11:49:00.526Z</time>
      </trkpt>
      <trkpt lat="42.859567" lon="19.228225">
        <ele>1996.984</ele>
        <time>2026-07-29T11:49:12.526Z</time>
      </trkpt>
      <trkpt lat="42.859603" lon="19.228109">
        <ele>1992.043</ele>
        <time>2026-07-29T11:49:21.526Z</time>
      </trkpt>
      <trkpt lat="42.859649" lon="19.22799">
        <ele>1989.951</ele>
        <time>2026-07-29T11:49:28.526Z</time>
      </trkpt>
      <trkpt lat="42.8597" lon="19.227884">
        <ele>1989.041</ele>
        <time>2026-07-29T11:49:34.526Z</time>
      </trkpt>
      <trkpt lat="42.859762" lon="19.227772">
        <ele>1988.044</ele>
        <time>2026-07-29T11:49:41.526Z</time>
      </trkpt>
      <trkpt lat="42.859851" lon="19.227725">
        <ele>1986.005</ele>
        <time>2026-07-29T11:50:02.526Z</time>
      </trkpt>
      <trkpt lat="42.85992" lon="19.227645">
        <ele>1984.015</ele>
        <time>2026-07-29T11:50:10.526Z</time>
      </trkpt>
      <trkpt lat="42.859966" lon="19.227535">
        <ele>1982.908</ele>
        <time>2026-07-29T11:50:21.526Z</time>
      </trkpt>
      <trkpt lat="42.859973" lon="19.227406">
        <ele>1975.048</ele>
        <time>2026-07-29T11:50:46.526Z</time>
      </trkpt>
      <trkpt lat="42.860052" lon="19.227338">
        <ele>1972.023</ele>
        <time>2026-07-29T11:51:00.526Z</time>
      </trkpt>
      <trkpt lat="42.860124" lon="19.227414">
        <ele>1970.072</ele>
        <time>2026-07-29T11:51:11.526Z</time>
      </trkpt>
      <trkpt lat="42.860225" lon="19.227378">
        <ele>1968.063</ele>
        <time>2026-07-29T11:51:23.526Z</time>
      </trkpt>
      <trkpt lat="42.860315" lon="19.227354">
        <ele>1968.09</ele>
        <time>2026-07-29T11:51:30.526Z</time>
      </trkpt>
      <trkpt lat="42.860341" lon="19.227234">
        <ele>1964.099</ele>
        <time>2026-07-29T11:51:42.526Z</time>
      </trkpt>
      <trkpt lat="42.860407" lon="19.227321">
        <ele>1962.057</ele>
        <time>2026-07-29T11:52:09.526Z</time>
      </trkpt>
      <trkpt lat="42.860458" lon="19.227422">
        <ele>1959.047</ele>
        <time>2026-07-29T11:52:23.526Z</time>
      </trkpt>
      <trkpt lat="42.860552" lon="19.22744">
        <ele>1956.022</ele>
        <time>2026-07-29T11:53:08.526Z</time>
      </trkpt>
      <trkpt lat="42.860635" lon="19.227379">
        <ele>1954.062</ele>
        <time>2026-07-29T11:53:20.526Z</time>
      </trkpt>
      <trkpt lat="42.860725" lon="19.227377">
        <ele>1948.908</ele>
        <time>2026-07-29T11:53:35.526Z</time>
      </trkpt>
      <trkpt lat="42.860816" lon="19.227392">
        <ele>1947.008</ele>
        <time>2026-07-29T11:54:10.526Z</time>
      </trkpt>
      <trkpt lat="42.860914" lon="19.227422">
        <ele>1945.096</ele>
        <time>2026-07-29T11:54:24.526Z</time>
      </trkpt>
      <trkpt lat="42.861002" lon="19.227393">
        <ele>1946.031</ele>
        <time>2026-07-29T11:54:31.526Z</time>
      </trkpt>
      <trkpt lat="42.86109" lon="19.227461">
        <ele>1943.01</ele>
        <time>2026-07-29T11:54:44.526Z</time>
      </trkpt>
      <trkpt lat="42.861178" lon="19.227502">
        <ele>1944.031</ele>
        <time>2026-07-29T11:54:55.526Z</time>
      </trkpt>
      <trkpt lat="42.861272" lon="19.227497">
        <ele>1946.058</ele>
        <time>2026-07-29T11:55:12.526Z</time>
      </trkpt>
      <trkpt lat="42.861351" lon="19.227572">
        <ele>1948.017</ele>
        <time>2026-07-29T11:55:21.526Z</time>
      </trkpt>
      <trkpt lat="42.861415" lon="19.227678">
        <ele>1948.065</ele>
        <time>2026-07-29T11:55:31.526Z</time>
      </trkpt>
      <trkpt lat="42.8614401352" lon="19.22768916">
        <ele>1937.38</ele>
        <time>2026-07-29T11:55:32.526Z</time>
      </trkpt>
      <trkpt lat="42.8615472559" lon="19.2278113682">
        <ele>1936.47</ele>
        <time>2026-07-29T11:55:52.526Z</time>
      </trkpt>
      <trkpt lat="42.8616531193" lon="19.2279218417">
        <ele>1936.48</ele>
        <time>2026-07-29T11:56:08.526Z</time>
      </trkpt>
      <trkpt lat="42.8617888223" lon="19.2280101031">
        <ele>1938.08</ele>
        <time>2026-07-29T11:56:26.526Z</time>
      </trkpt>
      <trkpt lat="42.8618822806" lon="19.2280442175">
        <ele>1940.67</ele>
        <time>2026-07-29T11:56:40.526Z</time>
      </trkpt>
      <trkpt lat="42.8619477432" lon="19.2280185688">
        <ele>1943.36</ele>
        <time>2026-07-29T11:56:55.526Z</time>
      </trkpt>
      <trkpt lat="42.862014547" lon="19.2279903218">
        <ele>1943.39</ele>
        <time>2026-07-29T11:57:08.526Z</time>
      </trkpt>
      <trkpt lat="42.8621058259" lon="19.2280213349">
        <ele>1941.36</ele>
        <time>2026-07-29T11:57:20.526Z</time>
      </trkpt>
      <trkpt lat="42.8621233441" lon="19.2280258611">
        <ele>1940.63</ele>
        <time>2026-07-29T11:57:22.526Z</time>
      </trkpt>
      <trkpt lat="42.8622471448" lon="19.2280401941">
        <ele>1940.77</ele>
        <time>2026-07-29T11:57:37.526Z</time>
      </trkpt>
      <trkpt lat="42.8623710293" lon="19.2280448042">
        <ele>1939.38</ele>
        <time>2026-07-29T11:57:54.526Z</time>
      </trkpt>
      <trkpt lat="42.8624766413" lon="19.228052767">
        <ele>1939.53</ele>
        <time>2026-07-29T11:58:16.526Z</time>
      </trkpt>
      <trkpt lat="42.8626589477" lon="19.2280464806">
        <ele>1938.74</ele>
        <time>2026-07-29T11:58:36.526Z</time>
      </trkpt>
      <trkpt lat="42.8627828322" lon="19.2280023918">
        <ele>1939.3</ele>
        <time>2026-07-29T11:58:54.526Z</time>
      </trkpt>
      <trkpt lat="42.8628850076" lon="19.2279609852">
        <ele>1940.49</ele>
        <time>2026-07-29T11:59:08.526Z</time>
      </trkpt>
      <trkpt lat="42.8629775438" lon="19.2279355042">
        <ele>1941.1</ele>
        <time>2026-07-29T11:59:22.526Z</time>
      </trkpt>
      <trkpt lat="42.8631148394" lon="19.2279033177">
        <ele>1940.06</ele>
        <time>2026-07-29T11:59:40.526Z</time>
      </trkpt>
      <trkpt lat="42.8632334433" lon="19.2278761603">
        <ele>1939.47</ele>
        <time>2026-07-29T11:59:58.526Z</time>
      </trkpt>
      <trkpt lat="42.8633773606" lon="19.2278143857">
        <ele>1938.94</ele>
        <time>2026-07-29T12:00:19.526Z</time>
      </trkpt>
      <trkpt lat="42.8634769376" lon="19.2277791817">
        <ele>1938.75</ele>
        <time>2026-07-29T12:00:34.526Z</time>
      </trkpt>
      <trkpt lat="42.8635680489" lon="19.2277696263">
        <ele>1939.44</ele>
        <time>2026-07-29T12:00:49.526Z</time>
      </trkpt>
      <trkpt lat="42.8636577353" lon="19.227780439">
        <ele>1939.68</ele>
        <time>2026-07-29T12:01:03.526Z</time>
      </trkpt>
      <trkpt lat="42.8637913428" lon="19.2277806904">
        <ele>1938.68</ele>
        <time>2026-07-29T12:01:22.526Z</time>
      </trkpt>
      <trkpt lat="42.8638766706" lon="19.2277769186">
        <ele>1938.13</ele>
        <time>2026-07-29T12:01:37.526Z</time>
      </trkpt>
      <trkpt lat="42.8639816958" lon="19.2277684528">
        <ele>1937.51</ele>
        <time>2026-07-29T12:01:51.526Z</time>
      </trkpt>
      <trkpt lat="42.8640485834" lon="19.2277724762">
        <ele>1937.49</ele>
        <time>2026-07-29T12:02:07.526Z</time>
      </trkpt>
      <trkpt lat="42.8641377669" lon="19.2278166488">
        <ele>1937.84</ele>
        <time>2026-07-29T12:02:22.526Z</time>
      </trkpt>
      <trkpt lat="42.8642178141" lon="19.227860067">
        <ele>1938.8</ele>
        <time>2026-07-29T12:02:36.526Z</time>
      </trkpt>
      <trkpt lat="42.8642881382" lon="19.2278978694">
        <ele>1939.43</ele>
        <time>2026-07-29T12:02:50.526Z</time>
      </trkpt>
      <trkpt lat="42.8643471468" lon="19.2279192433">
        <ele>1938.36</ele>
        <time>2026-07-29T12:03:10.526Z</time>
      </trkpt>
      <trkpt lat="42.864409592" lon="19.2279317323">
        <ele>1937.58</ele>
        <time>2026-07-29T12:03:21.526Z</time>
      </trkpt>
      <trkpt lat="42.8644175548" lon="19.2279355042">
        <ele>1937.02</ele>
        <time>2026-07-29T12:03:36.526Z</time>
      </trkpt>
      <trkpt lat="42.864465" lon="19.227929">
        <ele>1944.124</ele>
        <time>2026-07-29T12:03:44.813Z</time>
      </trkpt>
      <trkpt lat="42.864558" lon="19.227922">
        <ele>1944.023</ele>
        <time>2026-07-29T12:03:51.813Z</time>
      </trkpt>
      <trkpt lat="42.864639" lon="19.227995">
        <ele>1942.084</ele>
        <time>2026-07-29T12:04:02.813Z</time>
      </trkpt>
      <trkpt lat="42.864712" lon="19.227922">
        <ele>1938.931</ele>
        <time>2026-07-29T12:04:13.813Z</time>
      </trkpt>
      <trkpt lat="42.86476" lon="19.227811">
        <ele>1935.03</ele>
        <time>2026-07-29T12:04:22.813Z</time>
      </trkpt>
      <trkpt lat="42.864786" lon="19.227677">
        <ele>1933.058</ele>
        <time>2026-07-29T12:04:34.813Z</time>
      </trkpt>
      <trkpt lat="42.864843" lon="19.227557">
        <ele>1929.068</ele>
        <time>2026-07-29T12:04:44.813Z</time>
      </trkpt>
      <trkpt lat="42.864933" lon="19.227525">
        <ele>1928.078</ele>
        <time>2026-07-29T12:04:54.813Z</time>
      </trkpt>
      <trkpt lat="42.865029" lon="19.227554">
        <ele>1930.033</ele>
        <time>2026-07-29T12:05:05.813Z</time>
      </trkpt>
      <trkpt lat="42.865121" lon="19.227561">
        <ele>1931.026</ele>
        <time>2026-07-29T12:05:15.813Z</time>
      </trkpt>
      <trkpt lat="42.86521" lon="19.227588">
        <ele>1932.708</ele>
        <time>2026-07-29T12:05:25.813Z</time>
      </trkpt>
      <trkpt lat="42.8653" lon="19.227526">
        <ele>1932.061</ele>
        <time>2026-07-29T12:05:32.813Z</time>
      </trkpt>
      <trkpt lat="42.865396" lon="19.227536">
        <ele>1932.046</ele>
        <time>2026-07-29T12:05:41.813Z</time>
      </trkpt>
      <trkpt lat="42.865493" lon="19.227542">
        <ele>1934.015</ele>
        <time>2026-07-29T12:05:51.813Z</time>
      </trkpt>
      <trkpt lat="42.865558" lon="19.227457">
        <ele>1938.076</ele>
        <time>2026-07-29T12:06:07.813Z</time>
      </trkpt>
      <trkpt lat="42.865591" lon="19.227334">
        <ele>1939.023</ele>
        <time>2026-07-29T12:06:17.813Z</time>
      </trkpt>
      <trkpt lat="42.865645" lon="19.227434">
        <ele>1942.012</ele>
        <time>2026-07-29T12:06:32.813Z</time>
      </trkpt>
      <trkpt lat="42.865719" lon="19.227506">
        <ele>1943.03</ele>
        <time>2026-07-29T12:06:42.813Z</time>
      </trkpt>
      <trkpt lat="42.865795" lon="19.227596">
        <ele>1944.02</ele>
        <time>2026-07-29T12:06:53.813Z</time>
      </trkpt>
      <trkpt lat="42.865823" lon="19.227478">
        <ele>1948.088</ele>
        <time>2026-07-29T12:07:10.813Z</time>
      </trkpt>
      <trkpt lat="42.865852" lon="19.227358">
        <ele>1950.024</ele>
        <time>2026-07-29T12:07:25.813Z</time>
      </trkpt>
      <trkpt lat="42.865925" lon="19.227437">
        <ele>1953.026</ele>
        <time>2026-07-29T12:07:45.813Z</time>
      </trkpt>
      <trkpt lat="42.866007" lon="19.22738">
        <ele>1956.008</ele>
        <time>2026-07-29T12:08:05.813Z</time>
      </trkpt>
      <trkpt lat="42.866099" lon="19.22737">
        <ele>1957.082</ele>
        <time>2026-07-29T12:08:31.813Z</time>
      </trkpt>
      <trkpt lat="42.866191" lon="19.227364">
        <ele>1956.047</ele>
        <time>2026-07-29T12:08:40.813Z</time>
      </trkpt>
      <trkpt lat="42.866285" lon="19.227337">
        <ele>1956.046</ele>
        <time>2026-07-29T12:08:47.813Z</time>
      </trkpt>
      <trkpt lat="42.866377" lon="19.227304">
        <ele>1957.017</ele>
        <time>2026-07-29T12:08:57.813Z</time>
      </trkpt>
      <trkpt lat="42.866466" lon="19.227286">
        <ele>1962.014</ele>
        <time>2026-07-29T12:09:10.813Z</time>
      </trkpt>
      <trkpt lat="42.866556" lon="19.2273">
        <ele>1964.073</ele>
        <time>2026-07-29T12:09:23.813Z</time>
      </trkpt>
      <trkpt lat="42.866648" lon="19.227275">
        <ele>1968.011</ele>
        <time>2026-07-29T12:09:42.813Z</time>
      </trkpt>
      <trkpt lat="42.866744" lon="19.227259">
        <ele>1970.021</ele>
        <time>2026-07-29T12:11:55.813Z</time>
      </trkpt>
      <trkpt lat="42.866835" lon="19.227286">
        <ele>1971.051</ele>
        <time>2026-07-29T12:12:05.813Z</time>
      </trkpt>
      <trkpt lat="42.866917" lon="19.227348">
        <ele>1972.001</ele>
        <time>2026-07-29T12:12:13.813Z</time>
      </trkpt>
      <trkpt lat="42.867021" lon="19.227333">
        <ele>1973.011</ele>
        <time>2026-07-29T12:12:26.813Z</time>
      </trkpt>
      <trkpt lat="42.867113" lon="19.227298">
        <ele>1974.008</ele>
        <time>2026-07-29T12:12:40.813Z</time>
      </trkpt>
      <trkpt lat="42.867197" lon="19.227239">
        <ele>1974.089</ele>
        <time>2026-07-29T12:12:55.813Z</time>
      </trkpt>
      <trkpt lat="42.867295" lon="19.227212">
        <ele>1973.024</ele>
        <time>2026-07-29T12:13:04.813Z</time>
      </trkpt>
      <trkpt lat="42.867391" lon="19.22721">
        <ele>1973.093</ele>
        <time>2026-07-29T12:13:13.813Z</time>
      </trkpt>
      <trkpt lat="42.867485" lon="19.227179">
        <ele>1973.014</ele>
        <time>2026-07-29T12:13:23.813Z</time>
      </trkpt>
      <trkpt lat="42.867565" lon="19.227118">
        <ele>1972.011</ele>
        <time>2026-07-29T12:13:30.813Z</time>
      </trkpt>
      <trkpt lat="42.867657" lon="19.227095">
        <ele>1971.03</ele>
        <time>2026-07-29T12:13:38.813Z</time>
      </trkpt>
      <trkpt lat="42.86774" lon="19.227144">
        <ele>1971.018</ele>
        <time>2026-07-29T12:13:47.813Z</time>
      </trkpt>
      <trkpt lat="42.867825" lon="19.227214">
        <ele>1971.058</ele>
        <time>2026-07-29T12:13:57.813Z</time>
      </trkpt>
      <trkpt lat="42.867909" lon="19.22727">
        <ele>1970.065</ele>
        <time>2026-07-29T12:14:09.813Z</time>
      </trkpt>
      <trkpt lat="42.867948" lon="19.227385">
        <ele>1969.068</ele>
        <time>2026-07-29T12:14:22.813Z</time>
      </trkpt>
      <trkpt lat="42.868018" lon="19.227489">
        <ele>1968.014</ele>
        <time>2026-07-29T12:14:33.813Z</time>
      </trkpt>
      <trkpt lat="42.868076" lon="19.227594">
        <ele>1968.008</ele>
        <time>2026-07-29T12:14:44.813Z</time>
      </trkpt>
      <trkpt lat="42.868147" lon="19.227673">
        <ele>1968.03</ele>
        <time>2026-07-29T12:14:54.813Z</time>
      </trkpt>
      <trkpt lat="42.868219" lon="19.227772">
        <ele>1968.055</ele>
        <time>2026-07-29T12:15:05.813Z</time>
      </trkpt>
      <trkpt lat="42.868284" lon="19.227863">
        <ele>1968.074</ele>
        <time>2026-07-29T12:15:17.813Z</time>
      </trkpt>
      <trkpt lat="42.868324" lon="19.227985">
        <ele>1969.095</ele>
        <time>2026-07-29T12:15:27.813Z</time>
      </trkpt>
      <trkpt lat="42.868357" lon="19.228102">
        <ele>1970.082</ele>
        <time>2026-07-29T12:15:40.813Z</time>
      </trkpt>
      <trkpt lat="42.868396" lon="19.228224">
        <ele>1970.051</ele>
        <time>2026-07-29T12:15:52.813Z</time>
      </trkpt>
      <trkpt lat="42.868461" lon="19.228312">
        <ele>1971.039</ele>
        <time>2026-07-29T12:16:04.813Z</time>
      </trkpt>
      <trkpt lat="42.868536" lon="19.228383">
        <ele>1971.029</ele>
        <time>2026-07-29T12:16:16.813Z</time>
      </trkpt>
      <trkpt lat="42.868573" lon="19.228495">
        <ele>1972.037</ele>
        <time>2026-07-29T12:16:27.813Z</time>
      </trkpt>
      <trkpt lat="42.868619" lon="19.228603">
        <ele>1973.049</ele>
        <time>2026-07-29T12:16:37.813Z</time>
      </trkpt>
      <trkpt lat="42.868687" lon="19.228694">
        <ele>1974.713</ele>
        <time>2026-07-29T12:16:49.813Z</time>
      </trkpt>
      <trkpt lat="42.868688" lon="19.22882">
        <ele>1977.008</ele>
        <time>2026-07-29T12:17:02.813Z</time>
      </trkpt>
      <trkpt lat="42.868739" lon="19.228927">
        <ele>1977.047</ele>
        <time>2026-07-29T12:17:30.813Z</time>
      </trkpt>
      <trkpt lat="42.868805" lon="19.229016">
        <ele>1977.022</ele>
        <time>2026-07-29T12:17:41.813Z</time>
      </trkpt>
      <trkpt lat="42.868869" lon="19.229115">
        <ele>1977.011</ele>
        <time>2026-07-29T12:17:53.813Z</time>
      </trkpt>
      <trkpt lat="42.868937" lon="19.229206">
        <ele>1977.032</ele>
        <time>2026-07-29T12:18:03.813Z</time>
      </trkpt>
      <trkpt lat="42.869019" lon="19.229282">
        <ele>1977.059</ele>
        <time>2026-07-29T12:18:13.813Z</time>
      </trkpt>
      <trkpt lat="42.869107" lon="19.229332">
        <ele>1977.018</ele>
        <time>2026-07-29T12:18:24.813Z</time>
      </trkpt>
      <trkpt lat="42.869202" lon="19.229351">
        <ele>1977.096</ele>
        <time>2026-07-29T12:18:34.813Z</time>
      </trkpt>
      <trkpt lat="42.869299" lon="19.229372">
        <ele>1977.056</ele>
        <time>2026-07-29T12:18:44.813Z</time>
      </trkpt>
      <trkpt lat="42.86939" lon="19.22935">
        <ele>1977.086</ele>
        <time>2026-07-29T12:18:54.813Z</time>
      </trkpt>
      <trkpt lat="42.869483" lon="19.229327">
        <ele>1977.06</ele>
        <time>2026-07-29T12:19:03.813Z</time>
      </trkpt>
      <trkpt lat="42.86958" lon="19.229332">
        <ele>1977.026</ele>
        <time>2026-07-29T12:20:17.813Z</time>
      </trkpt>
      <trkpt lat="42.869681" lon="19.229323">
        <ele>1976.008</ele>
        <time>2026-07-29T12:20:25.813Z</time>
      </trkpt>
      <trkpt lat="42.869772" lon="19.229332">
        <ele>1975.032</ele>
        <time>2026-07-29T12:20:34.813Z</time>
      </trkpt>
      <trkpt lat="42.869868" lon="19.229284">
        <ele>1975.017</ele>
        <time>2026-07-29T12:20:41.813Z</time>
      </trkpt>
      <trkpt lat="42.869961" lon="19.229252">
        <ele>1973.986</ele>
        <time>2026-07-29T12:20:47.813Z</time>
      </trkpt>
      <trkpt lat="42.870053" lon="19.229258">
        <ele>1972.017</ele>
        <time>2026-07-29T12:20:57.813Z</time>
      </trkpt>
      <trkpt lat="42.870149" lon="19.22927">
        <ele>1970.094</ele>
        <time>2026-07-29T12:21:05.813Z</time>
      </trkpt>
      <trkpt lat="42.870236" lon="19.229238">
        <ele>1970.093</ele>
        <time>2026-07-29T12:21:13.813Z</time>
      </trkpt>
      <trkpt lat="42.870327" lon="19.229244">
        <ele>1971.051</ele>
        <time>2026-07-29T12:21:24.813Z</time>
      </trkpt>
      <trkpt lat="42.870419" lon="19.229222">
        <ele>1971.051</ele>
        <time>2026-07-29T12:21:32.813Z</time>
      </trkpt>
      <trkpt lat="42.870515" lon="19.229252">
        <ele>1970.048</ele>
        <time>2026-07-29T12:21:44.813Z</time>
      </trkpt>
      <trkpt lat="42.870598" lon="19.229298">
        <ele>1970.061</ele>
        <time>2026-07-29T12:21:52.813Z</time>
      </trkpt>
      <trkpt lat="42.870695" lon="19.229327">
        <ele>1970.017</ele>
        <time>2026-07-29T12:22:01.813Z</time>
      </trkpt>
      <trkpt lat="42.870788" lon="19.229316">
        <ele>1969.008</ele>
        <time>2026-07-29T12:22:11.813Z</time>
      </trkpt>
      <trkpt lat="42.870873" lon="19.229401">
        <ele>1968.018</ele>
        <time>2026-07-29T12:22:21.813Z</time>
      </trkpt>
      <trkpt lat="42.870916" lon="19.229519">
        <ele>1967.053</ele>
        <time>2026-07-29T12:22:30.813Z</time>
      </trkpt>
      <trkpt lat="42.870996" lon="19.229594">
        <ele>1968.092</ele>
        <time>2026-07-29T12:22:40.813Z</time>
      </trkpt>
      <trkpt lat="42.871071" lon="19.229671">
        <ele>1969.093</ele>
        <time>2026-07-29T12:22:50.813Z</time>
      </trkpt>
      <trkpt lat="42.871136" lon="19.229761">
        <ele>1969.05</ele>
        <time>2026-07-29T12:23:04.813Z</time>
      </trkpt>
      <trkpt lat="42.871186" lon="19.229865">
        <ele>1968.039</ele>
        <time>2026-07-29T12:23:14.813Z</time>
      </trkpt>
      <trkpt lat="42.871266" lon="19.229927">
        <ele>1969.767</ele>
        <time>2026-07-29T12:23:22.813Z</time>
      </trkpt>
      <trkpt lat="42.871349" lon="19.230008">
        <ele>1970.077</ele>
        <time>2026-07-29T12:23:32.813Z</time>
      </trkpt>
      <trkpt lat="42.871431" lon="19.230062">
        <ele>1970.056</ele>
        <time>2026-07-29T12:23:40.813Z</time>
      </trkpt>
      <trkpt lat="42.871517" lon="19.2301">
        <ele>1969.059</ele>
        <time>2026-07-29T12:23:50.813Z</time>
      </trkpt>
      <trkpt lat="42.87161" lon="19.23012">
        <ele>1968.014</ele>
        <time>2026-07-29T12:24:59.813Z</time>
      </trkpt>
      <trkpt lat="42.8716391511" lon="19.230323676">
        <ele>1954.26</ele>
        <time>2026-07-29T12:25:00.813Z</time>
      </trkpt>
      <trkpt lat="42.8716372233" lon="19.2303354945">
        <ele>1955.18</ele>
        <time>2026-07-29T12:25:24.813Z</time>
      </trkpt>
      <trkpt lat="42.871650802" lon="19.2303688545">
        <ele>1955.74</ele>
        <time>2026-07-29T12:25:54.813Z</time>
      </trkpt>
      <trkpt lat="42.8717023507" lon="19.2305451259">
        <ele>1956.66</ele>
        <time>2026-07-29T12:26:13.813Z</time>
      </trkpt>
      <trkpt lat="42.8717357107" lon="19.2307342216">
        <ele>1956.03</ele>
        <time>2026-07-29T12:26:30.813Z</time>
      </trkpt>
      <trkpt lat="42.871777704" lon="19.2309236526">
        <ele>1956.63</ele>
        <time>2026-07-29T12:26:46.813Z</time>
      </trkpt>
      <trkpt lat="42.8718137462" lon="19.2309997603">
        <ele>1957.26</ele>
        <time>2026-07-29T12:26:54.813Z</time>
      </trkpt>
      <trkpt lat="42.8719210345" lon="19.231090704">
        <ele>1959.51</ele>
        <time>2026-07-29T12:27:11.813Z</time>
      </trkpt>
      <trkpt lat="42.8720026743" lon="19.2311904486">
        <ele>1961.86</ele>
        <time>2026-07-29T12:27:26.813Z</time>
      </trkpt>
      <trkpt lat="42.8721040115" lon="19.2313678935">
        <ele>1963.92</ele>
        <time>2026-07-29T12:27:45.813Z</time>
      </trkpt>
      <trkpt lat="42.8721942008" lon="19.2315177619">
        <ele>1966.13</ele>
        <time>2026-07-29T12:28:02.813Z</time>
      </trkpt>
      <trkpt lat="42.8722528741" lon="19.2317050137">
        <ele>1967.73</ele>
        <time>2026-07-29T12:28:20.813Z</time>
      </trkpt>
      <trkpt lat="42.8723650239" lon="19.2317829654">
        <ele>1969.05</ele>
        <time>2026-07-29T12:28:35.813Z</time>
      </trkpt>
      <trkpt lat="42.8725221008" lon="19.2317865696">
        <ele>1970.99</ele>
        <time>2026-07-29T12:28:53.813Z</time>
      </trkpt>
      <trkpt lat="42.8726261202" lon="19.2318608332">
        <ele>1970.61</ele>
        <time>2026-07-29T12:53:59.813Z</time>
      </trkpt>
      <trkpt lat="42.8725870606" lon="19.2319695465">
        <ele>1971.47</ele>
        <time>2026-07-29T12:54:15.813Z</time>
      </trkpt>
      <trkpt lat="42.8725721408" lon="19.2320070136">
        <ele>1971.11</ele>
        <time>2026-07-29T12:54:31.813Z</time>
      </trkpt>
      <trkpt lat="42.8725519404" lon="19.2320592329">
        <ele>1970.95</ele>
        <time>2026-07-29T12:54:54.813Z</time>
      </trkpt>
      <trkpt lat="42.8725231905" lon="19.2321937624">
        <ele>1968.69</ele>
        <time>2026-07-29T12:55:13.813Z</time>
      </trkpt>
      <trkpt lat="42.8725189995" lon="19.2322957702">
        <ele>1966.4</ele>
        <time>2026-07-29T12:55:26.813Z</time>
      </trkpt>
      <trkpt lat="42.8725283872" lon="19.2324388493">
        <ele>1963.21</ele>
        <time>2026-07-29T12:55:41.813Z</time>
      </trkpt>
      <trkpt lat="42.8725268785" lon="19.2325608898">
        <ele>1960.21</ele>
        <time>2026-07-29T12:55:55.813Z</time>
      </trkpt>
      <trkpt lat="42.8725249507" lon="19.2326064873">
        <ele>1958.41</ele>
        <time>2026-07-29T12:56:15.813Z</time>
      </trkpt>
      <trkpt lat="42.8725312371" lon="19.2327679228">
        <ele>1955.33</ele>
        <time>2026-07-29T12:56:35.813Z</time>
      </trkpt>
      <trkpt lat="42.872560909" lon="19.2329645623">
        <ele>1952.17</ele>
        <time>2026-07-29T12:56:52.813Z</time>
      </trkpt>
      <trkpt lat="42.8725575563" lon="19.2331293505">
        <ele>1949.19</ele>
        <time>2026-07-29T12:57:10.813Z</time>
      </trkpt>
      <trkpt lat="42.8725615796" lon="19.2331668176">
        <ele>1948.84</ele>
        <time>2026-07-29T12:57:13.813Z</time>
      </trkpt>
      <trkpt lat="42.8725787625" lon="19.2333192006">
        <ele>1947.61</ele>
        <time>2026-07-29T12:57:30.813Z</time>
      </trkpt>
      <trkpt lat="42.8725755773" lon="19.233329678">
        <ele>1947.33</ele>
        <time>2026-07-29T12:57:55.813Z</time>
      </trkpt>
      <trkpt lat="42.8725603223" lon="19.2336150818">
        <ele>1947.72</ele>
        <time>2026-07-29T12:58:19.813Z</time>
      </trkpt>
      <trkpt lat="42.8725577239" lon="19.233685825">
        <ele>1947.44</ele>
        <time>2026-07-29T12:58:25.813Z</time>
      </trkpt>
      <trkpt lat="42.8725117911" lon="19.2338954564">
        <ele>1946.04</ele>
        <time>2026-07-29T12:58:44.813Z</time>
      </trkpt>
      <trkpt lat="42.8724694625" lon="19.2340572271">
        <ele>1944.3</ele>
        <time>2026-07-29T12:59:03.813Z</time>
      </trkpt>
      <trkpt lat="42.8724214341" lon="19.2342703789">
        <ele>1942.01</ele>
        <time>2026-07-29T12:59:25.813Z</time>
      </trkpt>
      <trkpt lat="42.8723778483" lon="19.2344479915">
        <ele>1940.45</ele>
        <time>2026-07-29T12:59:47.813Z</time>
      </trkpt>
      <trkpt lat="42.8723731544" lon="19.2345152143">
        <ele>1940.36</ele>
        <time>2026-07-29T13:00:11.813Z</time>
      </trkpt>
      <trkpt lat="42.8723588213" lon="19.2345754802">
        <ele>1939.91</ele>
        <time>2026-07-29T13:00:24.813Z</time>
      </trkpt>
      <trkpt lat="42.8723612521" lon="19.2346229218">
        <ele>1938.76</ele>
        <time>2026-07-29T13:00:39.813Z</time>
      </trkpt>
      <trkpt lat="42.8723540436" lon="19.2346375901">
        <ele>1938.08</ele>
        <time>2026-07-29T13:01:05.813Z</time>
      </trkpt>
      <trkpt lat="42.8723288979" lon="19.234702969">
        <ele>1937.99</ele>
        <time>2026-07-29T13:01:26.813Z</time>
      </trkpt>
      <trkpt lat="42.8723212704" lon="19.2347791605">
        <ele>1937.18</ele>
        <time>2026-07-29T13:01:42.813Z</time>
      </trkpt>
      <trkpt lat="42.8723029979" lon="19.2348623928">
        <ele>1937.44</ele>
        <time>2026-07-29T13:01:50.813Z</time>
      </trkpt>
      <trkpt lat="42.8722792771" lon="19.234953085">
        <ele>1936.64</ele>
        <time>2026-07-29T13:01:58.813Z</time>
      </trkpt>
      <trkpt lat="42.8722659498" lon="19.2350021191">
        <ele>1936.3</ele>
        <time>2026-07-29T13:02:03.813Z</time>
      </trkpt>
      <trkpt lat="42.872249689" lon="19.2350292765">
        <ele>1935.86</ele>
        <time>2026-07-29T13:02:09.813Z</time>
      </trkpt>
      <trkpt lat="42.8721936978" lon="19.2352342978">
        <ele>1932.91</ele>
        <time>2026-07-29T13:02:30.813Z</time>
      </trkpt>
      <trkpt lat="42.8721425682" lon="19.2354477011">
        <ele>1929.83</ele>
        <time>2026-07-29T13:02:51.813Z</time>
      </trkpt>
      <trkpt lat="42.8721449152" lon="19.2356097233">
        <ele>1927.26</ele>
        <time>2026-07-29T13:03:09.813Z</time>
      </trkpt>
      <trkpt lat="42.8721495252" lon="19.2356145848">
        <ele>1927.48</ele>
        <time>2026-07-29T13:03:28.813Z</time>
      </trkpt>
      <trkpt lat="42.8721530456" lon="19.2356222961">
        <ele>1929.03</ele>
        <time>2026-07-29T13:03:51.813Z</time>
      </trkpt>
      <trkpt lat="42.8721666243" lon="19.2355953064">
        <ele>1929.32</ele>
        <time>2026-07-29T13:22:47.813Z</time>
      </trkpt>
      <trkpt lat="42.8726971149" lon="19.2351441924">
        <ele>1916.95</ele>
        <time>2026-07-29T13:25:01.813Z</time>
      </trkpt>
      <trkpt lat="42.8728201613" lon="19.2350593675">
        <ele>1914.26</ele>
        <time>2026-07-29T13:25:21.813Z</time>
      </trkpt>
      <trkpt lat="42.872839272" lon="19.2350643128">
        <ele>1911.28</ele>
        <time>2026-07-29T13:25:40.813Z</time>
      </trkpt>
      <trkpt lat="42.8728531022" lon="19.2350408435">
        <ele>1910.67</ele>
        <time>2026-07-29T13:26:05.813Z</time>
      </trkpt>
      <trkpt lat="42.8729383461" lon="19.2348693497">
        <ele>1909.95</ele>
        <time>2026-07-29T13:26:25.813Z</time>
      </trkpt>
      <trkpt lat="42.873003725" lon="19.234803468">
        <ele>1909.82</ele>
        <time>2026-07-29T13:26:40.813Z</time>
      </trkpt>
      <trkpt lat="42.8730509989" lon="19.2347649112">
        <ele>1908.99</ele>
        <time>2026-07-29T13:26:56.813Z</time>
      </trkpt>
      <trkpt lat="42.8731232509" lon="19.2346948385">
        <ele>1907.44</ele>
        <time>2026-07-29T13:27:13.813Z</time>
      </trkpt>
      <trkpt lat="42.8731785715" lon="19.2346397694">
        <ele>1902.1</ele>
        <time>2026-07-29T13:32:10.813Z</time>
      </trkpt>
      <trkpt lat="42.8731806669" lon="19.234639015">
        <ele>1901.41</ele>
        <time>2026-07-29T13:32:37.813Z</time>
      </trkpt>
      <trkpt lat="42.8731851932" lon="19.2346367519">
        <ele>1901.47</ele>
        <time>2026-07-29T13:33:01.813Z</time>
      </trkpt>
      <trkpt lat="42.8732307907" lon="19.2345360015">
        <ele>1901.9</ele>
        <time>2026-07-29T13:33:13.813Z</time>
      </trkpt>
      <trkpt lat="42.8732509911" lon="19.2344992049">
        <ele>1902.12</ele>
        <time>2026-07-29T13:33:27.813Z</time>
      </trkpt>
      <trkpt lat="42.8732519131" lon="19.234380601">
        <ele>1900.76</ele>
        <time>2026-07-29T13:33:42.813Z</time>
      </trkpt>
      <trkpt lat="42.873293655" lon="19.234314803">
        <ele>1897.66</ele>
        <time>2026-07-29T13:33:59.813Z</time>
      </trkpt>
      <trkpt lat="42.8733393364" lon="19.2342402041">
        <ele>1895.09</ele>
        <time>2026-07-29T13:34:18.813Z</time>
      </trkpt>
      <trkpt lat="42.8734037932" lon="19.2341973726">
        <ele>1894.3</ele>
        <time>2026-07-29T13:34:35.813Z</time>
      </trkpt>
      <trkpt lat="42.8734285198" lon="19.2341515236">
        <ele>1892.59</ele>
        <time>2026-07-29T13:34:49.813Z</time>
      </trkpt>
      <trkpt lat="42.8734729439" lon="19.2340254597">
        <ele>1889.86</ele>
        <time>2026-07-29T13:35:07.813Z</time>
      </trkpt>
      <trkpt lat="42.8735278454" lon="19.2339786887">
        <ele>1888.05</ele>
        <time>2026-07-29T13:35:25.813Z</time>
      </trkpt>
      <trkpt lat="42.8735820763" lon="19.2338852305">
        <ele>1885.32</ele>
        <time>2026-07-29T13:35:44.813Z</time>
      </trkpt>
      <trkpt lat="42.8736731876" lon="19.2337898444">
        <ele>1882.65</ele>
        <time>2026-07-29T13:36:01.813Z</time>
      </trkpt>
      <trkpt lat="42.8737751115" lon="19.2337523773">
        <ele>1882.21</ele>
        <time>2026-07-29T13:36:17.813Z</time>
      </trkpt>
      <trkpt lat="42.8738295101" lon="19.2337310873">
        <ele>1879.87</ele>
        <time>2026-07-29T13:36:38.813Z</time>
      </trkpt>
      <trkpt lat="42.8738541529" lon="19.2337047681">
        <ele>1878.73</ele>
        <time>2026-07-29T13:36:56.813Z</time>
      </trkpt>
      <trkpt lat="42.8738733474" lon="19.2336916085">
        <ele>1878.13</ele>
        <time>2026-07-29T13:37:13.813Z</time>
      </trkpt>
      <trkpt lat="42.8739350382" lon="19.2336400598">
        <ele>1877.13</ele>
        <time>2026-07-29T13:37:28.813Z</time>
      </trkpt>
      <trkpt lat="42.874052" lon="19.233536">
        <ele>1889</ele>
        <time>2026-07-29T13:37:29.813Z</time>
      </trkpt>
      <trkpt lat="42.874178" lon="19.23339">
        <ele>1887</ele>
        <time>2026-07-29T13:40:53.813Z</time>
      </trkpt>
      <trkpt lat="42.87427" lon="19.233368">
        <ele>1885</ele>
        <time>2026-07-29T13:41:10.813Z</time>
      </trkpt>
      <trkpt lat="42.874349" lon="19.233296">
        <ele>1885</ele>
        <time>2026-07-29T13:41:27.813Z</time>
      </trkpt>
      <trkpt lat="42.874426" lon="19.233232">
        <ele>1882</ele>
        <time>2026-07-29T13:41:42.813Z</time>
      </trkpt>
      <trkpt lat="42.874451" lon="19.233111">
        <ele>1881</ele>
        <time>2026-07-29T13:42:21.813Z</time>
      </trkpt>
      <trkpt lat="42.874459" lon="19.232967">
        <ele>1879</ele>
        <time>2026-07-29T13:42:51.813Z</time>
      </trkpt>
      <trkpt lat="42.874502" lon="19.232854">
        <ele>1878</ele>
        <time>2026-07-29T13:43:15.813Z</time>
      </trkpt>
      <trkpt lat="42.874562" lon="19.232754">
        <ele>1879</ele>
        <time>2026-07-29T13:43:34.813Z</time>
      </trkpt>
      <trkpt lat="42.874626" lon="19.232663">
        <ele>1879</ele>
        <time>2026-07-29T13:43:49.813Z</time>
      </trkpt>
      <trkpt lat="42.874707" lon="19.232589">
        <ele>1876</ele>
        <time>2026-07-29T13:44:01.813Z</time>
      </trkpt>
      <trkpt lat="42.874785" lon="19.232516">
        <ele>1875</ele>
        <time>2026-07-29T13:44:18.813Z</time>
      </trkpt>
      <trkpt lat="42.87487" lon="19.232465">
        <ele>1870</ele>
        <time>2026-07-29T13:44:33.813Z</time>
      </trkpt>
      <trkpt lat="42.874921" lon="19.232357">
        <ele>1868</ele>
        <time>2026-07-29T13:45:13.813Z</time>
      </trkpt>
      <trkpt lat="42.874994" lon="19.232281">
        <ele>1869</ele>
        <time>2026-07-29T13:45:24.813Z</time>
      </trkpt>
      <trkpt lat="42.875066" lon="19.232196">
        <ele>1868</ele>
        <time>2026-07-29T13:45:36.813Z</time>
      </trkpt>
      <trkpt lat="42.875147" lon="19.232141">
        <ele>1867</ele>
        <time>2026-07-29T13:45:49.813Z</time>
      </trkpt>
      <trkpt lat="42.87523" lon="19.232202">
        <ele>1864</ele>
        <time>2026-07-29T13:46:12.813Z</time>
      </trkpt>
      <trkpt lat="42.875228" lon="19.232078">
        <ele>1861</ele>
        <time>2026-07-29T13:46:41.813Z</time>
      </trkpt>
      <trkpt lat="42.875318" lon="19.232107">
        <ele>1858</ele>
        <time>2026-07-29T13:47:02.813Z</time>
      </trkpt>
      <trkpt lat="42.875347" lon="19.232226">
        <ele>1856</ele>
        <time>2026-07-29T13:47:20.813Z</time>
      </trkpt>
      <trkpt lat="42.875378" lon="19.232341">
        <ele>1855</ele>
        <time>2026-07-29T13:47:32.813Z</time>
      </trkpt>
      <trkpt lat="42.875374" lon="19.232481">
        <ele>1855</ele>
        <time>2026-07-29T13:47:56.813Z</time>
      </trkpt>
      <trkpt lat="42.875364" lon="19.232605">
        <ele>1854</ele>
        <time>2026-07-29T13:48:12.813Z</time>
      </trkpt>
      <trkpt lat="42.875321" lon="19.232726">
        <ele>1852</ele>
        <time>2026-07-29T13:48:24.813Z</time>
      </trkpt>
      <trkpt lat="42.875252" lon="19.232809">
        <ele>1852</ele>
        <time>2026-07-29T13:48:35.813Z</time>
      </trkpt>
      <trkpt lat="42.875237" lon="19.232935">
        <ele>1850</ele>
        <time>2026-07-29T13:48:50.813Z</time>
      </trkpt>
      <trkpt lat="42.875306" lon="19.233028">
        <ele>1851</ele>
        <time>2026-07-29T13:48:59.813Z</time>
      </trkpt>
      <trkpt lat="42.875306" lon="19.233155">
        <ele>1850</ele>
        <time>2026-07-29T13:49:12.813Z</time>
      </trkpt>
      <trkpt lat="42.875306" lon="19.233288">
        <ele>1847</ele>
        <time>2026-07-29T13:49:34.813Z</time>
      </trkpt>
      <trkpt lat="42.875282" lon="19.233411">
        <ele>1848</ele>
        <time>2026-07-29T13:49:49.813Z</time>
      </trkpt>
      <trkpt lat="42.87529" lon="19.233539">
        <ele>1848</ele>
        <time>2026-07-29T13:50:05.813Z</time>
      </trkpt>
      <trkpt lat="42.875234" lon="19.233646">
        <ele>1845</ele>
        <time>2026-07-29T13:50:18.813Z</time>
      </trkpt>
      <trkpt lat="42.875202" lon="19.233764">
        <ele>1845</ele>
        <time>2026-07-29T13:50:30.813Z</time>
      </trkpt>
      <trkpt lat="42.875182" lon="19.233892">
        <ele>1842</ele>
        <time>2026-07-29T13:50:46.813Z</time>
      </trkpt>
      <trkpt lat="42.875159" lon="19.234011">
        <ele>1843</ele>
        <time>2026-07-29T13:50:57.813Z</time>
      </trkpt>
      <trkpt lat="42.875094" lon="19.234102">
        <ele>1836</ele>
        <time>2026-07-29T13:51:17.813Z</time>
      </trkpt>
      <trkpt lat="42.875045" lon="19.234205">
        <ele>1835</ele>
        <time>2026-07-29T13:51:30.813Z</time>
      </trkpt>
      <trkpt lat="42.875074" lon="19.234326">
        <ele>1831</ele>
        <time>2026-07-29T13:52:03.813Z</time>
      </trkpt>
      <trkpt lat="42.87507" lon="19.234449">
        <ele>1831</ele>
        <time>2026-07-29T13:52:17.813Z</time>
      </trkpt>
      <trkpt lat="42.875057" lon="19.234574">
        <ele>1827</ele>
        <time>2026-07-29T13:52:37.813Z</time>
      </trkpt>
      <trkpt lat="42.875024" lon="19.234692">
        <ele>1825</ele>
        <time>2026-07-29T13:52:52.813Z</time>
      </trkpt>
      <trkpt lat="42.874985" lon="19.234805">
        <ele>1824</ele>
        <time>2026-07-29T13:53:07.813Z</time>
      </trkpt>
      <trkpt lat="42.875004" lon="19.23493">
        <ele>1822</ele>
        <time>2026-07-29T13:53:22.813Z</time>
      </trkpt>
      <trkpt lat="42.874965" lon="19.235046">
        <ele>1817</ele>
        <time>2026-07-29T13:53:41.813Z</time>
      </trkpt>
      <trkpt lat="42.874937" lon="19.235168">
        <ele>1818</ele>
        <time>2026-07-29T13:53:54.813Z</time>
      </trkpt>
      <trkpt lat="42.874923" lon="19.235296">
        <ele>1816</ele>
        <time>2026-07-29T13:54:10.813Z</time>
      </trkpt>
      <trkpt lat="42.874837" lon="19.235344">
        <ele>1808</ele>
        <time>2026-07-29T13:54:32.813Z</time>
      </trkpt>
      <trkpt lat="42.874822" lon="19.235471">
        <ele>1808</ele>
        <time>2026-07-29T13:54:50.813Z</time>
      </trkpt>
      <trkpt lat="42.874838" lon="19.2356">
        <ele>1803</ele>
        <time>2026-07-29T13:55:05.813Z</time>
      </trkpt>
      <trkpt lat="42.874854" lon="19.235725">
        <ele>1802</ele>
        <time>2026-07-29T13:55:18.813Z</time>
      </trkpt>
      <trkpt lat="42.874874" lon="19.235844">
        <ele>1799</ele>
        <time>2026-07-29T13:55:31.813Z</time>
      </trkpt>
      <trkpt lat="42.87492" lon="19.235961">
        <ele>1796</ele>
        <time>2026-07-29T13:55:46.813Z</time>
      </trkpt>
      <trkpt lat="42.874968" lon="19.236079">
        <ele>1796</ele>
        <time>2026-07-29T13:55:57.813Z</time>
      </trkpt>
      <trkpt lat="42.875021" lon="19.236187">
        <ele>1793</ele>
        <time>2026-07-29T13:56:09.813Z</time>
      </trkpt>
      <trkpt lat="42.875066" lon="19.236295">
        <ele>1793</ele>
        <time>2026-07-29T13:56:20.813Z</time>
      </trkpt>
      <trkpt lat="42.875164" lon="19.236323">
        <ele>1792</ele>
        <time>2026-07-29T13:56:31.813Z</time>
      </trkpt>
      <trkpt lat="42.875251" lon="19.236383">
        <ele>1788</ele>
        <time>2026-07-29T13:56:42.813Z</time>
      </trkpt>
      <trkpt lat="42.875342" lon="19.23643">
        <ele>1786</ele>
        <time>2026-07-29T13:56:53.813Z</time>
      </trkpt>
      <trkpt lat="42.875434" lon="19.236433">
        <ele>1785</ele>
        <time>2026-07-29T13:57:02.813Z</time>
      </trkpt>
      <trkpt lat="42.875523" lon="19.236405">
        <ele>1787</ele>
        <time>2026-07-29T13:57:16.813Z</time>
      </trkpt>
      <trkpt lat="42.875619" lon="19.236394">
        <ele>1785</ele>
        <time>2026-07-29T13:58:08.813Z</time>
      </trkpt>
      <trkpt lat="42.875709" lon="19.236335">
        <ele>1785</ele>
        <time>2026-07-29T13:58:18.813Z</time>
      </trkpt>
      <trkpt lat="42.875802" lon="19.236328">
        <ele>1783</ele>
        <time>2026-07-29T13:58:30.813Z</time>
      </trkpt>
      <trkpt lat="42.875894" lon="19.23632">
        <ele>1783</ele>
        <time>2026-07-29T13:58:43.813Z</time>
      </trkpt>
      <trkpt lat="42.875987" lon="19.236348">
        <ele>1779</ele>
        <time>2026-07-29T13:58:56.813Z</time>
      </trkpt>
      <trkpt lat="42.876079" lon="19.236371">
        <ele>1776</ele>
        <time>2026-07-29T13:59:06.813Z</time>
      </trkpt>
      <trkpt lat="42.87617" lon="19.236414">
        <ele>1773</ele>
        <time>2026-07-29T13:59:16.813Z</time>
      </trkpt>
      <trkpt lat="42.876258" lon="19.236462">
        <ele>1774</ele>
        <time>2026-07-29T13:59:28.813Z</time>
      </trkpt>
      <trkpt lat="42.8763528" lon="19.236364">
        <ele>1769.1</ele>
        <time>2026-07-29T13:59:29.813Z</time>
      </trkpt>
      <trkpt lat="42.8763446" lon="19.2364908">
        <ele>1768.8</ele>
        <time>2026-07-29T13:59:40.813Z</time>
      </trkpt>
      <trkpt lat="42.8763194" lon="19.2367397">
        <ele>1765.5</ele>
        <time>2026-07-29T13:59:59.813Z</time>
      </trkpt>
      <trkpt lat="42.8763215" lon="19.2367872">
        <ele>1764.7</ele>
        <time>2026-07-29T14:00:03.813Z</time>
      </trkpt>
      <trkpt lat="42.8763179" lon="19.236827">
        <ele>1764.2</ele>
        <time>2026-07-29T14:00:06.813Z</time>
      </trkpt>
      <trkpt lat="42.8762533" lon="19.2370702">
        <ele>1762</ele>
        <time>2026-07-29T14:00:26.813Z</time>
      </trkpt>
      <trkpt lat="42.8762443" lon="19.237086">
        <ele>1761.7</ele>
        <time>2026-07-29T14:00:41.813Z</time>
      </trkpt>
      <trkpt lat="42.876224" lon="19.237193">
        <ele>1761.1</ele>
        <time>2026-07-29T14:01:09.813Z</time>
      </trkpt>
      <trkpt lat="42.8761562" lon="19.2373624">
        <ele>1761</ele>
        <time>2026-07-29T14:01:26.813Z</time>
      </trkpt>
      <trkpt lat="42.8762329" lon="19.2374635">
        <ele>1760</ele>
        <time>2026-07-29T14:01:41.813Z</time>
      </trkpt>
      <trkpt lat="42.8762972" lon="19.2375264">
        <ele>1758.3</ele>
        <time>2026-07-29T14:01:58.813Z</time>
      </trkpt>
      <trkpt lat="42.8763354" lon="19.2373728">
        <ele>1755.8</ele>
        <time>2026-07-29T14:02:19.813Z</time>
      </trkpt>
      <trkpt lat="42.8763638" lon="19.2372915">
        <ele>1754.8</ele>
        <time>2026-07-29T14:02:28.813Z</time>
      </trkpt>
      <trkpt lat="42.876438" lon="19.2370833">
        <ele>1752.3</ele>
        <time>2026-07-29T14:02:46.813Z</time>
      </trkpt>
      <trkpt lat="42.8764806" lon="19.2371578">
        <ele>1750.6</ele>
        <time>2026-07-29T14:03:05.813Z</time>
      </trkpt>
      <trkpt lat="42.8765032" lon="19.2372943">
        <ele>1748.1</ele>
        <time>2026-07-29T14:03:23.813Z</time>
      </trkpt>
      <trkpt lat="42.8765301" lon="19.2374293">
        <ele>1746.8</ele>
        <time>2026-07-29T14:03:41.813Z</time>
      </trkpt>
      <trkpt lat="42.8765965" lon="19.2375654">
        <ele>1744.8</ele>
        <time>2026-07-29T14:03:59.813Z</time>
      </trkpt>
      <trkpt lat="42.8766602" lon="19.2376103">
        <ele>1741.7</ele>
        <time>2026-07-29T14:04:14.813Z</time>
      </trkpt>
      <trkpt lat="42.8766907" lon="19.2377293">
        <ele>1741.9</ele>
        <time>2026-07-29T14:04:32.813Z</time>
      </trkpt>
      <trkpt lat="42.8766975" lon="19.2377838">
        <ele>1738.7</ele>
        <time>2026-07-29T14:04:54.813Z</time>
      </trkpt>
      <trkpt lat="42.8766902" lon="19.2379132">
        <ele>1737.2</ele>
        <time>2026-07-29T14:05:09.813Z</time>
      </trkpt>
      <trkpt lat="42.8766672" lon="19.2380103">
        <ele>1735.4</ele>
        <time>2026-07-29T14:05:21.813Z</time>
      </trkpt>
      <trkpt lat="42.876658" lon="19.2380392">
        <ele>1735</ele>
        <time>2026-07-29T14:05:23.813Z</time>
      </trkpt>
      <trkpt lat="42.8765918" lon="19.2382968">
        <ele>1732</ele>
        <time>2026-07-29T14:05:42.813Z</time>
      </trkpt>
      <trkpt lat="42.8765865" lon="19.2383207">
        <ele>1731.8</ele>
        <time>2026-07-29T14:05:44.813Z</time>
      </trkpt>
      <trkpt lat="42.876582" lon="19.2383615">
        <ele>1731.5</ele>
        <time>2026-07-29T14:05:47.813Z</time>
      </trkpt>
      <trkpt lat="42.8765231" lon="19.2385881">
        <ele>1729.8</ele>
        <time>2026-07-29T14:06:05.813Z</time>
      </trkpt>
      <trkpt lat="42.8764333" lon="19.2387939">
        <ele>1726.7</ele>
        <time>2026-07-29T14:06:25.813Z</time>
      </trkpt>
      <trkpt lat="42.8763389" lon="19.2389656">
        <ele>1724</ele>
        <time>2026-07-29T14:06:44.813Z</time>
      </trkpt>
      <trkpt lat="42.8762941" lon="19.2391133">
        <ele>1721.1</ele>
        <time>2026-07-29T14:07:01.813Z</time>
      </trkpt>
      <trkpt lat="42.8762636" lon="19.2392034">
        <ele>1719.6</ele>
        <time>2026-07-29T14:07:16.813Z</time>
      </trkpt>
      <trkpt lat="42.8761996" lon="19.2392009">
        <ele>1718.4</ele>
        <time>2026-07-29T14:07:32.813Z</time>
      </trkpt>
      <trkpt lat="42.8761807" lon="19.2392861">
        <ele>1716.7</ele>
        <time>2026-07-29T14:07:48.813Z</time>
      </trkpt>
      <trkpt lat="42.8761579" lon="19.2393882">
        <ele>1714.3</ele>
        <time>2026-07-29T14:08:06.813Z</time>
      </trkpt>
      <trkpt lat="42.87615" lon="19.2394025">
        <ele>1714.1</ele>
        <time>2026-07-29T14:08:08.813Z</time>
      </trkpt>
      <trkpt lat="42.8760567" lon="19.2395081">
        <ele>1711.3</ele>
        <time>2026-07-29T14:08:27.813Z</time>
      </trkpt>
      <trkpt lat="42.8760092" lon="19.2395687">
        <ele>1708.9</ele>
        <time>2026-07-29T14:08:46.813Z</time>
      </trkpt>
      <trkpt lat="42.8759643" lon="19.2395964">
        <ele>1707.5</ele>
        <time>2026-07-29T14:09:00.813Z</time>
      </trkpt>
      <trkpt lat="42.8759318" lon="19.2396805">
        <ele>1704.9</ele>
        <time>2026-07-29T14:09:17.813Z</time>
      </trkpt>
      <trkpt lat="42.8758837" lon="19.2397242">
        <ele>1702.3</ele>
        <time>2026-07-29T14:09:36.813Z</time>
      </trkpt>
      <trkpt lat="42.8758849" lon="19.2397264">
        <ele>1700.6</ele>
        <time>2026-07-29T14:10:15.813Z</time>
      </trkpt>
      <trkpt lat="42.8758405" lon="19.2398218">
        <ele>1699.3</ele>
        <time>2026-07-29T14:10:35.813Z</time>
      </trkpt>
      <trkpt lat="42.8757902" lon="19.2399195">
        <ele>1696.7</ele>
        <time>2026-07-29T14:10:52.813Z</time>
      </trkpt>
      <trkpt lat="42.8757861" lon="19.2399672">
        <ele>1695</ele>
        <time>2026-07-29T14:11:12.813Z</time>
      </trkpt>
      <trkpt lat="42.8757642" lon="19.2400247">
        <ele>1695.7</ele>
        <time>2026-07-29T14:11:37.813Z</time>
      </trkpt>
      <trkpt lat="42.8757008" lon="19.2401577">
        <ele>1693</ele>
        <time>2026-07-29T14:11:57.813Z</time>
      </trkpt>
      <trkpt lat="42.8756436" lon="19.2402728">
        <ele>1690.2</ele>
        <time>2026-07-29T14:12:13.813Z</time>
      </trkpt>
      <trkpt lat="42.8755587" lon="19.2404031">
        <ele>1687.2</ele>
        <time>2026-07-29T14:12:34.813Z</time>
      </trkpt>
      <trkpt lat="42.8754962" lon="19.2405059">
        <ele>1684.9</ele>
        <time>2026-07-29T14:12:53.813Z</time>
      </trkpt>
      <trkpt lat="42.8754613" lon="19.2405469">
        <ele>1682.3</ele>
        <time>2026-07-29T14:13:11.813Z</time>
      </trkpt>
      <trkpt lat="42.8754141" lon="19.2406102">
        <ele>1681</ele>
        <time>2026-07-29T14:13:29.813Z</time>
      </trkpt>
      <trkpt lat="42.875392" lon="19.240656">
        <ele>1678.2</ele>
        <time>2026-07-29T14:13:42.813Z</time>
      </trkpt>
      <trkpt lat="42.8753063" lon="19.2407566">
        <ele>1676.3</ele>
        <time>2026-07-29T14:14:10.813Z</time>
      </trkpt>
      <trkpt lat="42.8752677" lon="19.2408422">
        <ele>1673.2</ele>
        <time>2026-07-29T14:14:26.813Z</time>
      </trkpt>
      <trkpt lat="42.8752056" lon="19.2409621">
        <ele>1670</ele>
        <time>2026-07-29T14:14:44.813Z</time>
      </trkpt>
      <trkpt lat="42.8751569" lon="19.2410772">
        <ele>1666.9</ele>
        <time>2026-07-29T14:15:01.813Z</time>
      </trkpt>
      <trkpt lat="42.8750974" lon="19.2411803">
        <ele>1663.8</ele>
        <time>2026-07-29T14:15:20.813Z</time>
      </trkpt>
      <trkpt lat="42.8750047" lon="19.2412637">
        <ele>1660.7</ele>
        <time>2026-07-29T14:15:39.813Z</time>
      </trkpt>
      <trkpt lat="42.8749108" lon="19.2413631">
        <ele>1658.1</ele>
        <time>2026-07-29T14:15:59.813Z</time>
      </trkpt>
      <trkpt lat="42.874865" lon="19.2414949">
        <ele>1655</ele>
        <time>2026-07-29T14:16:17.813Z</time>
      </trkpt>
      <trkpt lat="42.8747756" lon="19.241646">
        <ele>1651.8</ele>
        <time>2026-07-29T14:16:32.813Z</time>
      </trkpt>
      <trkpt lat="42.8747582" lon="19.2416773">
        <ele>1650.7</ele>
        <time>2026-07-29T14:16:36.813Z</time>
      </trkpt>
      <trkpt lat="42.8747454" lon="19.2417063">
        <ele>1649.8</ele>
        <time>2026-07-29T14:16:39.813Z</time>
      </trkpt>
      <trkpt lat="42.8746801" lon="19.2417943">
        <ele>1647.9</ele>
        <time>2026-07-29T14:16:54.813Z</time>
      </trkpt>
      <trkpt lat="42.8746441" lon="19.2418476">
        <ele>1645.8</ele>
        <time>2026-07-29T14:17:10.813Z</time>
      </trkpt>
      <trkpt lat="42.874594" lon="19.2420036">
        <ele>1643.2</ele>
        <time>2026-07-29T14:17:29.813Z</time>
      </trkpt>
      <trkpt lat="42.8744844" lon="19.2420962">
        <ele>1640</ele>
        <time>2026-07-29T14:17:53.813Z</time>
      </trkpt>
      <trkpt lat="42.8743798" lon="19.2421092">
        <ele>1637</ele>
        <time>2026-07-29T14:18:12.813Z</time>
      </trkpt>
      <trkpt lat="42.8742149" lon="19.2421356">
        <ele>1634.2</ele>
        <time>2026-07-29T14:18:35.813Z</time>
      </trkpt>
      <trkpt lat="42.8739591" lon="19.2422766">
        <ele>1633.5</ele>
        <time>2026-07-29T14:19:00.813Z</time>
      </trkpt>
      <trkpt lat="42.8739024" lon="19.2423629">
        <ele>1633.4</ele>
        <time>2026-07-29T14:19:08.813Z</time>
      </trkpt>
      <trkpt lat="42.8737869" lon="19.2425353">
        <ele>1632.4</ele>
        <time>2026-07-29T14:19:27.813Z</time>
      </trkpt>
      <trkpt lat="42.8736654" lon="19.2426268">
        <ele>1630.6</ele>
        <time>2026-07-29T14:19:42.813Z</time>
      </trkpt>
      <trkpt lat="42.8735948" lon="19.2426243">
        <ele>1629.3</ele>
        <time>2026-07-29T14:19:59.813Z</time>
      </trkpt>
      <trkpt lat="42.8735427" lon="19.242594">
        <ele>1627.8</ele>
        <time>2026-07-29T14:20:16.813Z</time>
      </trkpt>
      <trkpt lat="42.8735034" lon="19.2425689">
        <ele>1625.1</ele>
        <time>2026-07-29T14:20:33.813Z</time>
      </trkpt>
      <trkpt lat="42.8733525" lon="19.2425481">
        <ele>1622.1</ele>
        <time>2026-07-29T14:20:53.813Z</time>
      </trkpt>
      <trkpt lat="42.8733053" lon="19.2425478">
        <ele>1620.8</ele>
        <time>2026-07-29T14:21:00.813Z</time>
      </trkpt>
      <trkpt lat="42.8732499" lon="19.242511">
        <ele>1618.5</ele>
        <time>2026-07-29T14:21:14.813Z</time>
      </trkpt>
      <trkpt lat="42.8731352" lon="19.2425168">
        <ele>1615.3</ele>
        <time>2026-07-29T14:21:41.813Z</time>
      </trkpt>
      <trkpt lat="42.8730623" lon="19.2424848">
        <ele>1613</ele>
        <time>2026-07-29T14:21:58.813Z</time>
      </trkpt>
      <trkpt lat="42.8729559" lon="19.2424549">
        <ele>1610</ele>
        <time>2026-07-29T14:22:19.813Z</time>
      </trkpt>
      <trkpt lat="42.8728829" lon="19.2424004">
        <ele>1607.7</ele>
        <time>2026-07-29T14:22:35.813Z</time>
      </trkpt>
      <trkpt lat="42.8727815" lon="19.2423795">
        <ele>1604.5</ele>
        <time>2026-07-29T14:22:54.813Z</time>
      </trkpt>
      <trkpt lat="42.8727316" lon="19.2424256">
        <ele>1601.4</ele>
        <time>2026-07-29T14:23:13.813Z</time>
      </trkpt>
      <trkpt lat="42.8726883" lon="19.2424255">
        <ele>1598.3</ele>
        <time>2026-07-29T14:23:32.813Z</time>
      </trkpt>
      <trkpt lat="42.8726461" lon="19.2424083">
        <ele>1597.2</ele>
        <time>2026-07-29T14:23:48.813Z</time>
      </trkpt>
      <trkpt lat="42.8725802" lon="19.2424854">
        <ele>1595.3</ele>
        <time>2026-07-29T14:24:04.813Z</time>
      </trkpt>
      <trkpt lat="42.8725598" lon="19.2426085">
        <ele>1594.3</ele>
        <time>2026-07-29T14:24:19.813Z</time>
      </trkpt>
      <trkpt lat="42.8725277" lon="19.2426685">
        <ele>1593.5</ele>
        <time>2026-07-29T14:24:35.813Z</time>
      </trkpt>
      <trkpt lat="42.8724766" lon="19.2427447">
        <ele>1592.8</ele>
        <time>2026-07-29T14:24:51.813Z</time>
      </trkpt>
      <trkpt lat="42.8724038" lon="19.2428115">
        <ele>1591.3</ele>
        <time>2026-07-29T14:25:06.813Z</time>
      </trkpt>
      <trkpt lat="42.8723038" lon="19.2428752">
        <ele>1589.4</ele>
        <time>2026-07-29T14:25:21.813Z</time>
      </trkpt>
      <trkpt lat="42.8722429" lon="19.2429445">
        <ele>1588.6</ele>
        <time>2026-07-29T14:25:38.813Z</time>
      </trkpt>
      <trkpt lat="42.8721758" lon="19.2430213">
        <ele>1587.3</ele>
        <time>2026-07-29T14:25:53.813Z</time>
      </trkpt>
      <trkpt lat="42.872129" lon="19.2431231">
        <ele>1586.3</ele>
        <time>2026-07-29T14:26:08.813Z</time>
      </trkpt>
      <trkpt lat="42.8721064" lon="19.2432638">
        <ele>1585</ele>
        <time>2026-07-29T14:26:23.813Z</time>
      </trkpt>
      <trkpt lat="42.8721129" lon="19.2432987">
        <ele>1584.6</ele>
        <time>2026-07-29T14:26:38.813Z</time>
      </trkpt>
      <trkpt lat="42.8721159" lon="19.2433042">
        <ele>1585.8</ele>
        <time>2026-07-29T14:27:01.813Z</time>
      </trkpt>
      <trkpt lat="42.8720982" lon="19.2433344">
        <ele>1585.5</ele>
        <time>2026-07-29T14:27:18.813Z</time>
      </trkpt>
      <trkpt lat="42.8720923" lon="19.2433918">
        <ele>1585</ele>
        <time>2026-07-29T14:27:40.813Z</time>
      </trkpt>
      <trkpt lat="42.8720686" lon="19.2435611">
        <ele>1582.6</ele>
        <time>2026-07-29T14:27:58.813Z</time>
      </trkpt>
      <trkpt lat="42.8720357" lon="19.2437113">
        <ele>1580.2</ele>
        <time>2026-07-29T14:28:15.813Z</time>
      </trkpt>
      <trkpt lat="42.8719585" lon="19.2439139">
        <ele>1577.2</ele>
        <time>2026-07-29T14:28:36.813Z</time>
      </trkpt>
      <trkpt lat="42.8719026" lon="19.2440939">
        <ele>1574.6</ele>
        <time>2026-07-29T14:28:54.813Z</time>
      </trkpt>
      <trkpt lat="42.8718671" lon="19.244275">
        <ele>1571.5</ele>
        <time>2026-07-29T14:29:11.813Z</time>
      </trkpt>
      <trkpt lat="42.8718339" lon="19.244479">
        <ele>1568.7</ele>
        <time>2026-07-29T14:29:32.813Z</time>
      </trkpt>
      <trkpt lat="42.8717673" lon="19.2446224">
        <ele>1566.7</ele>
        <time>2026-07-29T14:29:50.813Z</time>
      </trkpt>
      <trkpt lat="42.8717091" lon="19.2446818">
        <ele>1565.3</ele>
        <time>2026-07-29T14:30:06.813Z</time>
      </trkpt>
      <trkpt lat="42.8716566" lon="19.2447325">
        <ele>1564.3</ele>
        <time>2026-07-29T14:30:23.813Z</time>
      </trkpt>
      <trkpt lat="42.871631" lon="19.2447386">
        <ele>1564.8</ele>
        <time>2026-07-29T14:30:46.813Z</time>
      </trkpt>
      <trkpt lat="42.871558" lon="19.244795">
        <ele>1563.8</ele>
        <time>2026-07-29T14:31:09.813Z</time>
      </trkpt>
      <trkpt lat="42.8715144" lon="19.2448509">
        <ele>1560.8</ele>
        <time>2026-07-29T14:31:30.813Z</time>
      </trkpt>
      <trkpt lat="42.8714752" lon="19.244962">
        <ele>1559.5</ele>
        <time>2026-07-29T14:31:49.813Z</time>
      </trkpt>
      <trkpt lat="42.8714462" lon="19.2450844">
        <ele>1556.8</ele>
        <time>2026-07-29T14:32:07.813Z</time>
      </trkpt>
      <trkpt lat="42.8714261" lon="19.2451664">
        <ele>1555.2</ele>
        <time>2026-07-29T14:32:22.813Z</time>
      </trkpt>
      <trkpt lat="42.8714039" lon="19.2452938">
        <ele>1554.2</ele>
        <time>2026-07-29T14:32:39.813Z</time>
      </trkpt>
      <trkpt lat="42.8714061" lon="19.2454378">
        <ele>1552.7</ele>
        <time>2026-07-29T14:32:56.813Z</time>
      </trkpt>
      <trkpt lat="42.8713988" lon="19.2456099">
        <ele>1551</ele>
        <time>2026-07-29T14:33:12.813Z</time>
      </trkpt>
      <trkpt lat="42.8714069" lon="19.2457693">
        <ele>1549.2</ele>
        <time>2026-07-29T14:33:30.813Z</time>
      </trkpt>
      <trkpt lat="42.8714229" lon="19.24583">
        <ele>1547.4</ele>
        <time>2026-07-29T14:33:50.813Z</time>
      </trkpt>
      <trkpt lat="42.8714202" lon="19.2458316">
        <ele>1548</ele>
        <time>2026-07-29T14:34:23.813Z</time>
      </trkpt>
      <trkpt lat="42.8714594" lon="19.2460047">
        <ele>1547.5</ele>
        <time>2026-07-29T14:34:44.813Z</time>
      </trkpt>
      <trkpt lat="42.8715316" lon="19.2461718">
        <ele>1546.1</ele>
        <time>2026-07-29T14:35:02.813Z</time>
      </trkpt>
      <trkpt lat="42.8715988" lon="19.2463096">
        <ele>1544.4</ele>
        <time>2026-07-29T14:35:18.813Z</time>
      </trkpt>
      <trkpt lat="42.8716193" lon="19.2464375">
        <ele>1543.1</ele>
        <time>2026-07-29T14:35:34.813Z</time>
      </trkpt>
      <trkpt lat="42.8716252" lon="19.2465036">
        <ele>1541</ele>
        <time>2026-07-29T14:35:52.813Z</time>
      </trkpt>
      <trkpt lat="42.8716194" lon="19.2466235">
        <ele>1539.9</ele>
        <time>2026-07-29T14:36:08.813Z</time>
      </trkpt>
      <trkpt lat="42.8716167" lon="19.2466662">
        <ele>1539.6</ele>
        <time>2026-07-29T14:36:12.813Z</time>
      </trkpt>
      <trkpt lat="42.8715928" lon="19.2468094">
        <ele>1538.2</ele>
        <time>2026-07-29T14:36:29.813Z</time>
      </trkpt>
      <trkpt lat="42.8715482" lon="19.2468897">
        <ele>1537.5</ele>
        <time>2026-07-29T14:36:46.813Z</time>
      </trkpt>
      <trkpt lat="42.8715429" lon="19.2468932">
        <ele>1537.6</ele>
        <time>2026-07-29T14:37:19.813Z</time>
      </trkpt>
      <trkpt lat="42.871505" lon="19.2469197">
        <ele>1536.8</ele>
        <time>2026-07-29T14:37:44.813Z</time>
      </trkpt>
      <trkpt lat="42.8714943" lon="19.2469191">
        <ele>1535.9</ele>
        <time>2026-07-29T14:38:01.813Z</time>
      </trkpt>
      <trkpt lat="42.87146" lon="19.2468927">
        <ele>1532.5</ele>
        <time>2026-07-29T14:39:24.813Z</time>
      </trkpt>
      <trkpt lat="42.871441" lon="19.24691">
        <ele>1532</ele>
        <time>2026-07-29T14:44:13.813Z</time>
      </trkpt>
      <trkpt lat="42.8714081" lon="19.2469032">
        <ele>1532</ele>
        <time>2026-07-29T14:44:15.813Z</time>
      </trkpt>
      <trkpt lat="42.8713792" lon="19.2468509">
        <ele>1532.1</ele>
        <time>2026-07-29T14:44:44.813Z</time>
      </trkpt>
      <trkpt lat="42.8713635" lon="19.2468838">
        <ele>1532.9</ele>
        <time>2026-07-29T14:54:05.813Z</time>
      </trkpt>
      <trkpt lat="42.8713503" lon="19.2468877">
        <ele>1531.9</ele>
        <time>2026-07-29T14:54:33.813Z</time>
      </trkpt>
      <trkpt lat="42.8713112" lon="19.2468742">
        <ele>1528.8</ele>
        <time>2026-07-29T14:54:57.813Z</time>
      </trkpt>
      <trkpt lat="42.8712424" lon="19.2468748">
        <ele>1525.7</ele>
        <time>2026-07-29T14:55:17.813Z</time>
      </trkpt>
      <trkpt lat="42.871181" lon="19.2468357">
        <ele>1522.6</ele>
        <time>2026-07-29T14:55:36.813Z</time>
      </trkpt>
      <trkpt lat="42.8710999" lon="19.2468648">
        <ele>1519.5</ele>
        <time>2026-07-29T14:55:53.813Z</time>
      </trkpt>
      <trkpt lat="42.8710272" lon="19.2468571">
        <ele>1517.3</ele>
        <time>2026-07-29T14:56:06.813Z</time>
      </trkpt>
      <trkpt lat="42.8709958" lon="19.2469001">
        <ele>1514.6</ele>
        <time>2026-07-29T14:56:25.813Z</time>
      </trkpt>
      <trkpt lat="42.8709585" lon="19.246997">
        <ele>1512.2</ele>
        <time>2026-07-29T14:56:46.813Z</time>
      </trkpt>
      <trkpt lat="42.8709501" lon="19.2469909">
        <ele>1510.9</ele>
        <time>2026-07-29T14:57:10.813Z</time>
      </trkpt>
      <trkpt lat="42.870902" lon="19.2469985">
        <ele>1509.6</ele>
        <time>2026-07-29T14:57:30.813Z</time>
      </trkpt>
      <trkpt lat="42.8707904" lon="19.247065">
        <ele>1507.3</ele>
        <time>2026-07-29T14:57:53.813Z</time>
      </trkpt>
      <trkpt lat="42.8706952" lon="19.2471203">
        <ele>1505.2</ele>
        <time>2026-07-29T14:58:14.813Z</time>
      </trkpt>
      <trkpt lat="42.8705817" lon="19.2471177">
        <ele>1502.7</ele>
        <time>2026-07-29T14:58:42.813Z</time>
      </trkpt>
      <trkpt lat="42.8705084" lon="19.2471728">
        <ele>1502.4</ele>
        <time>2026-07-29T14:59:00.813Z</time>
      </trkpt>
      <trkpt lat="42.8704452" lon="19.24732">
        <ele>1502.5</ele>
        <time>2026-07-29T14:59:15.813Z</time>
      </trkpt>
      <trkpt lat="42.8703997" lon="19.24746">
        <ele>1501.6</ele>
        <time>2026-07-29T14:59:33.813Z</time>
      </trkpt>
      <trkpt lat="42.8703748" lon="19.247555">
        <ele>1499</ele>
        <time>2026-07-29T14:59:50.813Z</time>
      </trkpt>
      <trkpt lat="42.8703787" lon="19.2477206">
        <ele>1496.1</ele>
        <time>2026-07-29T15:00:11.813Z</time>
      </trkpt>
      <trkpt lat="42.8703784" lon="19.2477846">
        <ele>1494.5</ele>
        <time>2026-07-29T15:00:26.813Z</time>
      </trkpt>
      <trkpt lat="42.8704037" lon="19.2478733">
        <ele>1493.1</ele>
        <time>2026-07-29T15:00:43.813Z</time>
      </trkpt>
      <trkpt lat="42.8704571" lon="19.2479704">
        <ele>1491.4</ele>
        <time>2026-07-29T15:00:57.813Z</time>
      </trkpt>
      <trkpt lat="42.8705028" lon="19.2479349">
        <ele>1488.2</ele>
        <time>2026-07-29T15:01:17.813Z</time>
      </trkpt>
      <trkpt lat="42.8705897" lon="19.2478538">
        <ele>1485.1</ele>
        <time>2026-07-29T15:01:35.813Z</time>
      </trkpt>
      <trkpt lat="42.8706918" lon="19.2478343">
        <ele>1482.4</ele>
        <time>2026-07-29T15:01:58.813Z</time>
      </trkpt>
      <trkpt lat="42.8706964" lon="19.2478831">
        <ele>1480</ele>
        <time>2026-07-29T15:02:17.813Z</time>
      </trkpt>
      <trkpt lat="42.8707135" lon="19.2479362">
        <ele>1478.4</ele>
        <time>2026-07-29T15:02:34.813Z</time>
      </trkpt>
      <trkpt lat="42.8707591" lon="19.2479826">
        <ele>1475.6</ele>
        <time>2026-07-29T15:02:58.813Z</time>
      </trkpt>
      <trkpt lat="42.8707581" lon="19.2480624">
        <ele>1473.3</ele>
        <time>2026-07-29T15:03:16.813Z</time>
      </trkpt>
      <trkpt lat="42.8707473" lon="19.2481092">
        <ele>1471.2</ele>
        <time>2026-07-29T15:03:34.813Z</time>
      </trkpt>
      <trkpt lat="42.8708133" lon="19.2481257">
        <ele>1469</ele>
        <time>2026-07-29T15:03:55.813Z</time>
      </trkpt>
      <trkpt lat="42.8708614" lon="19.2481294">
        <ele>1466.9</ele>
        <time>2026-07-29T15:04:11.813Z</time>
      </trkpt>
      <trkpt lat="42.8708857" lon="19.2482117">
        <ele>1464.6</ele>
        <time>2026-07-29T15:04:32.813Z</time>
      </trkpt>
      <trkpt lat="42.8708725" lon="19.2483358">
        <ele>1461.7</ele>
        <time>2026-07-29T15:04:55.813Z</time>
      </trkpt>
      <trkpt lat="42.8708829" lon="19.248443">
        <ele>1459.5</ele>
        <time>2026-07-29T15:05:14.813Z</time>
      </trkpt>
      <trkpt lat="42.8709029" lon="19.2485096">
        <ele>1457.4</ele>
        <time>2026-07-29T15:05:34.813Z</time>
      </trkpt>
      <trkpt lat="42.8709807" lon="19.2485079">
        <ele>1454.5</ele>
        <time>2026-07-29T15:06:02.813Z</time>
      </trkpt>
      <trkpt lat="42.8709879" lon="19.2485593">
        <ele>1451.9</ele>
        <time>2026-07-29T15:06:26.813Z</time>
      </trkpt>
      <trkpt lat="42.8709609" lon="19.2485943">
        <ele>1451.4</ele>
        <time>2026-07-29T15:06:53.813Z</time>
      </trkpt>
      <trkpt lat="42.8709452" lon="19.248647">
        <ele>1449.3</ele>
        <time>2026-07-29T15:07:16.813Z</time>
      </trkpt>
      <trkpt lat="42.8709067" lon="19.2487311">
        <ele>1448.4</ele>
        <time>2026-07-29T15:07:38.813Z</time>
      </trkpt>
      <trkpt lat="42.870868" lon="19.2488818">
        <ele>1448</ele>
        <time>2026-07-29T15:07:58.813Z</time>
      </trkpt>
      <trkpt lat="42.8708461" lon="19.2489508">
        <ele>1448</ele>
        <time>2026-07-29T15:08:04.813Z</time>
      </trkpt>
      <trkpt lat="42.8708461" lon="19.2490188">
        <ele>1447.6</ele>
        <time>2026-07-29T15:08:26.813Z</time>
      </trkpt>
      <trkpt lat="42.8707968" lon="19.2492495">
        <ele>1445.9</ele>
        <time>2026-07-29T15:08:51.813Z</time>
      </trkpt>
      <trkpt lat="42.8707596" lon="19.2495467">
        <ele>1447.4</ele>
        <time>2026-07-29T15:09:13.813Z</time>
      </trkpt>
      <trkpt lat="42.8707101" lon="19.2496026">
        <ele>1449</ele>
        <time>2026-07-29T15:09:29.813Z</time>
      </trkpt>
      <trkpt lat="42.8706223" lon="19.2495466">
        <ele>1450.5</ele>
        <time>2026-07-29T15:09:54.813Z</time>
      </trkpt>
      <trkpt lat="42.8705709" lon="19.2495919">
        <ele>1447.6</ele>
        <time>2026-07-29T15:10:18.813Z</time>
      </trkpt>
      <trkpt lat="42.8705033" lon="19.2495985">
        <ele>1444.4</ele>
        <time>2026-07-29T15:10:32.813Z</time>
      </trkpt>
      <trkpt lat="42.8703775" lon="19.2495819">
        <ele>1442.1</ele>
        <time>2026-07-29T15:10:53.813Z</time>
      </trkpt>
      <trkpt lat="42.8702851" lon="19.2497236">
        <ele>1439.8</ele>
        <time>2026-07-29T15:11:16.813Z</time>
      </trkpt>
      <trkpt lat="42.8702111" lon="19.2497857">
        <ele>1437</ele>
        <time>2026-07-29T15:11:40.813Z</time>
      </trkpt>
      <trkpt lat="42.8702389" lon="19.2498656">
        <ele>1434.1</ele>
        <time>2026-07-29T15:11:58.813Z</time>
      </trkpt>
      <trkpt lat="42.870322" lon="19.2499937">
        <ele>1430.8</ele>
        <time>2026-07-29T15:12:18.813Z</time>
      </trkpt>
      <trkpt lat="42.8703145" lon="19.2499934">
        <ele>1430.3</ele>
        <time>2026-07-29T15:12:38.813Z</time>
      </trkpt>
      <trkpt lat="42.8703598" lon="19.2500479">
        <ele>1427.8</ele>
        <time>2026-07-29T15:16:58.813Z</time>
      </trkpt>
      <trkpt lat="42.8703769" lon="19.250093">
        <ele>1421.9</ele>
        <time>2026-07-29T15:17:43.813Z</time>
      </trkpt>
      <trkpt lat="42.8703711" lon="19.2502006">
        <ele>1419.4</ele>
        <time>2026-07-29T15:18:01.813Z</time>
      </trkpt>
      <trkpt lat="42.8703094" lon="19.2503119">
        <ele>1416.2</ele>
        <time>2026-07-29T15:18:19.813Z</time>
      </trkpt>
      <trkpt lat="42.8702353" lon="19.2503535">
        <ele>1413</ele>
        <time>2026-07-29T15:18:40.813Z</time>
      </trkpt>
      <trkpt lat="42.8701429" lon="19.2504054">
        <ele>1410</ele>
        <time>2026-07-29T15:18:58.813Z</time>
      </trkpt>
      <trkpt lat="42.8700817" lon="19.2504656">
        <ele>1408.8</ele>
        <time>2026-07-29T15:19:09.813Z</time>
      </trkpt>
      <trkpt lat="42.8699813" lon="19.2505674">
        <ele>1406.4</ele>
        <time>2026-07-29T15:19:30.813Z</time>
      </trkpt>
      <trkpt lat="42.8698971" lon="19.2506522">
        <ele>1403.1</ele>
        <time>2026-07-29T15:19:52.813Z</time>
      </trkpt>
      <trkpt lat="42.8698363" lon="19.2507619">
        <ele>1400.1</ele>
        <time>2026-07-29T15:20:10.813Z</time>
      </trkpt>
      <trkpt lat="42.8698494" lon="19.2508178">
        <ele>1397</ele>
        <time>2026-07-29T15:20:29.813Z</time>
      </trkpt>
      <trkpt lat="42.8698432" lon="19.250865">
        <ele>1395.9</ele>
        <time>2026-07-29T15:20:38.813Z</time>
      </trkpt>
      <trkpt lat="42.8697612" lon="19.2508843">
        <ele>1392.6</ele>
        <time>2026-07-29T15:21:00.813Z</time>
      </trkpt>
      <trkpt lat="42.869756" lon="19.2508875">
        <ele>1392.4</ele>
        <time>2026-07-29T15:21:01.813Z</time>
      </trkpt>
      <trkpt lat="42.8697398" lon="19.2509764">
        <ele>1389.2</ele>
        <time>2026-07-29T15:21:29.813Z</time>
      </trkpt>
      <trkpt lat="42.8696624" lon="19.2510908">
        <ele>1387.7</ele>
        <time>2026-07-29T15:21:55.813Z</time>
      </trkpt>
      <trkpt lat="42.8696281" lon="19.2512874">
        <ele>1384.7</ele>
        <time>2026-07-29T15:22:16.813Z</time>
      </trkpt>
      <trkpt lat="42.8695998" lon="19.2514068">
        <ele>1381.6</ele>
        <time>2026-07-29T15:22:36.813Z</time>
      </trkpt>
      <trkpt lat="42.8695276" lon="19.2516099">
        <ele>1378.5</ele>
        <time>2026-07-29T15:22:57.813Z</time>
      </trkpt>
      <trkpt lat="42.8696513" lon="19.2516871">
        <ele>1375.2</ele>
        <time>2026-07-29T15:23:19.813Z</time>
      </trkpt>
      <trkpt lat="42.8698014" lon="19.2517739">
        <ele>1372.7</ele>
        <time>2026-07-29T15:23:44.813Z</time>
      </trkpt>
      <trkpt lat="42.8698251" lon="19.2518205">
        <ele>1370.9</ele>
        <time>2026-07-29T15:23:55.813Z</time>
      </trkpt>
      <trkpt lat="42.8697868" lon="19.2518892">
        <ele>1367.8</ele>
        <time>2026-07-29T15:24:19.813Z</time>
      </trkpt>
      <trkpt lat="42.8697898" lon="19.2518971">
        <ele>1367.5</ele>
        <time>2026-07-29T15:24:21.813Z</time>
      </trkpt>
      <trkpt lat="42.8698569" lon="19.251977">
        <ele>1364.5</ele>
        <time>2026-07-29T15:24:46.813Z</time>
      </trkpt>
      <trkpt lat="42.8698795" lon="19.2519928">
        <ele>1363.5</ele>
        <time>2026-07-29T15:24:51.813Z</time>
      </trkpt>
      <trkpt lat="42.8698469" lon="19.2520725">
        <ele>1361.4</ele>
        <time>2026-07-29T15:25:08.813Z</time>
      </trkpt>
      <trkpt lat="42.8697599" lon="19.2521937">
        <ele>1358.2</ele>
        <time>2026-07-29T15:25:34.813Z</time>
      </trkpt>
      <trkpt lat="42.8697317" lon="19.2523973">
        <ele>1355.5</ele>
        <time>2026-07-29T15:26:00.813Z</time>
      </trkpt>
      <trkpt lat="42.8697373" lon="19.2524749">
        <ele>1351.7</ele>
        <time>2026-07-29T15:26:48.813Z</time>
      </trkpt>
      <trkpt lat="42.8697105" lon="19.2525494">
        <ele>1349.3</ele>
        <time>2026-07-29T15:27:10.813Z</time>
      </trkpt>
      <trkpt lat="42.869723" lon="19.2526136">
        <ele>1346.9</ele>
        <time>2026-07-29T15:27:31.813Z</time>
      </trkpt>
      <trkpt lat="42.8697198" lon="19.2526642">
        <ele>1346.2</ele>
        <time>2026-07-29T15:27:38.813Z</time>
      </trkpt>
      <trkpt lat="42.8697256" lon="19.2526888">
        <ele>1344.7</ele>
        <time>2026-07-29T15:28:05.813Z</time>
      </trkpt>
      <trkpt lat="42.86973" lon="19.2526824">
        <ele>1344.9</ele>
        <time>2026-07-29T15:28:24.813Z</time>
      </trkpt>
      <trkpt lat="42.8697572" lon="19.2527552">
        <ele>1344</ele>
        <time>2026-07-29T15:28:54.813Z</time>
      </trkpt>
      <trkpt lat="42.8697426" lon="19.2528054">
        <ele>1342.8</ele>
        <time>2026-07-29T15:29:03.813Z</time>
      </trkpt>
      <trkpt lat="42.8697292" lon="19.2529251">
        <ele>1339.6</ele>
        <time>2026-07-29T15:29:25.813Z</time>
      </trkpt>
      <trkpt lat="42.869721" lon="19.2529657">
        <ele>1336.8</ele>
        <time>2026-07-29T15:29:49.813Z</time>
      </trkpt>
      <trkpt lat="42.8696479" lon="19.2531571">
        <ele>1333.8</ele>
        <time>2026-07-29T15:30:19.813Z</time>
      </trkpt>
      <trkpt lat="42.8696754" lon="19.2532665">
        <ele>1330.7</ele>
        <time>2026-07-29T15:30:42.813Z</time>
      </trkpt>
      <trkpt lat="42.8697116" lon="19.2535268">
        <ele>1326</ele>
        <time>2026-07-29T15:37:18.813Z</time>
      </trkpt>
      <trkpt lat="42.8696837" lon="19.2536752">
        <ele>1322.9</ele>
        <time>2026-07-29T15:37:40.813Z</time>
      </trkpt>
      <trkpt lat="42.869624" lon="19.2537452">
        <ele>1320.7</ele>
        <time>2026-07-29T15:38:01.813Z</time>
      </trkpt>
      <trkpt lat="42.8696184" lon="19.2539162">
        <ele>1317.7</ele>
        <time>2026-07-29T15:38:24.813Z</time>
      </trkpt>
      <trkpt lat="42.8696132" lon="19.2541169">
        <ele>1314.5</ele>
        <time>2026-07-29T15:38:47.813Z</time>
      </trkpt>
      <trkpt lat="42.8695619" lon="19.2542291">
        <ele>1311.4</ele>
        <time>2026-07-29T15:39:07.813Z</time>
      </trkpt>
      <trkpt lat="42.8695474" lon="19.2543458">
        <ele>1308.8</ele>
        <time>2026-07-29T15:39:31.813Z</time>
      </trkpt>
      <trkpt lat="42.8695033" lon="19.2544929">
        <ele>1305.9</ele>
        <time>2026-07-29T15:39:54.813Z</time>
      </trkpt>
      <trkpt lat="42.869493" lon="19.2546887">
        <ele>1303.5</ele>
        <time>2026-07-29T15:40:18.813Z</time>
      </trkpt>
      <trkpt lat="42.8694738" lon="19.2548791">
        <ele>1300.3</ele>
        <time>2026-07-29T15:40:38.813Z</time>
      </trkpt>
      <trkpt lat="42.8694374" lon="19.2551234">
        <ele>1297.5</ele>
        <time>2026-07-29T15:41:00.813Z</time>
      </trkpt>
      <trkpt lat="42.8694455" lon="19.2551968">
        <ele>1297</ele>
        <time>2026-07-29T15:41:15.813Z</time>
      </trkpt>
      <trkpt lat="42.8693875" lon="19.2553603">
        <ele>1294.8</ele>
        <time>2026-07-29T15:41:37.813Z</time>
      </trkpt>
      <trkpt lat="42.8693001" lon="19.2554391">
        <ele>1291.8</ele>
        <time>2026-07-29T15:41:59.813Z</time>
      </trkpt>
      <trkpt lat="42.8692338" lon="19.2555989">
        <ele>1288.7</ele>
        <time>2026-07-29T15:42:19.813Z</time>
      </trkpt>
      <trkpt lat="42.869179" lon="19.2557451">
        <ele>1285.7</ele>
        <time>2026-07-29T15:42:37.813Z</time>
      </trkpt>
      <trkpt lat="42.8691634" lon="19.255884">
        <ele>1283.4</ele>
        <time>2026-07-29T15:43:00.813Z</time>
      </trkpt>
      <trkpt lat="42.8690994" lon="19.2559636">
        <ele>1282.6</ele>
        <time>2026-07-29T15:43:18.813Z</time>
      </trkpt>
      <trkpt lat="42.8690652" lon="19.256006">
        <ele>1280</ele>
        <time>2026-07-29T15:43:39.813Z</time>
      </trkpt>
      <trkpt lat="42.869022" lon="19.2560905">
        <ele>1276.9</ele>
        <time>2026-07-29T15:44:01.813Z</time>
      </trkpt>
      <trkpt lat="42.8689875" lon="19.2562095">
        <ele>1274</ele>
        <time>2026-07-29T15:44:23.813Z</time>
      </trkpt>
      <trkpt lat="42.8689327" lon="19.2563253">
        <ele>1271.6</ele>
        <time>2026-07-29T15:44:41.813Z</time>
      </trkpt>
      <trkpt lat="42.8688602" lon="19.2564323">
        <ele>1268.5</ele>
        <time>2026-07-29T15:45:02.813Z</time>
      </trkpt>
      <trkpt lat="42.8688123" lon="19.2565492">
        <ele>1265.4</ele>
        <time>2026-07-29T15:45:19.813Z</time>
      </trkpt>
      <trkpt lat="42.8687532" lon="19.2566662">
        <ele>1262.3</ele>
        <time>2026-07-29T15:45:38.813Z</time>
      </trkpt>
      <trkpt lat="42.8687091" lon="19.2567828">
        <ele>1259.2</ele>
        <time>2026-07-29T15:45:59.813Z</time>
      </trkpt>
      <trkpt lat="42.8686394" lon="19.256933">
        <ele>1256.7</ele>
        <time>2026-07-29T15:46:18.813Z</time>
      </trkpt>
      <trkpt lat="42.8685879" lon="19.2570481">
        <ele>1254</ele>
        <time>2026-07-29T15:46:39.813Z</time>
      </trkpt>
      <trkpt lat="42.8685415" lon="19.2571263">
        <ele>1251.5</ele>
        <time>2026-07-29T15:46:58.813Z</time>
      </trkpt>
      <trkpt lat="42.8685512" lon="19.2572774">
        <ele>1249.8</ele>
        <time>2026-07-29T15:47:18.813Z</time>
      </trkpt>
      <trkpt lat="42.8685207" lon="19.2574365">
        <ele>1247.6</ele>
        <time>2026-07-29T15:47:37.813Z</time>
      </trkpt>
      <trkpt lat="42.8684257" lon="19.2575361">
        <ele>1244.5</ele>
        <time>2026-07-29T15:47:58.813Z</time>
      </trkpt>
      <trkpt lat="42.8683746" lon="19.2575721">
        <ele>1243</ele>
        <time>2026-07-29T15:48:11.813Z</time>
      </trkpt>
      <trkpt lat="42.8683894" lon="19.2576556">
        <ele>1241.5</ele>
        <time>2026-07-29T15:48:32.813Z</time>
      </trkpt>
      <trkpt lat="42.8683745" lon="19.257695">
        <ele>1239.9</ele>
        <time>2026-07-29T15:48:58.813Z</time>
      </trkpt>
      <trkpt lat="42.8683456" lon="19.2577348">
        <ele>1239.8</ele>
        <time>2026-07-29T15:49:33.813Z</time>
      </trkpt>
      <trkpt lat="42.8682913" lon="19.2578456">
        <ele>1237.3</ele>
        <time>2026-07-29T15:49:53.813Z</time>
      </trkpt>
      <trkpt lat="42.8683062" lon="19.2579636">
        <ele>1234.6</ele>
        <time>2026-07-29T15:50:13.813Z</time>
      </trkpt>
      <trkpt lat="42.8682794" lon="19.2580525">
        <ele>1231.7</ele>
        <time>2026-07-29T15:50:37.813Z</time>
      </trkpt>
      <trkpt lat="42.8682733" lon="19.2581409">
        <ele>1229.8</ele>
        <time>2026-07-29T15:50:56.813Z</time>
      </trkpt>
      <trkpt lat="42.8683011" lon="19.2582973">
        <ele>1227.2</ele>
        <time>2026-07-29T15:51:16.813Z</time>
      </trkpt>
      <trkpt lat="42.8682225" lon="19.2584227">
        <ele>1224.5</ele>
        <time>2026-07-29T15:51:36.813Z</time>
      </trkpt>
      <trkpt lat="42.8682371" lon="19.2585655">
        <ele>1221.6</ele>
        <time>2026-07-29T15:51:57.813Z</time>
      </trkpt>
      <trkpt lat="42.8682646" lon="19.2587013">
        <ele>1218.5</ele>
        <time>2026-07-29T15:52:19.813Z</time>
      </trkpt>
      <trkpt lat="42.8681996" lon="19.2587068">
        <ele>1216.3</ele>
        <time>2026-07-29T15:52:36.813Z</time>
      </trkpt>
      <trkpt lat="42.868147" lon="19.2586527">
        <ele>1213.8</ele>
        <time>2026-07-29T15:52:58.813Z</time>
      </trkpt>
      <trkpt lat="42.8680685" lon="19.2586615">
        <ele>1211.1</ele>
        <time>2026-07-29T15:53:18.813Z</time>
      </trkpt>
      <trkpt lat="42.8680654" lon="19.2587755">
        <ele>1208</ele>
        <time>2026-07-29T15:53:37.813Z</time>
      </trkpt>
      <trkpt lat="42.8680499" lon="19.2588803">
        <ele>1205.3</ele>
        <time>2026-07-29T15:53:58.813Z</time>
      </trkpt>
      <trkpt lat="42.8679823" lon="19.2588582">
        <ele>1202.2</ele>
        <time>2026-07-29T15:54:18.813Z</time>
      </trkpt>
      <trkpt lat="42.8679681" lon="19.2589185">
        <ele>1199</ele>
        <time>2026-07-29T15:54:35.813Z</time>
      </trkpt>
      <trkpt lat="42.8680031" lon="19.2590401">
        <ele>1195.9</ele>
        <time>2026-07-29T15:54:52.813Z</time>
      </trkpt>
      <trkpt lat="42.8681088" lon="19.2591701">
        <ele>1192.9</ele>
        <time>2026-07-29T15:55:15.813Z</time>
      </trkpt>
      <trkpt lat="42.8681482" lon="19.2593249">
        <ele>1189.8</ele>
        <time>2026-07-29T15:55:36.813Z</time>
      </trkpt>
      <trkpt lat="42.8680921" lon="19.2593179">
        <ele>1186.7</ele>
        <time>2026-07-29T15:55:55.813Z</time>
      </trkpt>
      <trkpt lat="42.8679931" lon="19.2593022">
        <ele>1183.6</ele>
        <time>2026-07-29T15:56:16.813Z</time>
      </trkpt>
      <trkpt lat="42.867969" lon="19.2593015">
        <ele>1181.3</ele>
        <time>2026-07-29T15:56:39.813Z</time>
      </trkpt>
      <trkpt lat="42.8678998" lon="19.2592958">
        <ele>1179.4</ele>
        <time>2026-07-29T15:57:02.813Z</time>
      </trkpt>
      <trkpt lat="42.867883" lon="19.2593609">
        <ele>1177.1</ele>
        <time>2026-07-29T15:57:22.813Z</time>
      </trkpt>
      <trkpt lat="42.8679356" lon="19.2594609">
        <ele>1174.7</ele>
        <time>2026-07-29T15:57:42.813Z</time>
      </trkpt>
      <trkpt lat="42.867977" lon="19.2595204">
        <ele>1171.6</ele>
        <time>2026-07-29T15:58:02.813Z</time>
      </trkpt>
      <trkpt lat="42.8680082" lon="19.2595806">
        <ele>1169.7</ele>
        <time>2026-07-29T15:58:19.813Z</time>
      </trkpt>
      <trkpt lat="42.868006" lon="19.2597097">
        <ele>1167.2</ele>
        <time>2026-07-29T15:58:38.813Z</time>
      </trkpt>
      <trkpt lat="42.8680311" lon="19.2598485">
        <ele>1164.1</ele>
        <time>2026-07-29T15:58:58.813Z</time>
      </trkpt>
      <trkpt lat="42.8679973" lon="19.2599038">
        <ele>1161.3</ele>
        <time>2026-07-29T15:59:18.813Z</time>
      </trkpt>
      <trkpt lat="42.8679839" lon="19.2599767">
        <ele>1158.1</ele>
        <time>2026-07-29T15:59:40.813Z</time>
      </trkpt>
      <trkpt lat="42.8679416" lon="19.260013">
        <ele>1155.4</ele>
        <time>2026-07-29T15:59:59.813Z</time>
      </trkpt>
      <trkpt lat="42.8678945" lon="19.2600146">
        <ele>1152.5</ele>
        <time>2026-07-29T16:00:20.813Z</time>
      </trkpt>
      <trkpt lat="42.8678791" lon="19.2601018">
        <ele>1149.5</ele>
        <time>2026-07-29T16:00:43.813Z</time>
      </trkpt>
      <trkpt lat="42.8678673" lon="19.2601428">
        <ele>1144.8</ele>
        <time>2026-07-29T16:06:49.813Z</time>
      </trkpt>
      <trkpt lat="42.8678823" lon="19.2602257">
        <ele>1142.2</ele>
        <time>2026-07-29T16:07:07.813Z</time>
      </trkpt>
      <trkpt lat="42.8678194" lon="19.2602458">
        <ele>1139.6</ele>
        <time>2026-07-29T16:07:29.813Z</time>
      </trkpt>
      <trkpt lat="42.8678026" lon="19.2602533">
        <ele>1137.4</ele>
        <time>2026-07-29T16:07:53.813Z</time>
      </trkpt>
      <trkpt lat="42.8678129" lon="19.2603202">
        <ele>1135.7</ele>
        <time>2026-07-29T16:08:12.813Z</time>
      </trkpt>
      <trkpt lat="42.8677804" lon="19.260299">
        <ele>1134.1</ele>
        <time>2026-07-29T16:08:38.813Z</time>
      </trkpt>
      <trkpt lat="42.8677414" lon="19.2602855">
        <ele>1131.8</ele>
        <time>2026-07-29T16:08:59.813Z</time>
      </trkpt>
      <trkpt lat="42.8677357" lon="19.2603865">
        <ele>1128.7</ele>
        <time>2026-07-29T16:09:19.813Z</time>
      </trkpt>
      <trkpt lat="42.8677587" lon="19.2605318">
        <ele>1126.6</ele>
        <time>2026-07-29T16:09:39.813Z</time>
      </trkpt>
      <trkpt lat="42.8677688" lon="19.2606349">
        <ele>1124.3</ele>
        <time>2026-07-29T16:09:59.813Z</time>
      </trkpt>
      <trkpt lat="42.8677969" lon="19.2607249">
        <ele>1122</ele>
        <time>2026-07-29T16:10:17.813Z</time>
      </trkpt>
      <trkpt lat="42.8677602" lon="19.2607735">
        <ele>1119.8</ele>
        <time>2026-07-29T16:10:34.813Z</time>
      </trkpt>
      <trkpt lat="42.8677676" lon="19.2608776">
        <ele>1117.9</ele>
        <time>2026-07-29T16:10:52.813Z</time>
      </trkpt>
      <trkpt lat="42.8678127" lon="19.2609714">
        <ele>1115.1</ele>
        <time>2026-07-29T16:11:11.813Z</time>
      </trkpt>
      <trkpt lat="42.8677772" lon="19.2610419">
        <ele>1112.6</ele>
        <time>2026-07-29T16:11:28.813Z</time>
      </trkpt>
      <trkpt lat="42.867725" lon="19.2610989">
        <ele>1110.3</ele>
        <time>2026-07-29T16:11:43.813Z</time>
      </trkpt>
      <trkpt lat="42.8677268" lon="19.2611898">
        <ele>1107.7</ele>
        <time>2026-07-29T16:12:03.813Z</time>
      </trkpt>
      <trkpt lat="42.8677363" lon="19.2612754">
        <ele>1105.3</ele>
        <time>2026-07-29T16:12:20.813Z</time>
      </trkpt>
      <trkpt lat="42.8677278" lon="19.2613385">
        <ele>1103.2</ele>
        <time>2026-07-29T16:12:39.813Z</time>
      </trkpt>
      <trkpt lat="42.8677126" lon="19.2613794">
        <ele>1101</ele>
        <time>2026-07-29T16:12:58.813Z</time>
      </trkpt>
      <trkpt lat="42.867646" lon="19.2613755">
        <ele>1099.1</ele>
        <time>2026-07-29T16:13:17.813Z</time>
      </trkpt>
      <trkpt lat="42.8676397" lon="19.261448">
        <ele>1096.9</ele>
        <time>2026-07-29T16:13:36.813Z</time>
      </trkpt>
      <trkpt lat="42.8676452" lon="19.2615863">
        <ele>1094.7</ele>
        <time>2026-07-29T16:13:59.813Z</time>
      </trkpt>
      <trkpt lat="42.8676448" lon="19.2616957">
        <ele>1093.3</ele>
        <time>2026-07-29T16:14:17.813Z</time>
      </trkpt>
      <trkpt lat="42.8676179" lon="19.2617988">
        <ele>1091</ele>
        <time>2026-07-29T16:14:34.813Z</time>
      </trkpt>
      <trkpt lat="42.8676275" lon="19.2619431">
        <ele>1088.7</ele>
        <time>2026-07-29T16:14:53.813Z</time>
      </trkpt>
      <trkpt lat="42.8676479" lon="19.2619709">
        <ele>1087.4</ele>
        <time>2026-07-29T16:15:10.813Z</time>
      </trkpt>
      <trkpt lat="42.8676011" lon="19.2620608">
        <ele>1085.1</ele>
        <time>2026-07-29T16:15:28.813Z</time>
      </trkpt>
      <trkpt lat="42.8676147" lon="19.2621986">
        <ele>1082</ele>
        <time>2026-07-29T16:15:47.813Z</time>
      </trkpt>
      <trkpt lat="42.8675884" lon="19.2622899">
        <ele>1079.6</ele>
        <time>2026-07-29T16:16:06.813Z</time>
      </trkpt>
      <trkpt lat="42.8676188" lon="19.262429">
        <ele>1077.1</ele>
        <time>2026-07-29T16:16:25.813Z</time>
      </trkpt>
      <trkpt lat="42.867597" lon="19.2624707">
        <ele>1075.5</ele>
        <time>2026-07-29T16:16:54.813Z</time>
      </trkpt>
      <trkpt lat="42.8675586" lon="19.2625058">
        <ele>1073.5</ele>
        <time>2026-07-29T16:17:11.813Z</time>
      </trkpt>
      <trkpt lat="42.867607" lon="19.2626145">
        <ele>1071.4</ele>
        <time>2026-07-29T16:17:31.813Z</time>
      </trkpt>
      <trkpt lat="42.8675709" lon="19.2626748">
        <ele>1069.7</ele>
        <time>2026-07-29T16:17:50.813Z</time>
      </trkpt>
      <trkpt lat="42.8675031" lon="19.2626765">
        <ele>1067</ele>
        <time>2026-07-29T16:18:09.813Z</time>
      </trkpt>
      <trkpt lat="42.867485" lon="19.2627339">
        <ele>1064.2</ele>
        <time>2026-07-29T16:18:27.813Z</time>
      </trkpt>
      <trkpt lat="42.8674588" lon="19.2627757">
        <ele>1061.9</ele>
        <time>2026-07-29T16:18:47.813Z</time>
      </trkpt>
      <trkpt lat="42.8674659" lon="19.2629139">
        <ele>1058.8</ele>
        <time>2026-07-29T16:19:05.813Z</time>
      </trkpt>
      <trkpt lat="42.8674193" lon="19.2629209">
        <ele>1056</ele>
        <time>2026-07-29T16:19:22.813Z</time>
      </trkpt>
      <trkpt lat="42.8673984" lon="19.2630351">
        <ele>1054.3</ele>
        <time>2026-07-29T16:19:38.813Z</time>
      </trkpt>
      <trkpt lat="42.8674656" lon="19.2631822">
        <ele>1051.2</ele>
        <time>2026-07-29T16:20:00.813Z</time>
      </trkpt>
      <trkpt lat="42.8675272" lon="19.2632537">
        <ele>1048.1</ele>
        <time>2026-07-29T16:20:18.813Z</time>
      </trkpt>
      <trkpt lat="42.8674893" lon="19.2632949">
        <ele>1045.8</ele>
        <time>2026-07-29T16:20:36.813Z</time>
      </trkpt>
      <trkpt lat="42.8673631" lon="19.2632781">
        <ele>1042.6</ele>
        <time>2026-07-29T16:20:58.813Z</time>
      </trkpt>
      <trkpt lat="42.8672521" lon="19.2632468">
        <ele>1039.5</ele>
        <time>2026-07-29T16:21:15.813Z</time>
      </trkpt>
      <trkpt lat="42.8672209" lon="19.263199">
        <ele>1037</ele>
        <time>2026-07-29T16:21:34.813Z</time>
      </trkpt>
      <trkpt lat="42.8671891" lon="19.2631656">
        <ele>1036.9</ele>
        <time>2026-07-29T16:21:50.813Z</time>
      </trkpt>
      <trkpt lat="42.867103" lon="19.2630168">
        <ele>1034.5</ele>
        <time>2026-07-29T16:22:11.813Z</time>
      </trkpt>
      <trkpt lat="42.86698" lon="19.2629614">
        <ele>1031.6</ele>
        <time>2026-07-29T16:22:31.813Z</time>
      </trkpt>
      <trkpt lat="42.867003" lon="19.2630762">
        <ele>1028.8</ele>
        <time>2026-07-29T16:22:53.813Z</time>
      </trkpt>
      <trkpt lat="42.8669973" lon="19.2631104">
        <ele>1026.5</ele>
        <time>2026-07-29T16:23:12.813Z</time>
      </trkpt>
      <trkpt lat="42.8669516" lon="19.26311">
        <ele>1024.9</ele>
        <time>2026-07-29T16:23:31.813Z</time>
      </trkpt>
      <trkpt lat="42.8669199" lon="19.2630907">
        <ele>1023.2</ele>
        <time>2026-07-29T16:23:50.813Z</time>
      </trkpt>
      <trkpt lat="42.8668937" lon="19.2630873">
        <ele>1021.4</ele>
        <time>2026-07-29T16:24:10.813Z</time>
      </trkpt>
      <trkpt lat="42.8668713" lon="19.2630792">
        <ele>1019.8</ele>
        <time>2026-07-29T16:24:30.813Z</time>
      </trkpt>
      <trkpt lat="42.8668393" lon="19.2630808">
        <ele>1018.3</ele>
        <time>2026-07-29T16:24:48.813Z</time>
      </trkpt>
      <trkpt lat="42.866759" lon="19.263034">
        <ele>1017</ele>
        <time>2026-07-29T16:25:06.813Z</time>
      </trkpt>
      <trkpt lat="42.8666633" lon="19.2630042">
        <ele>1014.8</ele>
        <time>2026-07-29T16:25:26.813Z</time>
      </trkpt>
      <trkpt lat="42.866572" lon="19.262939">
        <ele>1014.1</ele>
        <time>2026-07-29T16:25:42.813Z</time>
      </trkpt>
      <trkpt lat="42.8664993" lon="19.2629151">
        <ele>1013.5</ele>
        <time>2026-07-29T16:26:01.813Z</time>
      </trkpt>
      <trkpt lat="42.8663425" lon="19.2629357">
        <ele>1011.7</ele>
        <time>2026-07-29T16:26:25.813Z</time>
      </trkpt>
      <trkpt lat="42.8662325" lon="19.2629752">
        <ele>1009.2</ele>
        <time>2026-07-29T16:26:46.813Z</time>
      </trkpt>
      <trkpt lat="42.8662186" lon="19.2629798">
        <ele>1010.1</ele>
        <time>2026-07-29T16:27:05.813Z</time>
      </trkpt>
      <trkpt lat="42.8662021" lon="19.2629838">
        <ele>1010.9</ele>
        <time>2026-07-29T16:27:29.813Z</time>
      </trkpt>
      <trkpt lat="42.8661819" lon="19.2629962">
        <ele>1011.1</ele>
        <time>2026-07-29T16:27:47.813Z</time>
      </trkpt>
      <trkpt lat="42.8661415" lon="19.2630039">
        <ele>1010.9</ele>
        <time>2026-07-29T16:28:06.813Z</time>
      </trkpt>
      <trkpt lat="42.8661146" lon="19.2630238">
        <ele>1010.2</ele>
        <time>2026-07-29T16:28:22.813Z</time>
      </trkpt>
      <trkpt lat="42.8660265" lon="19.2630589">
        <ele>1009.1</ele>
        <time>2026-07-29T16:28:35.813Z</time>
      </trkpt>
      <trkpt lat="42.865859" lon="19.2631616">
        <ele>1007.6</ele>
        <time>2026-07-29T16:28:55.813Z</time>
      </trkpt>
      <trkpt lat="42.8657477" lon="19.2632074">
        <ele>1006</ele>
        <time>2026-07-29T16:29:11.813Z</time>
      </trkpt>
      <trkpt lat="42.8656205" lon="19.2632734">
        <ele>1004.2</ele>
        <time>2026-07-29T16:29:32.813Z</time>
      </trkpt>
      <trkpt lat="42.8654502" lon="19.2633098">
        <ele>1002.7</ele>
        <time>2026-07-29T16:29:52.813Z</time>
      </trkpt>
      <trkpt lat="42.8653092" lon="19.2633792">
        <ele>1002.1</ele>
        <time>2026-07-29T16:30:10.813Z</time>
      </trkpt>
      <trkpt lat="42.8652148" lon="19.2633915">
        <ele>1001.8</ele>
        <time>2026-07-29T16:30:20.813Z</time>
      </trkpt>
      <trkpt lat="42.8650189" lon="19.2632851">
        <ele>1000.4</ele>
        <time>2026-07-29T16:30:41.813Z</time>
      </trkpt>
      <trkpt lat="42.8647652" lon="19.2631651">
        <ele>998.4</ele>
        <time>2026-07-29T16:31:08.813Z</time>
      </trkpt>
      <trkpt lat="42.8645653" lon="19.2631211">
        <ele>997</ele>
        <time>2026-07-29T16:31:28.813Z</time>
      </trkpt>
      <trkpt lat="42.8643686" lon="19.2630044">
        <ele>995.4</ele>
        <time>2026-07-29T16:31:50.813Z</time>
      </trkpt>
      <trkpt lat="42.8643264" lon="19.2629382">
        <ele>994.8</ele>
        <time>2026-07-29T16:31:58.813Z</time>
      </trkpt>
      <trkpt lat="42.8642539" lon="19.2627524">
        <ele>994</ele>
        <time>2026-07-29T16:32:18.813Z</time>
      </trkpt>
      <trkpt lat="42.8641553" lon="19.2626175">
        <ele>994.3</ele>
        <time>2026-07-29T16:32:36.813Z</time>
      </trkpt>
      <trkpt lat="42.864083" lon="19.2625455">
        <ele>994.4</ele>
        <time>2026-07-29T16:32:46.813Z</time>
      </trkpt>
      <trkpt lat="42.8638962" lon="19.2623493">
        <ele>994.6</ele>
        <time>2026-07-29T16:33:11.813Z</time>
      </trkpt>
      <trkpt lat="42.86375" lon="19.2622282">
        <ele>995.3</ele>
        <time>2026-07-29T16:33:31.813Z</time>
      </trkpt>
      <trkpt lat="42.8636542" lon="19.2622184">
        <ele>996.6</ele>
        <time>2026-07-29T16:34:38.813Z</time>
      </trkpt>
      <trkpt lat="42.8636095" lon="19.2623879">
        <ele>996.3</ele>
        <time>2026-07-29T16:34:54.813Z</time>
      </trkpt>
      <trkpt lat="42.8635245" lon="19.2625524">
        <ele>997</ele>
        <time>2026-07-29T16:35:12.813Z</time>
      </trkpt>
      <trkpt lat="42.8634565" lon="19.2628156">
        <ele>997.3</ele>
        <time>2026-07-29T16:35:33.813Z</time>
      </trkpt>
      <trkpt lat="42.8634644" lon="19.2631303">
        <ele>997.2</ele>
        <time>2026-07-29T16:35:56.813Z</time>
      </trkpt>
      <trkpt lat="42.8633966" lon="19.263419">
        <ele>996.2</ele>
        <time>2026-07-29T16:36:21.813Z</time>
      </trkpt>
      <trkpt lat="42.8633618" lon="19.2635227">
        <ele>995.6</ele>
        <time>2026-07-29T16:36:30.813Z</time>
      </trkpt>
      <trkpt lat="42.8632696" lon="19.2637838">
        <ele>994.6</ele>
        <time>2026-07-29T16:36:52.813Z</time>
      </trkpt>
      <trkpt lat="42.863181" lon="19.2639458">
        <ele>995.3</ele>
        <time>2026-07-29T16:37:12.813Z</time>
      </trkpt>
      <trkpt lat="42.8631262" lon="19.2640354">
        <ele>995</ele>
        <time>2026-07-29T16:37:22.813Z</time>
      </trkpt>
      <trkpt lat="42.8631237242" lon="19.2640870716">
        <ele>956.55</ele>
        <time>2026-07-29T16:37:29.342Z</time>
      </trkpt>
      <trkpt lat="42.863134034" lon="19.2641103733">
        <ele>956.61</ele>
        <time>2026-07-29T16:37:30.342Z</time>
      </trkpt>
      <trkpt lat="42.8631372191" lon="19.2641293164">
        <ele>956.39</ele>
        <time>2026-07-29T16:38:01.342Z</time>
      </trkpt>
      <trkpt lat="42.8631393984" lon="19.2641323339">
        <ele>955.94</ele>
        <time>2026-07-29T16:38:32.342Z</time>
      </trkpt>
      <trkpt lat="42.8631445952" lon="19.2641463317">
        <ele>955.16</ele>
        <time>2026-07-29T16:38:50.342Z</time>
      </trkpt>
      <trkpt lat="42.863165969" lon="19.2641720641">
        <ele>955.16</ele>
        <time>2026-07-29T16:38:52.342Z</time>
      </trkpt>
      <trkpt lat="42.863175692" lon="19.2641839664">
        <ele>955.16</ele>
        <time>2026-07-29T16:38:53.342Z</time>
      </trkpt>
      <trkpt lat="42.8631808888" lon="19.2641913425">
        <ele>958</ele>
        <time>2026-07-29T16:39:44.342Z</time>
      </trkpt>
      <trkpt lat="42.8631820623" lon="19.2642428912">
        <ele>961.35</ele>
        <time>2026-07-29T16:39:50.342Z</time>
      </trkpt>
      <trkpt lat="42.8632298391" lon="19.2645008024">
        <ele>964.37</ele>
        <time>2026-07-29T16:39:55.342Z</time>
      </trkpt>
      <trkpt lat="42.8632387239" lon="19.2645594757">
        <ele>964.94</ele>
        <time>2026-07-29T16:39:56.342Z</time>
      </trkpt>
      <trkpt lat="42.8633828089" lon="19.2649551015">
        <ele>967.91</ele>
        <time>2026-07-29T16:40:04.342Z</time>
      </trkpt>
      <trkpt lat="42.8634073678" lon="19.2650124338">
        <ele>968.36</ele>
        <time>2026-07-29T16:40:05.342Z</time>
      </trkpt>
      <trkpt lat="42.8636145685" lon="19.2654069699">
        <ele>969.77</ele>
        <time>2026-07-29T16:40:12.342Z</time>
      </trkpt>
      <trkpt lat="42.8636377025" lon="19.265462542">
        <ele>969.91</ele>
        <time>2026-07-29T16:40:13.342Z</time>
      </trkpt>
      <trkpt lat="42.8636572324" lon="19.2655184492">
        <ele>970.01</ele>
        <time>2026-07-29T16:40:14.342Z</time>
      </trkpt>
      <trkpt lat="42.8636848088" lon="19.2656357121">
        <ele>970.15</ele>
        <time>2026-07-29T16:40:16.342Z</time>
      </trkpt>
      <trkpt lat="42.8637075238" lon="19.2657539807">
        <ele>970.3</ele>
        <time>2026-07-29T16:40:18.342Z</time>
      </trkpt>
      <trkpt lat="42.8637194261" lon="19.2658120673">
        <ele>970.4</ele>
        <time>2026-07-29T16:40:19.342Z</time>
      </trkpt>
      <trkpt lat="42.8637397103" lon="19.2658691481">
        <ele>970.53</ele>
        <time>2026-07-29T16:40:20.342Z</time>
      </trkpt>
      <trkpt lat="42.8637692984" lon="19.2660614289">
        <ele>971</ele>
        <time>2026-07-29T16:40:23.342Z</time>
      </trkpt>
      <trkpt lat="42.8637767583" lon="19.2661247123">
        <ele>971.12</ele>
        <time>2026-07-29T16:40:24.342Z</time>
      </trkpt>
      <trkpt lat="42.863835264" lon="19.2663529515">
        <ele>971.66</ele>
        <time>2026-07-29T16:40:28.342Z</time>
      </trkpt>
      <trkpt lat="42.8638746589" lon="19.2666714638">
        <ele>972.31</ele>
        <time>2026-07-29T16:40:33.342Z</time>
      </trkpt>
      <trkpt lat="42.8641475737" lon="19.2672243342">
        <ele>973.43</ele>
        <time>2026-07-29T16:40:45.342Z</time>
      </trkpt>
      <trkpt lat="42.8641872201" lon="19.2672660761">
        <ele>973.41</ele>
        <time>2026-07-29T16:40:46.342Z</time>
      </trkpt>
      <trkpt lat="42.864231728" lon="19.2673044652">
        <ele>973.37</ele>
        <time>2026-07-29T16:40:47.342Z</time>
      </trkpt>
      <trkpt lat="42.8642769065" lon="19.26734671">
        <ele>973.3</ele>
        <time>2026-07-29T16:40:48.342Z</time>
      </trkpt>
      <trkpt lat="42.8643167205" lon="19.2673900444">
        <ele>973.16</ele>
        <time>2026-07-29T16:40:49.342Z</time>
      </trkpt>
      <trkpt lat="42.864353098" lon="19.2674352229">
        <ele>972.92</ele>
        <time>2026-07-29T16:40:50.342Z</time>
      </trkpt>
      <trkpt lat="42.8643852007" lon="19.2674813233">
        <ele>972.6</ele>
        <time>2026-07-29T16:40:51.342Z</time>
      </trkpt>
      <trkpt lat="42.8644870408" lon="19.2677201238">
        <ele>969.47</ele>
        <time>2026-07-29T16:40:57.342Z</time>
      </trkpt>
      <trkpt lat="42.8644745518" lon="19.2679913621">
        <ele>965.92</ele>
        <time>2026-07-29T16:41:03.342Z</time>
      </trkpt>
      <trkpt lat="42.8645228315" lon="19.2682226188">
        <ele>962.5</ele>
        <time>2026-07-29T16:41:09.342Z</time>
      </trkpt>
      <trkpt lat="42.8646014538" lon="19.268523613">
        <ele>959.19</ele>
        <time>2026-07-29T16:41:15.342Z</time>
      </trkpt>
      <trkpt lat="42.8646383341" lon="19.2688489985">
        <ele>956.04</ele>
        <time>2026-07-29T16:41:21.342Z</time>
      </trkpt>
      <trkpt lat="42.8647099994" lon="19.2691790778">
        <ele>952.78</ele>
        <time>2026-07-29T16:41:28.342Z</time>
      </trkpt>
      <trkpt lat="42.8648285195" lon="19.2696003523">
        <ele>949.38</ele>
        <time>2026-07-29T16:41:37.342Z</time>
      </trkpt>
      <trkpt lat="42.8648508992" lon="19.2696533259">
        <ele>948.99</ele>
        <time>2026-07-29T16:41:38.342Z</time>
      </trkpt>
      <trkpt lat="42.8648719378" lon="19.2697066348">
        <ele>948.62</ele>
        <time>2026-07-29T16:41:39.342Z</time>
      </trkpt>
      <trkpt lat="42.8648884501" lon="19.269759357">
        <ele>948.3</ele>
        <time>2026-07-29T16:41:40.342Z</time>
      </trkpt>
      <trkpt lat="42.8648975026" lon="19.2698088102">
        <ele>948.07</ele>
        <time>2026-07-29T16:41:41.342Z</time>
      </trkpt>
      <trkpt lat="42.8649042919" lon="19.2699183617">
        <ele>947.57</ele>
        <time>2026-07-29T16:41:43.342Z</time>
      </trkpt>
      <trkpt lat="42.8650847543" lon="19.2704030033">
        <ele>945.51</ele>
        <time>2026-07-29T16:41:54.342Z</time>
      </trkpt>
      <trkpt lat="42.8651093971" lon="19.2704309989">
        <ele>945.34</ele>
        <time>2026-07-29T16:41:55.342Z</time>
      </trkpt>
      <trkpt lat="42.8651351295" lon="19.2704567313">
        <ele>945.14</ele>
        <time>2026-07-29T16:41:56.342Z</time>
      </trkpt>
      <trkpt lat="42.8651659749" lon="19.2704770993">
        <ele>944.91</ele>
        <time>2026-07-29T16:41:57.342Z</time>
      </trkpt>
      <trkpt lat="42.865201598" lon="19.2704899237">
        <ele>944.66</ele>
        <time>2026-07-29T16:41:58.342Z</time>
      </trkpt>
      <trkpt lat="42.8652395681" lon="19.2705035862">
        <ele>944.39</ele>
        <time>2026-07-29T16:41:59.342Z</time>
      </trkpt>
      <trkpt lat="42.8653416596" lon="19.2705765087">
        <ele>943.6</ele>
        <time>2026-07-29T16:42:02.342Z</time>
      </trkpt>
      <trkpt lat="42.8657259699" lon="19.2708920874">
        <ele>940.48</ele>
        <time>2026-07-29T16:42:15.342Z</time>
      </trkpt>
      <trkpt lat="42.8658930212" lon="19.271316044">
        <ele>937.47</ele>
        <time>2026-07-29T16:42:27.342Z</time>
      </trkpt>
      <trkpt lat="42.8659449052" lon="19.2716662399">
        <ele>934.39</ele>
        <time>2026-07-29T16:42:34.342Z</time>
      </trkpt>
      <trkpt lat="42.865952868" lon="19.2723579146">
        <ele>931.28</ele>
        <time>2026-07-29T16:42:45.342Z</time>
      </trkpt>
      <trkpt lat="42.8659544606" lon="19.2724206112">
        <ele>931.09</ele>
        <time>2026-07-29T16:42:46.342Z</time>
      </trkpt>
      <trkpt lat="42.8659766726" lon="19.2725941166">
        <ele>930.4</ele>
        <time>2026-07-29T16:42:50.342Z</time>
      </trkpt>
      <trkpt lat="42.8662169818" lon="19.2732372601">
        <ele>927.57</ele>
        <time>2026-07-29T16:43:04.342Z</time>
      </trkpt>
      <trkpt lat="42.8665471449" lon="19.2736840155">
        <ele>926.16</ele>
        <time>2026-07-29T16:43:17.342Z</time>
      </trkpt>
      <trkpt lat="42.8668592032" lon="19.2739966605">
        <ele>925.39</ele>
        <time>2026-07-29T16:43:29.342Z</time>
      </trkpt>
      <trkpt lat="42.8668918088" lon="19.2740324512">
        <ele>925.27</ele>
        <time>2026-07-29T16:43:30.342Z</time>
      </trkpt>
      <trkpt lat="42.8669230733" lon="19.2740710918">
        <ele>925.2</ele>
        <time>2026-07-29T16:43:31.342Z</time>
      </trkpt>
      <trkpt lat="42.8669507336" lon="19.2741124146">
        <ele>925.19</ele>
        <time>2026-07-29T16:43:32.342Z</time>
      </trkpt>
      <trkpt lat="42.8669778071" lon="19.2741603591">
        <ele>925.2</ele>
        <time>2026-07-29T16:43:33.342Z</time>
      </trkpt>
      <trkpt lat="42.86707839" lon="19.2743875086">
        <ele>925.27</ele>
        <time>2026-07-29T16:43:38.342Z</time>
      </trkpt>
      <trkpt lat="42.8675045259" lon="19.2749141436">
        <ele>925.7</ele>
        <time>2026-07-29T16:43:53.342Z</time>
      </trkpt>
      <trkpt lat="42.8675288334" lon="19.2749402113">
        <ele>925.75</ele>
        <time>2026-07-29T16:43:54.342Z</time>
      </trkpt>
      <trkpt lat="42.8675519675" lon="19.2749623396">
        <ele>925.77</ele>
        <time>2026-07-29T16:43:55.342Z</time>
      </trkpt>
      <trkpt lat="42.8675791249" lon="19.2749840487">
        <ele>925.77</ele>
        <time>2026-07-29T16:43:56.342Z</time>
      </trkpt>
      <trkpt lat="42.867607791" lon="19.2750013992">
        <ele>925.77</ele>
        <time>2026-07-29T16:43:57.342Z</time>
      </trkpt>
      <trkpt lat="42.8676621895" lon="19.2750298977">
        <ele>925.76</ele>
        <time>2026-07-29T16:43:59.342Z</time>
      </trkpt>
      <trkpt lat="42.8677091282" lon="19.2750640959">
        <ele>926.41</ele>
        <time>2026-07-29T16:44:47.342Z</time>
      </trkpt>
      <trkpt lat="42.8677095473" lon="19.2750589829">
        <ele>926.32</ele>
        <time>2026-07-29T16:45:14.342Z</time>
      </trkpt>
      <trkpt lat="42.8677508701" lon="19.2751496751">
        <ele>925.64</ele>
        <time>2026-07-29T16:45:30.342Z</time>
      </trkpt>
      <trkpt lat="42.8677619342" lon="19.2751621641">
        <ele>925.59</ele>
        <time>2026-07-29T16:45:31.342Z</time>
      </trkpt>
      <trkpt lat="42.8677750938" lon="19.2751738988">
        <ele>925.54</ele>
        <time>2026-07-29T16:45:32.342Z</time>
      </trkpt>
      <trkpt lat="42.8678190988" lon="19.2752058338">
        <ele>925.36</ele>
        <time>2026-07-29T16:45:35.342Z</time>
      </trkpt>
      <trkpt lat="42.8678278159" lon="19.2752129585">
        <ele>923.92</ele>
        <time>2026-07-29T16:45:47.342Z</time>
      </trkpt>
      <trkpt lat="42.8679257166" lon="19.2753515951">
        <ele>922.41</ele>
        <time>2026-07-29T16:45:59.342Z</time>
      </trkpt>
      <trkpt lat="42.8679472581" lon="19.2753915768">
        <ele>922.39</ele>
        <time>2026-07-29T16:46:01.342Z</time>
      </trkpt>
      <trkpt lat="42.8679545503" lon="19.2754097655">
        <ele>922.36</ele>
        <time>2026-07-29T16:46:02.342Z</time>
      </trkpt>
      <trkpt lat="42.8679597471" lon="19.2754179798">
        <ele>922.12</ele>
        <time>2026-07-29T16:46:09.342Z</time>
      </trkpt>
      <trkpt lat="42.8680451587" lon="19.2755752243">
        <ele>923.61</ele>
        <time>2026-07-29T16:46:21.342Z</time>
      </trkpt>
      <trkpt lat="42.868253449" lon="19.2760368995">
        <ele>926.6</ele>
        <time>2026-07-29T16:46:37.342Z</time>
      </trkpt>
      <trkpt lat="42.8683833685" lon="19.2764397338">
        <ele>927.37</ele>
        <time>2026-07-29T16:46:53.342Z</time>
      </trkpt>
      <trkpt lat="42.8683826979" lon="19.2764570843">
        <ele>927.39</ele>
        <time>2026-07-29T16:46:54.342Z</time>
      </trkpt>
    </trkseg>
  </trk>
</gpx>
